<?xml version="1.0" encoding="UTF-8" standalone="no" ?>
<gpx xmlns="http://www.topografix.com/GPX/1/1" xmlns:xsi="http://www.w3.org/2001/XMLSchema-instance" xsi:schemaLocation="http://www.topografix.com/GPX/1/1 http://www.topografix.com/GPX/1/1/gpx.xsd" version="1.1" creator="VisuGPX - https://www.visugpx.com">
  <metadata>
    <name>Jas du lièvre versant Sud</name>
    <desc><![CDATA[Montée par l\'est puis descente par le grand versant sud]]></desc>
  </metadata>
  <trk>
    <name><![CDATA[2013-03-09-Jasdulievre]]></name>
    <trkseg>
      <trkpt lat="45.24343" lon="5.97969">
        <ele>1076.875</ele>
        <time>2013-03-09T06:31:56Z</time>
      </trkpt>
      <trkpt lat="45.24335" lon="5.97966">
        <ele>1075.525024</ele>
        <time>2013-03-09T06:33:31Z</time>
      </trkpt>
      <trkpt lat="45.24334" lon="5.97965">
        <ele>1075.407471</ele>
        <time>2013-03-09T06:33:32Z</time>
      </trkpt>
      <trkpt lat="45.24319" lon="5.97975">
        <ele>1077.695801</ele>
        <time>2013-03-09T06:34:39Z</time>
      </trkpt>
      <trkpt lat="45.24318" lon="5.97975">
        <ele>1077.576538</ele>
        <time>2013-03-09T06:34:40Z</time>
      </trkpt>
      <trkpt lat="45.24303" lon="5.97976">
        <ele>1077.334839</ele>
        <time>2013-03-09T06:34:52Z</time>
      </trkpt>
      <trkpt lat="45.24295" lon="5.97978">
        <ele>1077.502808</ele>
        <time>2013-03-09T06:34:59Z</time>
      </trkpt>
      <trkpt lat="45.24287" lon="5.97978">
        <ele>1077.064331</ele>
        <time>2013-03-09T06:35:14Z</time>
      </trkpt>
      <trkpt lat="45.24279" lon="5.97982">
        <ele>1077.931885</ele>
        <time>2013-03-09T06:35:22Z</time>
      </trkpt>
      <trkpt lat="45.24272" lon="5.97991">
        <ele>1080.341553</ele>
        <time>2013-03-09T06:35:30Z</time>
      </trkpt>
      <trkpt lat="45.24265" lon="5.97996">
        <ele>1081.41272</ele>
        <time>2013-03-09T06:35:42Z</time>
      </trkpt>
      <trkpt lat="45.24264" lon="5.97996">
        <ele>1081.376099</ele>
        <time>2013-03-09T06:35:43Z</time>
      </trkpt>
      <trkpt lat="45.24249" lon="5.98005">
        <ele>1083.449219</ele>
        <time>2013-03-09T06:36:49Z</time>
      </trkpt>
      <trkpt lat="45.24248" lon="5.98006">
        <ele>1083.716187</ele>
        <time>2013-03-09T06:36:50Z</time>
      </trkpt>
      <trkpt lat="45.24234" lon="5.98018">
        <ele>1086.091919</ele>
        <time>2013-03-09T06:37:06Z</time>
      </trkpt>
      <trkpt lat="45.24226" lon="5.98022">
        <ele>1086.353027</ele>
        <time>2013-03-09T06:37:14Z</time>
      </trkpt>
      <trkpt lat="45.24218" lon="5.98027">
        <ele>1086.658813</ele>
        <time>2013-03-09T06:37:22Z</time>
      </trkpt>
      <trkpt lat="45.2421" lon="5.98031">
        <ele>1086.654419</ele>
        <time>2013-03-09T06:37:30Z</time>
      </trkpt>
      <trkpt lat="45.24203" lon="5.98037">
        <ele>1087.507935</ele>
        <time>2013-03-09T06:37:38Z</time>
      </trkpt>
      <trkpt lat="45.24195" lon="5.98042">
        <ele>1087.916992</ele>
        <time>2013-03-09T06:37:46Z</time>
      </trkpt>
      <trkpt lat="45.24188" lon="5.98049">
        <ele>1088.380005</ele>
        <time>2013-03-09T06:37:54Z</time>
      </trkpt>
      <trkpt lat="45.24187" lon="5.98049">
        <ele>1088.407471</ele>
        <time>2013-03-09T06:37:55Z</time>
      </trkpt>
      <trkpt lat="45.24174" lon="5.98061">
        <ele>1088.882446</ele>
        <time>2013-03-09T06:38:09Z</time>
      </trkpt>
      <trkpt lat="45.24169" lon="5.98071">
        <ele>1090.494995</ele>
        <time>2013-03-09T06:38:16Z</time>
      </trkpt>
      <trkpt lat="45.24163" lon="5.98081">
        <ele>1092.237549</ele>
        <time>2013-03-09T06:38:24Z</time>
      </trkpt>
      <trkpt lat="45.2416" lon="5.98092">
        <ele>1094.822754</ele>
        <time>2013-03-09T06:38:33Z</time>
      </trkpt>
      <trkpt lat="45.24154" lon="5.98101">
        <ele>1096.687988</ele>
        <time>2013-03-09T06:38:43Z</time>
      </trkpt>
      <trkpt lat="45.24148" lon="5.9811">
        <ele>1098.524536</ele>
        <time>2013-03-09T06:39:07Z</time>
      </trkpt>
      <trkpt lat="45.24147" lon="5.98111">
        <ele>1098.658813</ele>
        <time>2013-03-09T06:39:08Z</time>
      </trkpt>
      <trkpt lat="45.24133" lon="5.98122">
        <ele>1099.214478</ele>
        <time>2013-03-09T06:39:22Z</time>
      </trkpt>
      <trkpt lat="45.24125" lon="5.98126">
        <ele>1098.773438</ele>
        <time>2013-03-09T06:39:31Z</time>
      </trkpt>
      <trkpt lat="45.24116" lon="5.98125">
        <ele>1096.717773</ele>
        <time>2013-03-09T06:40:06Z</time>
      </trkpt>
      <trkpt lat="45.2411" lon="5.98133">
        <ele>1098.118652</ele>
        <time>2013-03-09T06:40:14Z</time>
      </trkpt>
      <trkpt lat="45.2411" lon="5.98134">
        <ele>1098.236816</ele>
        <time>2013-03-09T06:40:15Z</time>
      </trkpt>
      <trkpt lat="45.241" lon="5.98153">
        <ele>1101.56897</ele>
        <time>2013-03-09T06:40:32Z</time>
      </trkpt>
      <trkpt lat="45.24097" lon="5.98163">
        <ele>1103.304321</ele>
        <time>2013-03-09T06:40:40Z</time>
      </trkpt>
      <trkpt lat="45.24095" lon="5.98175">
        <ele>1105.515869</ele>
        <time>2013-03-09T06:40:49Z</time>
      </trkpt>
      <trkpt lat="45.24093" lon="5.98187">
        <ele>1108.060791</ele>
        <time>2013-03-09T06:40:59Z</time>
      </trkpt>
      <trkpt lat="45.24091" lon="5.98197">
        <ele>1110.020996</ele>
        <time>2013-03-09T06:41:07Z</time>
      </trkpt>
      <trkpt lat="45.2409" lon="5.98208">
        <ele>1112.108398</ele>
        <time>2013-03-09T06:41:15Z</time>
      </trkpt>
      <trkpt lat="45.24089" lon="5.9821">
        <ele>1112.219116</ele>
        <time>2013-03-09T06:41:16Z</time>
      </trkpt>
      <trkpt lat="45.24082" lon="5.9823">
        <ele>1112.805786</ele>
        <time>2013-03-09T06:41:31Z</time>
      </trkpt>
      <trkpt lat="45.24076" lon="5.98239">
        <ele>1112.579956</ele>
        <time>2013-03-09T06:41:39Z</time>
      </trkpt>
      <trkpt lat="45.2407" lon="5.98247">
        <ele>1112.471069</ele>
        <time>2013-03-09T06:41:46Z</time>
      </trkpt>
      <trkpt lat="45.24064" lon="5.98256">
        <ele>1112.530151</ele>
        <time>2013-03-09T06:41:53Z</time>
      </trkpt>
      <trkpt lat="45.24058" lon="5.98264">
        <ele>1112.699341</ele>
        <time>2013-03-09T06:42:00Z</time>
      </trkpt>
      <trkpt lat="45.24051" lon="5.98271">
        <ele>1112.969238</ele>
        <time>2013-03-09T06:42:07Z</time>
      </trkpt>
      <trkpt lat="45.24042" lon="5.98275">
        <ele>1113.842529</ele>
        <time>2013-03-09T06:42:14Z</time>
      </trkpt>
      <trkpt lat="45.24035" lon="5.9828">
        <ele>1115.126465</ele>
        <time>2013-03-09T06:42:21Z</time>
      </trkpt>
      <trkpt lat="45.24034" lon="5.98281">
        <ele>1115.230835</ele>
        <time>2013-03-09T06:42:22Z</time>
      </trkpt>
      <trkpt lat="45.24019" lon="5.98284">
        <ele>1115.395874</ele>
        <time>2013-03-09T06:42:35Z</time>
      </trkpt>
      <trkpt lat="45.2401" lon="5.98286">
        <ele>1115.503418</ele>
        <time>2013-03-09T06:42:43Z</time>
      </trkpt>
      <trkpt lat="45.24002" lon="5.98285">
        <ele>1114.426758</ele>
        <time>2013-03-09T06:42:52Z</time>
      </trkpt>
      <trkpt lat="45.23993" lon="5.98285">
        <ele>1113.320679</ele>
        <time>2013-03-09T06:43:02Z</time>
      </trkpt>
      <trkpt lat="45.23985" lon="5.98288">
        <ele>1113.110962</ele>
        <time>2013-03-09T06:43:11Z</time>
      </trkpt>
      <trkpt lat="45.23977" lon="5.98292">
        <ele>1113.177368</ele>
        <time>2013-03-09T06:43:20Z</time>
      </trkpt>
      <trkpt lat="45.23971" lon="5.98299">
        <ele>1114.937012</ele>
        <time>2013-03-09T06:43:28Z</time>
      </trkpt>
      <trkpt lat="45.2397" lon="5.983">
        <ele>1114.960693</ele>
        <time>2013-03-09T06:43:29Z</time>
      </trkpt>
      <trkpt lat="45.23957" lon="5.98315">
        <ele>1118.245605</ele>
        <time>2013-03-09T06:43:44Z</time>
      </trkpt>
      <trkpt lat="45.23952" lon="5.98325">
        <ele>1120.728027</ele>
        <time>2013-03-09T06:43:52Z</time>
      </trkpt>
      <trkpt lat="45.23946" lon="5.98332">
        <ele>1121.876709</ele>
        <time>2013-03-09T06:44:00Z</time>
      </trkpt>
      <trkpt lat="45.2394" lon="5.98341">
        <ele>1123.058105</ele>
        <time>2013-03-09T06:44:08Z</time>
      </trkpt>
      <trkpt lat="45.23934" lon="5.98349">
        <ele>1124.279175</ele>
        <time>2013-03-09T06:44:16Z</time>
      </trkpt>
      <trkpt lat="45.23928" lon="5.98358">
        <ele>1125.704346</ele>
        <time>2013-03-09T06:44:24Z</time>
      </trkpt>
      <trkpt lat="45.23922" lon="5.98365">
        <ele>1126.711914</ele>
        <time>2013-03-09T06:44:31Z</time>
      </trkpt>
      <trkpt lat="45.23921" lon="5.98366">
        <ele>1126.899902</ele>
        <time>2013-03-09T06:44:32Z</time>
      </trkpt>
      <trkpt lat="45.23909" lon="5.9838">
        <ele>1129.144409</ele>
        <time>2013-03-09T06:44:46Z</time>
      </trkpt>
      <trkpt lat="45.23905" lon="5.98391">
        <ele>1131.692993</ele>
        <time>2013-03-09T06:44:55Z</time>
      </trkpt>
      <trkpt lat="45.23902" lon="5.98402">
        <ele>1134.253418</ele>
        <time>2013-03-09T06:45:04Z</time>
      </trkpt>
      <trkpt lat="45.23899" lon="5.98413">
        <ele>1136.942383</ele>
        <time>2013-03-09T06:45:12Z</time>
      </trkpt>
      <trkpt lat="45.23894" lon="5.98424">
        <ele>1139.5896</ele>
        <time>2013-03-09T06:45:20Z</time>
      </trkpt>
      <trkpt lat="45.23886" lon="5.9843">
        <ele>1141.090698</ele>
        <time>2013-03-09T06:45:27Z</time>
      </trkpt>
      <trkpt lat="45.23878" lon="5.9843">
        <ele>1141.243896</ele>
        <time>2013-03-09T06:46:28Z</time>
      </trkpt>
      <trkpt lat="45.23877" lon="5.98431">
        <ele>1141.315552</ele>
        <time>2013-03-09T06:46:29Z</time>
      </trkpt>
      <trkpt lat="45.23862" lon="5.98433">
        <ele>1142.062378</ele>
        <time>2013-03-09T06:46:43Z</time>
      </trkpt>
      <trkpt lat="45.23854" lon="5.98435">
        <ele>1142.968994</ele>
        <time>2013-03-09T06:46:50Z</time>
      </trkpt>
      <trkpt lat="45.23845" lon="5.98437">
        <ele>1144.089111</ele>
        <time>2013-03-09T06:46:58Z</time>
      </trkpt>
      <trkpt lat="45.23837" lon="5.98436">
        <ele>1144.466309</ele>
        <time>2013-03-09T06:47:10Z</time>
      </trkpt>
      <trkpt lat="45.23828" lon="5.98433">
        <ele>1144.034912</ele>
        <time>2013-03-09T06:47:18Z</time>
      </trkpt>
      <trkpt lat="45.2382" lon="5.98431">
        <ele>1143.847412</ele>
        <time>2013-03-09T06:47:25Z</time>
      </trkpt>
      <trkpt lat="45.23811" lon="5.98429">
        <ele>1143.7146</ele>
        <time>2013-03-09T06:47:32Z</time>
      </trkpt>
      <trkpt lat="45.2381" lon="5.98429">
        <ele>1143.686035</ele>
        <time>2013-03-09T06:47:33Z</time>
      </trkpt>
      <trkpt lat="45.23795" lon="5.98427">
        <ele>1143.662231</ele>
        <time>2013-03-09T06:47:46Z</time>
      </trkpt>
      <trkpt lat="45.23787" lon="5.98427">
        <ele>1144.141846</ele>
        <time>2013-03-09T06:47:52Z</time>
      </trkpt>
      <trkpt lat="45.23779" lon="5.98429">
        <ele>1144.952515</ele>
        <time>2013-03-09T06:47:58Z</time>
      </trkpt>
      <trkpt lat="45.2377" lon="5.98431">
        <ele>1145.256836</ele>
        <time>2013-03-09T06:48:05Z</time>
      </trkpt>
      <trkpt lat="45.23762" lon="5.98433">
        <ele>1145.041382</ele>
        <time>2013-03-09T06:48:12Z</time>
      </trkpt>
      <trkpt lat="45.23756" lon="5.98441">
        <ele>1146.707397</ele>
        <time>2013-03-09T06:48:20Z</time>
      </trkpt>
      <trkpt lat="45.2375" lon="5.98449">
        <ele>1149.011108</ele>
        <time>2013-03-09T06:48:28Z</time>
      </trkpt>
      <trkpt lat="45.23743" lon="5.98456">
        <ele>1150.74353</ele>
        <time>2013-03-09T06:48:35Z</time>
      </trkpt>
      <trkpt lat="45.23742" lon="5.98457">
        <ele>1151.027222</ele>
        <time>2013-03-09T06:48:36Z</time>
      </trkpt>
      <trkpt lat="45.2373" lon="5.98468">
        <ele>1154.191772</ele>
        <time>2013-03-09T06:48:50Z</time>
      </trkpt>
      <trkpt lat="45.23722" lon="5.98474">
        <ele>1156.145142</ele>
        <time>2013-03-09T06:48:58Z</time>
      </trkpt>
      <trkpt lat="45.23716" lon="5.98481">
        <ele>1158.563354</ele>
        <time>2013-03-09T06:49:06Z</time>
      </trkpt>
      <trkpt lat="45.23708" lon="5.98487">
        <ele>1160.996216</ele>
        <time>2013-03-09T06:49:14Z</time>
      </trkpt>
      <trkpt lat="45.237" lon="5.98491">
        <ele>1162.523438</ele>
        <time>2013-03-09T06:49:22Z</time>
      </trkpt>
      <trkpt lat="45.23692" lon="5.98491">
        <ele>1162.415283</ele>
        <time>2013-03-09T06:49:29Z</time>
      </trkpt>
      <trkpt lat="45.23683" lon="5.98488">
        <ele>1161.387939</ele>
        <time>2013-03-09T06:49:38Z</time>
      </trkpt>
      <trkpt lat="45.23683" lon="5.98489">
        <ele>1161.471558</ele>
        <time>2013-03-09T06:49:39Z</time>
      </trkpt>
      <trkpt lat="45.23669" lon="5.98476">
        <ele>1156.783203</ele>
        <time>2013-03-09T06:50:01Z</time>
      </trkpt>
      <trkpt lat="45.23661" lon="5.98475">
        <ele>1156.706055</ele>
        <time>2013-03-09T06:50:08Z</time>
      </trkpt>
      <trkpt lat="45.23652" lon="5.98478">
        <ele>1158.38501</ele>
        <time>2013-03-09T06:50:15Z</time>
      </trkpt>
      <trkpt lat="45.23645" lon="5.98483">
        <ele>1160.704956</ele>
        <time>2013-03-09T06:50:21Z</time>
      </trkpt>
      <trkpt lat="45.23638" lon="5.98489">
        <ele>1163.459595</ele>
        <time>2013-03-09T06:50:28Z</time>
      </trkpt>
      <trkpt lat="45.2363" lon="5.98495">
        <ele>1165.429321</ele>
        <time>2013-03-09T06:50:35Z</time>
      </trkpt>
      <trkpt lat="45.23622" lon="5.985">
        <ele>1166.262451</ele>
        <time>2013-03-09T06:50:42Z</time>
      </trkpt>
      <trkpt lat="45.23621" lon="5.985">
        <ele>1166.375</ele>
        <time>2013-03-09T06:50:43Z</time>
      </trkpt>
      <trkpt lat="45.23606" lon="5.98507">
        <ele>1166.767456</ele>
        <time>2013-03-09T06:50:55Z</time>
      </trkpt>
      <trkpt lat="45.23598" lon="5.9851">
        <ele>1166.755005</ele>
        <time>2013-03-09T06:51:02Z</time>
      </trkpt>
      <trkpt lat="45.23589" lon="5.98514">
        <ele>1167.158447</ele>
        <time>2013-03-09T06:51:10Z</time>
      </trkpt>
      <trkpt lat="45.23581" lon="5.98518">
        <ele>1167.095215</ele>
        <time>2013-03-09T06:51:18Z</time>
      </trkpt>
      <trkpt lat="45.23574" lon="5.98525">
        <ele>1168.346802</ele>
        <time>2013-03-09T06:51:30Z</time>
      </trkpt>
      <trkpt lat="45.23566" lon="5.98531">
        <ele>1169.000977</ele>
        <time>2013-03-09T06:51:38Z</time>
      </trkpt>
      <trkpt lat="45.23558" lon="5.98536">
        <ele>1169.029053</ele>
        <time>2013-03-09T06:51:47Z</time>
      </trkpt>
      <trkpt lat="45.23557" lon="5.98536">
        <ele>1168.905396</ele>
        <time>2013-03-09T06:51:48Z</time>
      </trkpt>
      <trkpt lat="45.23545" lon="5.9855">
        <ele>1170.99707</ele>
        <time>2013-03-09T06:52:05Z</time>
      </trkpt>
      <trkpt lat="45.23538" lon="5.98557">
        <ele>1171.859375</ele>
        <time>2013-03-09T06:52:15Z</time>
      </trkpt>
      <trkpt lat="45.23534" lon="5.98569">
        <ele>1174.477173</ele>
        <time>2013-03-09T06:52:23Z</time>
      </trkpt>
      <trkpt lat="45.23532" lon="5.98579">
        <ele>1177.170288</ele>
        <time>2013-03-09T06:52:31Z</time>
      </trkpt>
      <trkpt lat="45.23525" lon="5.98588">
        <ele>1178.276001</ele>
        <time>2013-03-09T06:52:41Z</time>
      </trkpt>
      <trkpt lat="45.23518" lon="5.98594">
        <ele>1178.525024</ele>
        <time>2013-03-09T06:52:50Z</time>
      </trkpt>
      <trkpt lat="45.23517" lon="5.98595">
        <ele>1178.664551</ele>
        <time>2013-03-09T06:52:51Z</time>
      </trkpt>
      <trkpt lat="45.23504" lon="5.98607">
        <ele>1179.34729</ele>
        <time>2013-03-09T06:53:07Z</time>
      </trkpt>
      <trkpt lat="45.23496" lon="5.98614">
        <ele>1179.504395</ele>
        <time>2013-03-09T06:53:16Z</time>
      </trkpt>
      <trkpt lat="45.23492" lon="5.98625">
        <ele>1181.601196</ele>
        <time>2013-03-09T06:53:23Z</time>
      </trkpt>
      <trkpt lat="45.23486" lon="5.98634">
        <ele>1182.727173</ele>
        <time>2013-03-09T06:53:31Z</time>
      </trkpt>
      <trkpt lat="45.2348" lon="5.98643">
        <ele>1183.864868</ele>
        <time>2013-03-09T06:53:40Z</time>
      </trkpt>
      <trkpt lat="45.23476" lon="5.98653">
        <ele>1185.50293</ele>
        <time>2013-03-09T06:53:48Z</time>
      </trkpt>
      <trkpt lat="45.23473" lon="5.98663">
        <ele>1187.546143</ele>
        <time>2013-03-09T06:53:55Z</time>
      </trkpt>
      <trkpt lat="45.23472" lon="5.98665">
        <ele>1187.835571</ele>
        <time>2013-03-09T06:53:56Z</time>
      </trkpt>
      <trkpt lat="45.23467" lon="5.98685">
        <ele>1191.379639</ele>
        <time>2013-03-09T06:54:08Z</time>
      </trkpt>
      <trkpt lat="45.23465" lon="5.98697">
        <ele>1193.404663</ele>
        <time>2013-03-09T06:54:14Z</time>
      </trkpt>
      <trkpt lat="45.23463" lon="5.98708">
        <ele>1195.302246</ele>
        <time>2013-03-09T06:54:20Z</time>
      </trkpt>
      <trkpt lat="45.23457" lon="5.98717">
        <ele>1196.026978</ele>
        <time>2013-03-09T06:54:27Z</time>
      </trkpt>
      <trkpt lat="45.23451" lon="5.98724">
        <ele>1196.348877</ele>
        <time>2013-03-09T06:54:34Z</time>
      </trkpt>
      <trkpt lat="45.23444" lon="5.98731">
        <ele>1196.750122</ele>
        <time>2013-03-09T06:54:41Z</time>
      </trkpt>
      <trkpt lat="45.23437" lon="5.98739">
        <ele>1197.355347</ele>
        <time>2013-03-09T06:54:49Z</time>
      </trkpt>
      <trkpt lat="45.2343" lon="5.98745">
        <ele>1197.762207</ele>
        <time>2013-03-09T06:54:56Z</time>
      </trkpt>
      <trkpt lat="45.23429" lon="5.98746">
        <ele>1197.876465</ele>
        <time>2013-03-09T06:54:57Z</time>
      </trkpt>
      <trkpt lat="45.23416" lon="5.98758">
        <ele>1199.071167</ele>
        <time>2013-03-09T06:55:11Z</time>
      </trkpt>
      <trkpt lat="45.23408" lon="5.98763">
        <ele>1199.17981</ele>
        <time>2013-03-09T06:55:18Z</time>
      </trkpt>
      <trkpt lat="45.23401" lon="5.98769">
        <ele>1199.618652</ele>
        <time>2013-03-09T06:55:25Z</time>
      </trkpt>
      <trkpt lat="45.23394" lon="5.98774">
        <ele>1200.001831</ele>
        <time>2013-03-09T06:55:32Z</time>
      </trkpt>
      <trkpt lat="45.23387" lon="5.98778">
        <ele>1200.215576</ele>
        <time>2013-03-09T06:55:39Z</time>
      </trkpt>
      <trkpt lat="45.23379" lon="5.98783">
        <ele>1200.574341</ele>
        <time>2013-03-09T06:55:47Z</time>
      </trkpt>
      <trkpt lat="45.23372" lon="5.9879">
        <ele>1201.255737</ele>
        <time>2013-03-09T06:55:55Z</time>
      </trkpt>
      <trkpt lat="45.23364" lon="5.98796">
        <ele>1201.790894</ele>
        <time>2013-03-09T06:56:03Z</time>
      </trkpt>
      <trkpt lat="45.23363" lon="5.98797">
        <ele>1201.812866</ele>
        <time>2013-03-09T06:56:04Z</time>
      </trkpt>
      <trkpt lat="45.23348" lon="5.98805">
        <ele>1202.415039</ele>
        <time>2013-03-09T06:56:19Z</time>
      </trkpt>
      <trkpt lat="45.23341" lon="5.9881">
        <ele>1203.07959</ele>
        <time>2013-03-09T06:56:27Z</time>
      </trkpt>
      <trkpt lat="45.23334" lon="5.98817">
        <ele>1204.250977</ele>
        <time>2013-03-09T06:56:35Z</time>
      </trkpt>
      <trkpt lat="45.23327" lon="5.98824">
        <ele>1205.625122</ele>
        <time>2013-03-09T06:56:43Z</time>
      </trkpt>
      <trkpt lat="45.2332" lon="5.98831">
        <ele>1207.232788</ele>
        <time>2013-03-09T06:56:51Z</time>
      </trkpt>
      <trkpt lat="45.23312" lon="5.98836">
        <ele>1208.096924</ele>
        <time>2013-03-09T06:56:59Z</time>
      </trkpt>
      <trkpt lat="45.23305" lon="5.98842">
        <ele>1209.476807</ele>
        <time>2013-03-09T06:57:07Z</time>
      </trkpt>
      <trkpt lat="45.23304" lon="5.98843">
        <ele>1209.736816</ele>
        <time>2013-03-09T06:57:08Z</time>
      </trkpt>
      <trkpt lat="45.2329" lon="5.98853">
        <ele>1212.134521</ele>
        <time>2013-03-09T06:57:23Z</time>
      </trkpt>
      <trkpt lat="45.23283" lon="5.9886">
        <ele>1214.178467</ele>
        <time>2013-03-09T06:57:31Z</time>
      </trkpt>
      <trkpt lat="45.23275" lon="5.98864">
        <ele>1215.340332</ele>
        <time>2013-03-09T06:57:39Z</time>
      </trkpt>
      <trkpt lat="45.23268" lon="5.98868">
        <ele>1216.534058</ele>
        <time>2013-03-09T06:57:47Z</time>
      </trkpt>
      <trkpt lat="45.2326" lon="5.98869">
        <ele>1216.393555</ele>
        <time>2013-03-09T06:57:55Z</time>
      </trkpt>
      <trkpt lat="45.23251" lon="5.98871">
        <ele>1216.443848</ele>
        <time>2013-03-09T06:58:04Z</time>
      </trkpt>
      <trkpt lat="45.23242" lon="5.98872">
        <ele>1216.285645</ele>
        <time>2013-03-09T06:58:13Z</time>
      </trkpt>
      <trkpt lat="45.23241" lon="5.98872">
        <ele>1216.239136</ele>
        <time>2013-03-09T06:58:14Z</time>
      </trkpt>
      <trkpt lat="45.23226" lon="5.98877">
        <ele>1216.561523</ele>
        <time>2013-03-09T06:58:29Z</time>
      </trkpt>
      <trkpt lat="45.23218" lon="5.98881">
        <ele>1216.874634</ele>
        <time>2013-03-09T06:58:37Z</time>
      </trkpt>
      <trkpt lat="45.23212" lon="5.98889">
        <ele>1217.796875</ele>
        <time>2013-03-09T06:58:46Z</time>
      </trkpt>
      <trkpt lat="45.23205" lon="5.98897">
        <ele>1218.508789</ele>
        <time>2013-03-09T06:58:55Z</time>
      </trkpt>
      <trkpt lat="45.23198" lon="5.98903">
        <ele>1218.166016</ele>
        <time>2013-03-09T06:59:03Z</time>
      </trkpt>
      <trkpt lat="45.23191" lon="5.9891">
        <ele>1218.232666</ele>
        <time>2013-03-09T06:59:11Z</time>
      </trkpt>
      <trkpt lat="45.23185" lon="5.98917">
        <ele>1218.442871</ele>
        <time>2013-03-09T06:59:19Z</time>
      </trkpt>
      <trkpt lat="45.23184" lon="5.98918">
        <ele>1218.582886</ele>
        <time>2013-03-09T06:59:20Z</time>
      </trkpt>
      <trkpt lat="45.23176" lon="5.98939">
        <ele>1221.464111</ele>
        <time>2013-03-09T06:59:35Z</time>
      </trkpt>
      <trkpt lat="45.23171" lon="5.98947">
        <ele>1222.231201</ele>
        <time>2013-03-09T06:59:42Z</time>
      </trkpt>
      <trkpt lat="45.23167" lon="5.98958">
        <ele>1223.535767</ele>
        <time>2013-03-09T06:59:50Z</time>
      </trkpt>
      <trkpt lat="45.23161" lon="5.98968">
        <ele>1223.79187</ele>
        <time>2013-03-09T06:59:58Z</time>
      </trkpt>
      <trkpt lat="45.23158" lon="5.98978">
        <ele>1224.60498</ele>
        <time>2013-03-09T07:00:05Z</time>
      </trkpt>
      <trkpt lat="45.23153" lon="5.98987">
        <ele>1224.574951</ele>
        <time>2013-03-09T07:00:13Z</time>
      </trkpt>
      <trkpt lat="45.23148" lon="5.98996">
        <ele>1224.5</ele>
        <time>2013-03-09T07:00:21Z</time>
      </trkpt>
      <trkpt lat="45.23147" lon="5.98997">
        <ele>1224.380005</ele>
        <time>2013-03-09T07:00:22Z</time>
      </trkpt>
      <trkpt lat="45.23137" lon="5.99015">
        <ele>1224.22998</ele>
        <time>2013-03-09T07:00:37Z</time>
      </trkpt>
      <trkpt lat="45.23134" lon="5.99026">
        <ele>1225.14502</ele>
        <time>2013-03-09T07:00:44Z</time>
      </trkpt>
      <trkpt lat="45.2313" lon="5.99036">
        <ele>1225.594971</ele>
        <time>2013-03-09T07:00:52Z</time>
      </trkpt>
      <trkpt lat="45.23126" lon="5.99047">
        <ele>1227.422607</ele>
        <time>2013-03-09T07:01:00Z</time>
      </trkpt>
      <trkpt lat="45.23122" lon="5.99058">
        <ele>1229.119995</ele>
        <time>2013-03-09T07:01:08Z</time>
      </trkpt>
      <trkpt lat="45.23118" lon="5.99069">
        <ele>1231.326538</ele>
        <time>2013-03-09T07:01:15Z</time>
      </trkpt>
      <trkpt lat="45.23114" lon="5.99079">
        <ele>1233.697754</ele>
        <time>2013-03-09T07:01:22Z</time>
      </trkpt>
      <trkpt lat="45.23114" lon="5.9908">
        <ele>1234.001465</ele>
        <time>2013-03-09T07:01:23Z</time>
      </trkpt>
      <trkpt lat="45.23103" lon="5.99096">
        <ele>1237.720093</ele>
        <time>2013-03-09T07:01:37Z</time>
      </trkpt>
      <trkpt lat="45.23095" lon="5.99102">
        <ele>1239.295166</ele>
        <time>2013-03-09T07:01:45Z</time>
      </trkpt>
      <trkpt lat="45.23087" lon="5.99107">
        <ele>1240.627808</ele>
        <time>2013-03-09T07:01:53Z</time>
      </trkpt>
      <trkpt lat="45.23079" lon="5.9911">
        <ele>1241.515869</ele>
        <time>2013-03-09T07:02:00Z</time>
      </trkpt>
      <trkpt lat="45.23071" lon="5.99114">
        <ele>1242.424927</ele>
        <time>2013-03-09T07:02:07Z</time>
      </trkpt>
      <trkpt lat="45.23063" lon="5.99117">
        <ele>1243.227173</ele>
        <time>2013-03-09T07:02:15Z</time>
      </trkpt>
      <trkpt lat="45.23054" lon="5.99121">
        <ele>1244.247681</ele>
        <time>2013-03-09T07:02:23Z</time>
      </trkpt>
      <trkpt lat="45.23053" lon="5.99121">
        <ele>1244.42627</ele>
        <time>2013-03-09T07:02:24Z</time>
      </trkpt>
      <trkpt lat="45.23038" lon="5.99127">
        <ele>1245.800903</ele>
        <time>2013-03-09T07:02:38Z</time>
      </trkpt>
      <trkpt lat="45.2303" lon="5.99131">
        <ele>1246.774658</ele>
        <time>2013-03-09T07:02:46Z</time>
      </trkpt>
      <trkpt lat="45.23022" lon="5.99134">
        <ele>1247.942383</ele>
        <time>2013-03-09T07:02:54Z</time>
      </trkpt>
      <trkpt lat="45.23013" lon="5.99137">
        <ele>1248.528931</ele>
        <time>2013-03-09T07:03:02Z</time>
      </trkpt>
      <trkpt lat="45.23005" lon="5.99141">
        <ele>1249.667847</ele>
        <time>2013-03-09T07:03:10Z</time>
      </trkpt>
      <trkpt lat="45.22997" lon="5.99144">
        <ele>1250.475464</ele>
        <time>2013-03-09T07:03:18Z</time>
      </trkpt>
      <trkpt lat="45.22989" lon="5.99147">
        <ele>1251.037354</ele>
        <time>2013-03-09T07:03:26Z</time>
      </trkpt>
      <trkpt lat="45.22988" lon="5.99148">
        <ele>1251.09021</ele>
        <time>2013-03-09T07:03:27Z</time>
      </trkpt>
      <trkpt lat="45.22973" lon="5.99158">
        <ele>1254.059082</ele>
        <time>2013-03-09T07:03:43Z</time>
      </trkpt>
      <trkpt lat="45.22964" lon="5.99161">
        <ele>1254.536499</ele>
        <time>2013-03-09T07:03:51Z</time>
      </trkpt>
      <trkpt lat="45.22956" lon="5.99163">
        <ele>1254.322388</ele>
        <time>2013-03-09T07:03:59Z</time>
      </trkpt>
      <trkpt lat="45.22948" lon="5.99163">
        <ele>1253.030518</ele>
        <time>2013-03-09T07:04:06Z</time>
      </trkpt>
      <trkpt lat="45.22939" lon="5.99161">
        <ele>1251.218628</ele>
        <time>2013-03-09T07:04:14Z</time>
      </trkpt>
      <trkpt lat="45.22931" lon="5.99159">
        <ele>1249.019287</ele>
        <time>2013-03-09T07:04:21Z</time>
      </trkpt>
      <trkpt lat="45.22922" lon="5.99158">
        <ele>1247.554321</ele>
        <time>2013-03-09T07:04:29Z</time>
      </trkpt>
      <trkpt lat="45.22921" lon="5.99158">
        <ele>1247.489624</ele>
        <time>2013-03-09T07:04:30Z</time>
      </trkpt>
      <trkpt lat="45.22906" lon="5.99167">
        <ele>1248.788086</ele>
        <time>2013-03-09T07:04:45Z</time>
      </trkpt>
      <trkpt lat="45.22899" lon="5.99172">
        <ele>1249.90332</ele>
        <time>2013-03-09T07:04:52Z</time>
      </trkpt>
      <trkpt lat="45.22893" lon="5.9918">
        <ele>1252.41748</ele>
        <time>2013-03-09T07:04:59Z</time>
      </trkpt>
      <trkpt lat="45.22888" lon="5.99189">
        <ele>1254.540527</ele>
        <time>2013-03-09T07:05:06Z</time>
      </trkpt>
      <trkpt lat="45.22883" lon="5.99197">
        <ele>1256.151855</ele>
        <time>2013-03-09T07:05:12Z</time>
      </trkpt>
      <trkpt lat="45.22878" lon="5.99205">
        <ele>1258.502319</ele>
        <time>2013-03-09T07:05:18Z</time>
      </trkpt>
      <trkpt lat="45.22873" lon="5.99215">
        <ele>1261.01709</ele>
        <time>2013-03-09T07:05:26Z</time>
      </trkpt>
      <trkpt lat="45.22867" lon="5.99224">
        <ele>1263.49707</ele>
        <time>2013-03-09T07:05:35Z</time>
      </trkpt>
      <trkpt lat="45.22866" lon="5.99225">
        <ele>1263.649902</ele>
        <time>2013-03-09T07:05:36Z</time>
      </trkpt>
      <trkpt lat="45.22855" lon="5.99241">
        <ele>1266.585083</ele>
        <time>2013-03-09T07:05:49Z</time>
      </trkpt>
      <trkpt lat="45.22849" lon="5.99248">
        <ele>1267.703491</ele>
        <time>2013-03-09T07:05:56Z</time>
      </trkpt>
      <trkpt lat="45.22843" lon="5.99257">
        <ele>1269.202148</ele>
        <time>2013-03-09T07:06:05Z</time>
      </trkpt>
      <trkpt lat="45.22836" lon="5.99264">
        <ele>1269.642578</ele>
        <time>2013-03-09T07:06:14Z</time>
      </trkpt>
      <trkpt lat="45.22829" lon="5.9927">
        <ele>1270.019531</ele>
        <time>2013-03-09T07:06:21Z</time>
      </trkpt>
      <trkpt lat="45.22822" lon="5.99275">
        <ele>1270.706665</ele>
        <time>2013-03-09T07:06:27Z</time>
      </trkpt>
      <trkpt lat="45.22814" lon="5.99281">
        <ele>1271.449341</ele>
        <time>2013-03-09T07:06:36Z</time>
      </trkpt>
      <trkpt lat="45.22813" lon="5.99282">
        <ele>1271.497925</ele>
        <time>2013-03-09T07:06:37Z</time>
      </trkpt>
      <trkpt lat="45.22799" lon="5.9929">
        <ele>1270.78833</ele>
        <time>2013-03-09T07:06:49Z</time>
      </trkpt>
      <trkpt lat="45.22791" lon="5.99294">
        <ele>1271.165405</ele>
        <time>2013-03-09T07:06:55Z</time>
      </trkpt>
      <trkpt lat="45.22784" lon="5.99299">
        <ele>1271.307007</ele>
        <time>2013-03-09T07:07:01Z</time>
      </trkpt>
      <trkpt lat="45.22777" lon="5.99306">
        <ele>1273.138672</ele>
        <time>2013-03-09T07:07:08Z</time>
      </trkpt>
      <trkpt lat="45.2277" lon="5.99314">
        <ele>1275.35022</ele>
        <time>2013-03-09T07:07:15Z</time>
      </trkpt>
      <trkpt lat="45.22764" lon="5.99321">
        <ele>1277.605469</ele>
        <time>2013-03-09T07:07:22Z</time>
      </trkpt>
      <trkpt lat="45.22757" lon="5.99329">
        <ele>1279.993408</ele>
        <time>2013-03-09T07:07:30Z</time>
      </trkpt>
      <trkpt lat="45.2275" lon="5.99336">
        <ele>1282.121216</ele>
        <time>2013-03-09T07:07:37Z</time>
      </trkpt>
      <trkpt lat="45.2275" lon="5.99338">
        <ele>1282.535156</ele>
        <time>2013-03-09T07:07:38Z</time>
      </trkpt>
      <trkpt lat="45.22738" lon="5.99353">
        <ele>1286.730469</ele>
        <time>2013-03-09T07:07:51Z</time>
      </trkpt>
      <trkpt lat="45.22731" lon="5.99361">
        <ele>1288.557251</ele>
        <time>2013-03-09T07:07:58Z</time>
      </trkpt>
      <trkpt lat="45.22724" lon="5.99369">
        <ele>1290.34082</ele>
        <time>2013-03-09T07:08:06Z</time>
      </trkpt>
      <trkpt lat="45.22717" lon="5.99377">
        <ele>1291.642334</ele>
        <time>2013-03-09T07:08:14Z</time>
      </trkpt>
      <trkpt lat="45.2271" lon="5.99383">
        <ele>1292.043945</ele>
        <time>2013-03-09T07:08:21Z</time>
      </trkpt>
      <trkpt lat="45.22703" lon="5.99389">
        <ele>1293.144409</ele>
        <time>2013-03-09T07:08:28Z</time>
      </trkpt>
      <trkpt lat="45.22695" lon="5.99394">
        <ele>1294.180786</ele>
        <time>2013-03-09T07:08:35Z</time>
      </trkpt>
      <trkpt lat="45.22688" lon="5.99402">
        <ele>1295.714722</ele>
        <time>2013-03-09T07:08:42Z</time>
      </trkpt>
      <trkpt lat="45.22687" lon="5.99403">
        <ele>1296.025024</ele>
        <time>2013-03-09T07:08:43Z</time>
      </trkpt>
      <trkpt lat="45.22674" lon="5.99415">
        <ele>1297.925049</ele>
        <time>2013-03-09T07:08:56Z</time>
      </trkpt>
      <trkpt lat="45.22666" lon="5.99421">
        <ele>1298.270996</ele>
        <time>2013-03-09T07:09:04Z</time>
      </trkpt>
      <trkpt lat="45.22658" lon="5.9942">
        <ele>1296.538452</ele>
        <time>2013-03-09T07:10:02Z</time>
      </trkpt>
      <trkpt lat="45.22657" lon="5.99421">
        <ele>1296.716797</ele>
        <time>2013-03-09T07:10:03Z</time>
      </trkpt>
      <trkpt lat="45.22642" lon="5.99429">
        <ele>1299.133301</ele>
        <time>2013-03-09T07:10:16Z</time>
      </trkpt>
      <trkpt lat="45.22634" lon="5.99433">
        <ele>1300.419678</ele>
        <time>2013-03-09T07:10:25Z</time>
      </trkpt>
      <trkpt lat="45.22628" lon="5.9944">
        <ele>1302.403076</ele>
        <time>2013-03-09T07:10:33Z</time>
      </trkpt>
      <trkpt lat="45.22621" lon="5.99445">
        <ele>1303.808838</ele>
        <time>2013-03-09T07:10:38Z</time>
      </trkpt>
      <trkpt lat="45.22614" lon="5.99451">
        <ele>1305.324951</ele>
        <time>2013-03-09T07:10:44Z</time>
      </trkpt>
      <trkpt lat="45.22609" lon="5.9946">
        <ele>1307.091431</ele>
        <time>2013-03-09T07:10:51Z</time>
      </trkpt>
      <trkpt lat="45.22603" lon="5.99469">
        <ele>1308.483765</ele>
        <time>2013-03-09T07:10:58Z</time>
      </trkpt>
      <trkpt lat="45.22598" lon="5.9948">
        <ele>1310.003784</ele>
        <time>2013-03-09T07:11:06Z</time>
      </trkpt>
      <trkpt lat="45.22597" lon="5.99481">
        <ele>1310.184082</ele>
        <time>2013-03-09T07:11:07Z</time>
      </trkpt>
      <trkpt lat="45.22585" lon="5.99496">
        <ele>1311.165039</ele>
        <time>2013-03-09T07:11:26Z</time>
      </trkpt>
      <trkpt lat="45.22578" lon="5.99502">
        <ele>1310.982788</ele>
        <time>2013-03-09T07:11:33Z</time>
      </trkpt>
      <trkpt lat="45.22572" lon="5.9951">
        <ele>1310.885498</ele>
        <time>2013-03-09T07:11:41Z</time>
      </trkpt>
      <trkpt lat="45.22566" lon="5.99518">
        <ele>1311.128052</ele>
        <time>2013-03-09T07:11:48Z</time>
      </trkpt>
      <trkpt lat="45.22559" lon="5.99524">
        <ele>1309.99707</ele>
        <time>2013-03-09T07:11:54Z</time>
      </trkpt>
      <trkpt lat="45.22552" lon="5.99531">
        <ele>1309.34021</ele>
        <time>2013-03-09T07:12:02Z</time>
      </trkpt>
      <trkpt lat="45.22546" lon="5.99539">
        <ele>1308.833008</ele>
        <time>2013-03-09T07:12:10Z</time>
      </trkpt>
      <trkpt lat="45.22545" lon="5.99539">
        <ele>1308.581543</ele>
        <time>2013-03-09T07:12:11Z</time>
      </trkpt>
      <trkpt lat="45.22532" lon="5.99552">
        <ele>1306.701416</ele>
        <time>2013-03-09T07:12:26Z</time>
      </trkpt>
      <trkpt lat="45.22526" lon="5.9956">
        <ele>1306.440186</ele>
        <time>2013-03-09T07:12:35Z</time>
      </trkpt>
      <trkpt lat="45.22521" lon="5.99569">
        <ele>1306.075928</ele>
        <time>2013-03-09T07:12:43Z</time>
      </trkpt>
      <trkpt lat="45.22516" lon="5.99579">
        <ele>1306.143555</ele>
        <time>2013-03-09T07:12:50Z</time>
      </trkpt>
      <trkpt lat="45.22511" lon="5.99589">
        <ele>1306.615356</ele>
        <time>2013-03-09T07:12:58Z</time>
      </trkpt>
      <trkpt lat="45.22508" lon="5.996">
        <ele>1307.40271</ele>
        <time>2013-03-09T07:13:07Z</time>
      </trkpt>
      <trkpt lat="45.22508" lon="5.99612">
        <ele>1309.703491</ele>
        <time>2013-03-09T07:13:14Z</time>
      </trkpt>
      <trkpt lat="45.22508" lon="5.99614">
        <ele>1310.075928</ele>
        <time>2013-03-09T07:13:15Z</time>
      </trkpt>
      <trkpt lat="45.2251" lon="5.99635">
        <ele>1314.828735</ele>
        <time>2013-03-09T07:13:29Z</time>
      </trkpt>
      <trkpt lat="45.2251" lon="5.99647">
        <ele>1316.36499</ele>
        <time>2013-03-09T07:13:36Z</time>
      </trkpt>
      <trkpt lat="45.22513" lon="5.99657">
        <ele>1318.966309</ele>
        <time>2013-03-09T07:13:42Z</time>
      </trkpt>
      <trkpt lat="45.22515" lon="5.99668">
        <ele>1321.028809</ele>
        <time>2013-03-09T07:13:49Z</time>
      </trkpt>
      <trkpt lat="45.22513" lon="5.99679">
        <ele>1321.441284</ele>
        <time>2013-03-09T07:13:56Z</time>
      </trkpt>
      <trkpt lat="45.22514" lon="5.9969">
        <ele>1323.491211</ele>
        <time>2013-03-09T07:14:02Z</time>
      </trkpt>
      <trkpt lat="45.22514" lon="5.99701">
        <ele>1324.690308</ele>
        <time>2013-03-09T07:14:08Z</time>
      </trkpt>
      <trkpt lat="45.22513" lon="5.99713">
        <ele>1325.175781</ele>
        <time>2013-03-09T07:14:14Z</time>
      </trkpt>
      <trkpt lat="45.22508" lon="5.99723">
        <ele>1324.604004</ele>
        <time>2013-03-09T07:14:20Z</time>
      </trkpt>
      <trkpt lat="45.22508" lon="5.99725">
        <ele>1324.456543</ele>
        <time>2013-03-09T07:14:21Z</time>
      </trkpt>
      <trkpt lat="45.22501" lon="5.99744">
        <ele>1324.157715</ele>
        <time>2013-03-09T07:14:33Z</time>
      </trkpt>
      <trkpt lat="45.22499" lon="5.99755">
        <ele>1324.736816</ele>
        <time>2013-03-09T07:14:39Z</time>
      </trkpt>
      <trkpt lat="45.22498" lon="5.99767">
        <ele>1325.942749</ele>
        <time>2013-03-09T07:14:46Z</time>
      </trkpt>
      <trkpt lat="45.22494" lon="5.99777">
        <ele>1326.490112</ele>
        <time>2013-03-09T07:14:54Z</time>
      </trkpt>
      <trkpt lat="45.22491" lon="5.99787">
        <ele>1327.182739</ele>
        <time>2013-03-09T07:15:02Z</time>
      </trkpt>
      <trkpt lat="45.22488" lon="5.99799">
        <ele>1328.417847</ele>
        <time>2013-03-09T07:15:11Z</time>
      </trkpt>
      <trkpt lat="45.22482" lon="5.99807">
        <ele>1328.60376</ele>
        <time>2013-03-09T07:15:19Z</time>
      </trkpt>
      <trkpt lat="45.22477" lon="5.99816">
        <ele>1329.156128</ele>
        <time>2013-03-09T07:15:26Z</time>
      </trkpt>
      <trkpt lat="45.22477" lon="5.99818">
        <ele>1329.414917</ele>
        <time>2013-03-09T07:15:27Z</time>
      </trkpt>
      <trkpt lat="45.22466" lon="5.99831">
        <ele>1328.608398</ele>
        <time>2013-03-09T07:15:37Z</time>
      </trkpt>
      <trkpt lat="45.22459" lon="5.99838">
        <ele>1327.9552</ele>
        <time>2013-03-09T07:15:44Z</time>
      </trkpt>
      <trkpt lat="45.22454" lon="5.99847">
        <ele>1328.127075</ele>
        <time>2013-03-09T07:15:53Z</time>
      </trkpt>
      <trkpt lat="45.22447" lon="5.99855">
        <ele>1328.004883</ele>
        <time>2013-03-09T07:16:00Z</time>
      </trkpt>
      <trkpt lat="45.22441" lon="5.99864">
        <ele>1328.56665</ele>
        <time>2013-03-09T07:16:08Z</time>
      </trkpt>
      <trkpt lat="45.22443" lon="5.99876">
        <ele>1330.478271</ele>
        <time>2013-03-09T07:16:16Z</time>
      </trkpt>
      <trkpt lat="45.22447" lon="5.99887">
        <ele>1332.451904</ele>
        <time>2013-03-09T07:16:30Z</time>
      </trkpt>
      <trkpt lat="45.22448" lon="5.99887">
        <ele>1332.509521</ele>
        <time>2013-03-09T07:16:31Z</time>
      </trkpt>
      <trkpt lat="45.22463" lon="5.99891">
        <ele>1333.820557</ele>
        <time>2013-03-09T07:16:47Z</time>
      </trkpt>
      <trkpt lat="45.22471" lon="5.99887">
        <ele>1335.015625</ele>
        <time>2013-03-09T07:16:54Z</time>
      </trkpt>
      <trkpt lat="45.22478" lon="5.9988">
        <ele>1336.197632</ele>
        <time>2013-03-09T07:17:00Z</time>
      </trkpt>
      <trkpt lat="45.22485" lon="5.99872">
        <ele>1337.290161</ele>
        <time>2013-03-09T07:17:06Z</time>
      </trkpt>
      <trkpt lat="45.22491" lon="5.99864">
        <ele>1338.041748</ele>
        <time>2013-03-09T07:17:13Z</time>
      </trkpt>
      <trkpt lat="45.22497" lon="5.99855">
        <ele>1338.567017</ele>
        <time>2013-03-09T07:17:20Z</time>
      </trkpt>
      <trkpt lat="45.22502" lon="5.99847">
        <ele>1338.783691</ele>
        <time>2013-03-09T07:17:26Z</time>
      </trkpt>
      <trkpt lat="45.22508" lon="5.99838">
        <ele>1338.873047</ele>
        <time>2013-03-09T07:17:32Z</time>
      </trkpt>
      <trkpt lat="45.22508" lon="5.99836">
        <ele>1338.705078</ele>
        <time>2013-03-09T07:17:33Z</time>
      </trkpt>
      <trkpt lat="45.22513" lon="5.99815">
        <ele>1337.242432</ele>
        <time>2013-03-09T07:17:46Z</time>
      </trkpt>
      <trkpt lat="45.22514" lon="5.99803">
        <ele>1336.444824</ele>
        <time>2013-03-09T07:17:52Z</time>
      </trkpt>
      <trkpt lat="45.22517" lon="5.99793">
        <ele>1336.415405</ele>
        <time>2013-03-09T07:17:58Z</time>
      </trkpt>
      <trkpt lat="45.22517" lon="5.9978">
        <ele>1334.80603</ele>
        <time>2013-03-09T07:18:06Z</time>
      </trkpt>
      <trkpt lat="45.22526" lon="5.99783">
        <ele>1340.017944</ele>
        <time>2013-03-09T07:18:25Z</time>
      </trkpt>
      <trkpt lat="45.22525" lon="5.99795">
        <ele>1341.019409</ele>
        <time>2013-03-09T07:18:32Z</time>
      </trkpt>
      <trkpt lat="45.22523" lon="5.99806">
        <ele>1341.695923</ele>
        <time>2013-03-09T07:18:38Z</time>
      </trkpt>
      <trkpt lat="45.22522" lon="5.99807">
        <ele>1341.441528</ele>
        <time>2013-03-09T07:18:39Z</time>
      </trkpt>
      <trkpt lat="45.22524" lon="5.99829">
        <ele>1345.98999</ele>
        <time>2013-03-09T07:18:54Z</time>
      </trkpt>
      <trkpt lat="45.22526" lon="5.99841">
        <ele>1348.675049</ele>
        <time>2013-03-09T07:19:00Z</time>
      </trkpt>
      <trkpt lat="45.22526" lon="5.99853">
        <ele>1350.555054</ele>
        <time>2013-03-09T07:19:07Z</time>
      </trkpt>
      <trkpt lat="45.22524" lon="5.99864">
        <ele>1350.690063</ele>
        <time>2013-03-09T07:19:17Z</time>
      </trkpt>
      <trkpt lat="45.22518" lon="5.99874">
        <ele>1348.744995</ele>
        <time>2013-03-09T07:19:25Z</time>
      </trkpt>
      <trkpt lat="45.22516" lon="5.99886">
        <ele>1349.275024</ele>
        <time>2013-03-09T07:19:34Z</time>
      </trkpt>
      <trkpt lat="45.22512" lon="5.99897">
        <ele>1349.154663</ele>
        <time>2013-03-09T07:19:43Z</time>
      </trkpt>
      <trkpt lat="45.22511" lon="5.99898">
        <ele>1349.114014</ele>
        <time>2013-03-09T07:19:44Z</time>
      </trkpt>
      <trkpt lat="45.22508" lon="5.99919">
        <ele>1351.112793</ele>
        <time>2013-03-09T07:20:02Z</time>
      </trkpt>
      <trkpt lat="45.22507" lon="5.99931">
        <ele>1353.185669</ele>
        <time>2013-03-09T07:20:11Z</time>
      </trkpt>
      <trkpt lat="45.22506" lon="5.99942">
        <ele>1355.010254</ele>
        <time>2013-03-09T07:20:19Z</time>
      </trkpt>
      <trkpt lat="45.22503" lon="5.99953">
        <ele>1356.074951</ele>
        <time>2013-03-09T07:20:28Z</time>
      </trkpt>
      <trkpt lat="45.22504" lon="5.99965">
        <ele>1359.597534</ele>
        <time>2013-03-09T07:20:35Z</time>
      </trkpt>
      <trkpt lat="45.22502" lon="5.99977">
        <ele>1362.209961</ele>
        <time>2013-03-09T07:20:43Z</time>
      </trkpt>
      <trkpt lat="45.225" lon="5.99989">
        <ele>1365.217529</ele>
        <time>2013-03-09T07:20:51Z</time>
      </trkpt>
      <trkpt lat="45.225" lon="5.99991">
        <ele>1365.586304</ele>
        <time>2013-03-09T07:20:52Z</time>
      </trkpt>
      <trkpt lat="45.22494" lon="6.00011">
        <ele>1369.388794</ele>
        <time>2013-03-09T07:21:06Z</time>
      </trkpt>
      <trkpt lat="45.2249" lon="6.00022">
        <ele>1371.777466</ele>
        <time>2013-03-09T07:21:13Z</time>
      </trkpt>
      <trkpt lat="45.22485" lon="6.00032">
        <ele>1373.40625</ele>
        <time>2013-03-09T07:21:21Z</time>
      </trkpt>
      <trkpt lat="45.2248" lon="6.00041">
        <ele>1374.502441</ele>
        <time>2013-03-09T07:21:29Z</time>
      </trkpt>
      <trkpt lat="45.22474" lon="6.00048">
        <ele>1375.057495</ele>
        <time>2013-03-09T07:21:37Z</time>
      </trkpt>
      <trkpt lat="45.22468" lon="6.00056">
        <ele>1375.742554</ele>
        <time>2013-03-09T07:21:45Z</time>
      </trkpt>
      <trkpt lat="45.22463" lon="6.00065">
        <ele>1376.95874</ele>
        <time>2013-03-09T07:21:53Z</time>
      </trkpt>
      <trkpt lat="45.22462" lon="6.00067">
        <ele>1377.246216</ele>
        <time>2013-03-09T07:21:54Z</time>
      </trkpt>
      <trkpt lat="45.22451" lon="6.00083">
        <ele>1379.717651</ele>
        <time>2013-03-09T07:22:09Z</time>
      </trkpt>
      <trkpt lat="45.22446" lon="6.00092">
        <ele>1381.203003</ele>
        <time>2013-03-09T07:22:18Z</time>
      </trkpt>
      <trkpt lat="45.2244" lon="6.00102">
        <ele>1382.643555</ele>
        <time>2013-03-09T07:22:27Z</time>
      </trkpt>
      <trkpt lat="45.22434" lon="6.00109">
        <ele>1383.31897</ele>
        <time>2013-03-09T07:22:36Z</time>
      </trkpt>
      <trkpt lat="45.22426" lon="6.00115">
        <ele>1383.484253</ele>
        <time>2013-03-09T07:22:45Z</time>
      </trkpt>
      <trkpt lat="45.22418" lon="6.00121">
        <ele>1383.288452</ele>
        <time>2013-03-09T07:22:54Z</time>
      </trkpt>
      <trkpt lat="45.22417" lon="6.00121">
        <ele>1383.210327</ele>
        <time>2013-03-09T07:22:55Z</time>
      </trkpt>
      <trkpt lat="45.22403" lon="6.00132">
        <ele>1384.02124</ele>
        <time>2013-03-09T07:23:10Z</time>
      </trkpt>
      <trkpt lat="45.22396" lon="6.00137">
        <ele>1384.70166</ele>
        <time>2013-03-09T07:23:18Z</time>
      </trkpt>
      <trkpt lat="45.22388" lon="6.00142">
        <ele>1385.40564</ele>
        <time>2013-03-09T07:23:26Z</time>
      </trkpt>
      <trkpt lat="45.2238" lon="6.00147">
        <ele>1385.956299</ele>
        <time>2013-03-09T07:23:35Z</time>
      </trkpt>
      <trkpt lat="45.22372" lon="6.0015">
        <ele>1385.679932</ele>
        <time>2013-03-09T07:23:44Z</time>
      </trkpt>
      <trkpt lat="45.22364" lon="6.00155">
        <ele>1386.353271</ele>
        <time>2013-03-09T07:23:54Z</time>
      </trkpt>
      <trkpt lat="45.22357" lon="6.00162">
        <ele>1388.133057</ele>
        <time>2013-03-09T07:24:03Z</time>
      </trkpt>
      <trkpt lat="45.22356" lon="6.00162">
        <ele>1388.333618</ele>
        <time>2013-03-09T07:24:04Z</time>
      </trkpt>
      <trkpt lat="45.22345" lon="6.00178">
        <ele>1391.823975</ele>
        <time>2013-03-09T07:24:18Z</time>
      </trkpt>
      <trkpt lat="45.22339" lon="6.00187">
        <ele>1393.476929</ele>
        <time>2013-03-09T07:24:25Z</time>
      </trkpt>
      <trkpt lat="45.22334" lon="6.00196">
        <ele>1395.155029</ele>
        <time>2013-03-09T07:24:32Z</time>
      </trkpt>
      <trkpt lat="45.22327" lon="6.00204">
        <ele>1396.331543</ele>
        <time>2013-03-09T07:24:40Z</time>
      </trkpt>
      <trkpt lat="45.2232" lon="6.00207">
        <ele>1396.538696</ele>
        <time>2013-03-09T07:24:47Z</time>
      </trkpt>
      <trkpt lat="45.22327" lon="6.00214">
        <ele>1398.477417</ele>
        <time>2013-03-09T07:25:13Z</time>
      </trkpt>
      <trkpt lat="45.22328" lon="6.00214">
        <ele>1398.471436</ele>
        <time>2013-03-09T07:25:14Z</time>
      </trkpt>
      <trkpt lat="45.22336" lon="6.00193">
        <ele>1394.688477</ele>
        <time>2013-03-09T07:25:50Z</time>
      </trkpt>
      <trkpt lat="45.22343" lon="6.00201">
        <ele>1396.842285</ele>
        <time>2013-03-09T07:26:50Z</time>
      </trkpt>
      <trkpt lat="45.22343" lon="6.00204">
        <ele>1397.354614</ele>
        <time>2013-03-09T07:26:51Z</time>
      </trkpt>
      <trkpt lat="45.2234" lon="6.00204">
        <ele>1397.257202</ele>
        <time>2013-03-09T07:27:26Z</time>
      </trkpt>
      <trkpt lat="45.22349" lon="6.002">
        <ele>1396.876709</ele>
        <time>2013-03-09T07:28:11Z</time>
      </trkpt>
      <trkpt lat="45.2235" lon="6.002">
        <ele>1396.959961</ele>
        <time>2013-03-09T07:28:12Z</time>
      </trkpt>
      <trkpt lat="45.22353" lon="6.0022">
        <ele>1401.769653</ele>
        <time>2013-03-09T07:28:55Z</time>
      </trkpt>
      <trkpt lat="45.22356" lon="6.00231">
        <ele>1404.814575</ele>
        <time>2013-03-09T07:29:17Z</time>
      </trkpt>
      <trkpt lat="45.22356" lon="6.00232">
        <ele>1405.071533</ele>
        <time>2013-03-09T07:29:18Z</time>
      </trkpt>
      <trkpt lat="45.22365" lon="6.00249">
        <ele>1410.702393</ele>
        <time>2013-03-09T07:29:47Z</time>
      </trkpt>
      <trkpt lat="45.2237" lon="6.00259">
        <ele>1414.276978</ele>
        <time>2013-03-09T07:30:07Z</time>
      </trkpt>
      <trkpt lat="45.22377" lon="6.00266">
        <ele>1417.084839</ele>
        <time>2013-03-09T07:30:17Z</time>
      </trkpt>
      <trkpt lat="45.22384" lon="6.00273">
        <ele>1420.17749</ele>
        <time>2013-03-09T07:30:30Z</time>
      </trkpt>
      <trkpt lat="45.22384" lon="6.00274">
        <ele>1420.424316</ele>
        <time>2013-03-09T07:30:31Z</time>
      </trkpt>
      <trkpt lat="45.22383" lon="6.00296">
        <ele>1424.786011</ele>
        <time>2013-03-09T07:30:48Z</time>
      </trkpt>
      <trkpt lat="45.22383" lon="6.00307">
        <ele>1427.144409</ele>
        <time>2013-03-09T07:30:56Z</time>
      </trkpt>
      <trkpt lat="45.22386" lon="6.00319">
        <ele>1430.515869</ele>
        <time>2013-03-09T07:31:06Z</time>
      </trkpt>
      <trkpt lat="45.22389" lon="6.00331">
        <ele>1433.695679</ele>
        <time>2013-03-09T07:31:16Z</time>
      </trkpt>
      <trkpt lat="45.22393" lon="6.00342">
        <ele>1437.083374</ele>
        <time>2013-03-09T07:31:26Z</time>
      </trkpt>
      <trkpt lat="45.22392" lon="6.00354">
        <ele>1439.348999</ele>
        <time>2013-03-09T07:31:35Z</time>
      </trkpt>
      <trkpt lat="45.22392" lon="6.00355">
        <ele>1439.646729</ele>
        <time>2013-03-09T07:31:36Z</time>
      </trkpt>
      <trkpt lat="45.2238" lon="6.00359">
        <ele>1437.189209</ele>
        <time>2013-03-09T07:31:59Z</time>
      </trkpt>
      <trkpt lat="45.22372" lon="6.00363">
        <ele>1435.572388</ele>
        <time>2013-03-09T07:32:14Z</time>
      </trkpt>
      <trkpt lat="45.22373" lon="6.00376">
        <ele>1438.303345</ele>
        <time>2013-03-09T07:32:22Z</time>
      </trkpt>
      <trkpt lat="45.22375" lon="6.00386">
        <ele>1441.116577</ele>
        <time>2013-03-09T07:32:28Z</time>
      </trkpt>
      <trkpt lat="45.22376" lon="6.00398">
        <ele>1444.424927</ele>
        <time>2013-03-09T07:32:35Z</time>
      </trkpt>
      <trkpt lat="45.22374" lon="6.0041">
        <ele>1446.880005</ele>
        <time>2013-03-09T07:32:42Z</time>
      </trkpt>
      <trkpt lat="45.22373" lon="6.00412">
        <ele>1447.04248</ele>
        <time>2013-03-09T07:32:43Z</time>
      </trkpt>
      <trkpt lat="45.2236" lon="6.00421">
        <ele>1445.324951</ele>
        <time>2013-03-09T07:32:54Z</time>
      </trkpt>
      <trkpt lat="45.22353" lon="6.00419">
        <ele>1443.38501</ele>
        <time>2013-03-09T07:32:58Z</time>
      </trkpt>
      <trkpt lat="45.22344" lon="6.00419">
        <ele>1442.689941</ele>
        <time>2013-03-09T07:33:05Z</time>
      </trkpt>
      <trkpt lat="45.22335" lon="6.00421">
        <ele>1442.392456</ele>
        <time>2013-03-09T07:33:14Z</time>
      </trkpt>
      <trkpt lat="45.22328" lon="6.00428">
        <ele>1443.339966</ele>
        <time>2013-03-09T07:33:24Z</time>
      </trkpt>
      <trkpt lat="45.2232" lon="6.00432">
        <ele>1443.60498</ele>
        <time>2013-03-09T07:33:32Z</time>
      </trkpt>
      <trkpt lat="45.22312" lon="6.00436">
        <ele>1443.777466</ele>
        <time>2013-03-09T07:33:40Z</time>
      </trkpt>
      <trkpt lat="45.22304" lon="6.0044">
        <ele>1445.969116</ele>
        <time>2013-03-09T07:33:49Z</time>
      </trkpt>
      <trkpt lat="45.22303" lon="6.00441">
        <ele>1446.227417</ele>
        <time>2013-03-09T07:33:50Z</time>
      </trkpt>
      <trkpt lat="45.22286" lon="6.00441">
        <ele>1448.810547</ele>
        <time>2013-03-09T07:34:12Z</time>
      </trkpt>
      <trkpt lat="45.22278" lon="6.00439">
        <ele>1449.553467</ele>
        <time>2013-03-09T07:35:12Z</time>
      </trkpt>
      <trkpt lat="45.22277" lon="6.00439">
        <ele>1449.53125</ele>
        <time>2013-03-09T07:35:13Z</time>
      </trkpt>
      <trkpt lat="45.22264" lon="6.00423">
        <ele>1447.432495</ele>
        <time>2013-03-09T07:35:49Z</time>
      </trkpt>
      <trkpt lat="45.22256" lon="6.00421">
        <ele>1450.214966</ele>
        <time>2013-03-09T07:36:01Z</time>
      </trkpt>
      <trkpt lat="45.22248" lon="6.00428">
        <ele>1454.772461</ele>
        <time>2013-03-09T07:36:14Z</time>
      </trkpt>
      <trkpt lat="45.22248" lon="6.00428">
        <ele>1455.180054</ele>
        <time>2013-03-09T07:36:15Z</time>
      </trkpt>
      <trkpt lat="45.22248" lon="6.00452">
        <ele>1461.345215</ele>
        <time>2013-03-09T07:36:31Z</time>
      </trkpt>
      <trkpt lat="45.2224" lon="6.00456">
        <ele>1465.147461</ele>
        <time>2013-03-09T07:36:50Z</time>
      </trkpt>
      <trkpt lat="45.22233" lon="6.00464">
        <ele>1469.086182</ele>
        <time>2013-03-09T07:37:23Z</time>
      </trkpt>
      <trkpt lat="45.22233" lon="6.00465">
        <ele>1469.268555</ele>
        <time>2013-03-09T07:37:24Z</time>
      </trkpt>
      <trkpt lat="45.22229" lon="6.00488">
        <ele>1475.349365</ele>
        <time>2013-03-09T07:37:45Z</time>
      </trkpt>
      <trkpt lat="45.2222" lon="6.00488">
        <ele>1477.360718</ele>
        <time>2013-03-09T07:37:58Z</time>
      </trkpt>
      <trkpt lat="45.22212" lon="6.00488">
        <ele>1481.116089</ele>
        <time>2013-03-09T07:38:14Z</time>
      </trkpt>
      <trkpt lat="45.22207" lon="6.00498">
        <ele>1484.927734</ele>
        <time>2013-03-09T07:38:29Z</time>
      </trkpt>
      <trkpt lat="45.22206" lon="6.00499">
        <ele>1485.16687</ele>
        <time>2013-03-09T07:38:30Z</time>
      </trkpt>
      <trkpt lat="45.22199" lon="6.0052">
        <ele>1492.314697</ele>
        <time>2013-03-09T07:39:06Z</time>
      </trkpt>
      <trkpt lat="45.22198" lon="6.00532">
        <ele>1494.915649</ele>
        <time>2013-03-09T07:39:19Z</time>
      </trkpt>
      <trkpt lat="45.222" lon="6.00545">
        <ele>1496.817017</ele>
        <time>2013-03-09T07:39:30Z</time>
      </trkpt>
      <trkpt lat="45.222" lon="6.00545">
        <ele>1496.945557</ele>
        <time>2013-03-09T07:39:31Z</time>
      </trkpt>
      <trkpt lat="45.22198" lon="6.00569">
        <ele>1502.11377</ele>
        <time>2013-03-09T07:39:54Z</time>
      </trkpt>
      <trkpt lat="45.22194" lon="6.0058">
        <ele>1505.026245</ele>
        <time>2013-03-09T07:40:07Z</time>
      </trkpt>
      <trkpt lat="45.22188" lon="6.00589">
        <ele>1508.04248</ele>
        <time>2013-03-09T07:40:18Z</time>
      </trkpt>
      <trkpt lat="45.2219" lon="6.006">
        <ele>1509.515015</ele>
        <time>2013-03-09T07:40:28Z</time>
      </trkpt>
      <trkpt lat="45.2219" lon="6.00612">
        <ele>1511.337524</ele>
        <time>2013-03-09T07:40:37Z</time>
      </trkpt>
      <trkpt lat="45.22191" lon="6.00614">
        <ele>1511.369995</ele>
        <time>2013-03-09T07:40:38Z</time>
      </trkpt>
      <trkpt lat="45.22197" lon="6.00634">
        <ele>1513.040039</ele>
        <time>2013-03-09T07:40:49Z</time>
      </trkpt>
      <trkpt lat="45.22198" lon="6.00646">
        <ele>1514.349609</ele>
        <time>2013-03-09T07:40:56Z</time>
      </trkpt>
      <trkpt lat="45.22195" lon="6.00657">
        <ele>1516.965454</ele>
        <time>2013-03-09T07:41:08Z</time>
      </trkpt>
      <trkpt lat="45.22193" lon="6.00669">
        <ele>1519.277344</ele>
        <time>2013-03-09T07:41:22Z</time>
      </trkpt>
      <trkpt lat="45.22191" lon="6.00681">
        <ele>1521.712524</ele>
        <time>2013-03-09T07:41:35Z</time>
      </trkpt>
      <trkpt lat="45.22189" lon="6.00692">
        <ele>1523.763916</ele>
        <time>2013-03-09T07:41:44Z</time>
      </trkpt>
      <trkpt lat="45.2219" lon="6.00694">
        <ele>1523.999023</ele>
        <time>2013-03-09T07:41:45Z</time>
      </trkpt>
      <trkpt lat="45.2219" lon="6.00716">
        <ele>1530.356689</ele>
        <time>2013-03-09T07:42:07Z</time>
      </trkpt>
      <trkpt lat="45.22191" lon="6.00728">
        <ele>1533.184814</ele>
        <time>2013-03-09T07:42:15Z</time>
      </trkpt>
      <trkpt lat="45.22194" lon="6.00739">
        <ele>1535.697388</ele>
        <time>2013-03-09T07:42:27Z</time>
      </trkpt>
      <trkpt lat="45.22195" lon="6.00751">
        <ele>1538.731323</ele>
        <time>2013-03-09T07:42:35Z</time>
      </trkpt>
      <trkpt lat="45.22196" lon="6.00763">
        <ele>1541.573975</ele>
        <time>2013-03-09T07:42:43Z</time>
      </trkpt>
      <trkpt lat="45.22199" lon="6.00776">
        <ele>1543.848145</ele>
        <time>2013-03-09T07:42:54Z</time>
      </trkpt>
      <trkpt lat="45.22199" lon="6.00777">
        <ele>1544.056274</ele>
        <time>2013-03-09T07:42:55Z</time>
      </trkpt>
      <trkpt lat="45.22205" lon="6.00798">
        <ele>1547.196411</ele>
        <time>2013-03-09T07:43:15Z</time>
      </trkpt>
      <trkpt lat="45.2221" lon="6.00809">
        <ele>1548.832886</ele>
        <time>2013-03-09T07:43:25Z</time>
      </trkpt>
      <trkpt lat="45.22216" lon="6.00818">
        <ele>1550.824707</ele>
        <time>2013-03-09T07:43:39Z</time>
      </trkpt>
      <trkpt lat="45.22221" lon="6.00827">
        <ele>1552.233398</ele>
        <time>2013-03-09T07:43:51Z</time>
      </trkpt>
      <trkpt lat="45.22227" lon="6.00835">
        <ele>1553.048096</ele>
        <time>2013-03-09T07:43:59Z</time>
      </trkpt>
      <trkpt lat="45.22228" lon="6.00836">
        <ele>1553.123047</ele>
        <time>2013-03-09T07:44:00Z</time>
      </trkpt>
      <trkpt lat="45.22235" lon="6.00857">
        <ele>1555.229248</ele>
        <time>2013-03-09T07:44:18Z</time>
      </trkpt>
      <trkpt lat="45.22239" lon="6.00868">
        <ele>1556.164917</ele>
        <time>2013-03-09T07:44:30Z</time>
      </trkpt>
      <trkpt lat="45.22244" lon="6.00879">
        <ele>1556.454834</ele>
        <time>2013-03-09T07:44:45Z</time>
      </trkpt>
      <trkpt lat="45.22244" lon="6.0089">
        <ele>1557.698242</ele>
        <time>2013-03-09T07:44:53Z</time>
      </trkpt>
      <trkpt lat="45.22248" lon="6.00901">
        <ele>1558.859741</ele>
        <time>2013-03-09T07:45:02Z</time>
      </trkpt>
      <trkpt lat="45.22248" lon="6.00902">
        <ele>1558.935059</ele>
        <time>2013-03-09T07:45:03Z</time>
      </trkpt>
      <trkpt lat="45.22257" lon="6.00923">
        <ele>1565.515869</ele>
        <time>2013-03-09T07:45:31Z</time>
      </trkpt>
      <trkpt lat="45.2225" lon="6.00931">
        <ele>1564.534058</ele>
        <time>2013-03-09T07:45:43Z</time>
      </trkpt>
      <trkpt lat="45.22243" lon="6.00937">
        <ele>1567.258423</ele>
        <time>2013-03-09T07:45:57Z</time>
      </trkpt>
      <trkpt lat="45.22234" lon="6.00935">
        <ele>1568.696899</ele>
        <time>2013-03-09T07:46:08Z</time>
      </trkpt>
      <trkpt lat="45.22234" lon="6.00935">
        <ele>1568.892822</ele>
        <time>2013-03-09T07:46:09Z</time>
      </trkpt>
      <trkpt lat="45.22236" lon="6.00958">
        <ele>1572.876709</ele>
        <time>2013-03-09T07:46:36Z</time>
      </trkpt>
      <trkpt lat="45.22238" lon="6.0097">
        <ele>1575.110474</ele>
        <time>2013-03-09T07:46:45Z</time>
      </trkpt>
      <trkpt lat="45.22239" lon="6.00982">
        <ele>1577.511353</ele>
        <time>2013-03-09T07:46:54Z</time>
      </trkpt>
      <trkpt lat="45.22241" lon="6.00994">
        <ele>1579.955811</ele>
        <time>2013-03-09T07:47:11Z</time>
      </trkpt>
      <trkpt lat="45.2224" lon="6.00994">
        <ele>1580.136963</ele>
        <time>2013-03-09T07:47:12Z</time>
      </trkpt>
      <trkpt lat="45.22241" lon="6.01018">
        <ele>1585.460693</ele>
        <time>2013-03-09T07:47:30Z</time>
      </trkpt>
      <trkpt lat="45.2224" lon="6.0103">
        <ele>1587.612549</ele>
        <time>2013-03-09T07:47:39Z</time>
      </trkpt>
      <trkpt lat="45.22236" lon="6.01042">
        <ele>1589.803711</ele>
        <time>2013-03-09T07:47:52Z</time>
      </trkpt>
      <trkpt lat="45.22237" lon="6.01053">
        <ele>1591.725586</ele>
        <time>2013-03-09T07:48:01Z</time>
      </trkpt>
      <trkpt lat="45.2224" lon="6.01064">
        <ele>1593.393066</ele>
        <time>2013-03-09T07:48:09Z</time>
      </trkpt>
      <trkpt lat="45.2224" lon="6.01076">
        <ele>1595.440796</ele>
        <time>2013-03-09T07:48:16Z</time>
      </trkpt>
      <trkpt lat="45.2224" lon="6.01078">
        <ele>1595.72998</ele>
        <time>2013-03-09T07:48:17Z</time>
      </trkpt>
      <trkpt lat="45.22242" lon="6.011">
        <ele>1599.641113</ele>
        <time>2013-03-09T07:48:31Z</time>
      </trkpt>
      <trkpt lat="45.22244" lon="6.01112">
        <ele>1601.710693</ele>
        <time>2013-03-09T07:48:43Z</time>
      </trkpt>
      <trkpt lat="45.22243" lon="6.01124">
        <ele>1604.034912</ele>
        <time>2013-03-09T07:48:56Z</time>
      </trkpt>
      <trkpt lat="45.22243" lon="6.01136">
        <ele>1606.273438</ele>
        <time>2013-03-09T07:49:09Z</time>
      </trkpt>
      <trkpt lat="45.22241" lon="6.01148">
        <ele>1608.36499</ele>
        <time>2013-03-09T07:49:17Z</time>
      </trkpt>
      <trkpt lat="45.2224" lon="6.01149">
        <ele>1608.579956</ele>
        <time>2013-03-09T07:49:18Z</time>
      </trkpt>
      <trkpt lat="45.22243" lon="6.01172">
        <ele>1613.391479</ele>
        <time>2013-03-09T07:49:38Z</time>
      </trkpt>
      <trkpt lat="45.22245" lon="6.01183">
        <ele>1615.947876</ele>
        <time>2013-03-09T07:49:48Z</time>
      </trkpt>
      <trkpt lat="45.22246" lon="6.01194">
        <ele>1618.416748</ele>
        <time>2013-03-09T07:49:55Z</time>
      </trkpt>
      <trkpt lat="45.22248" lon="6.01206">
        <ele>1621.219604</ele>
        <time>2013-03-09T07:50:02Z</time>
      </trkpt>
      <trkpt lat="45.22248" lon="6.01218">
        <ele>1623.405762</ele>
        <time>2013-03-09T07:50:13Z</time>
      </trkpt>
      <trkpt lat="45.22245" lon="6.01229">
        <ele>1624.736938</ele>
        <time>2013-03-09T07:50:31Z</time>
      </trkpt>
      <trkpt lat="45.22245" lon="6.0123">
        <ele>1624.918579</ele>
        <time>2013-03-09T07:50:32Z</time>
      </trkpt>
      <trkpt lat="45.22242" lon="6.01254">
        <ele>1628.55896</ele>
        <time>2013-03-09T07:51:07Z</time>
      </trkpt>
      <trkpt lat="45.22239" lon="6.01265">
        <ele>1629.72937</ele>
        <time>2013-03-09T07:51:22Z</time>
      </trkpt>
      <trkpt lat="45.22234" lon="6.01274">
        <ele>1631.387207</ele>
        <time>2013-03-09T07:51:37Z</time>
      </trkpt>
      <trkpt lat="45.22233" lon="6.01275">
        <ele>1631.620239</ele>
        <time>2013-03-09T07:51:38Z</time>
      </trkpt>
      <trkpt lat="45.22237" lon="6.01297">
        <ele>1637.256348</ele>
        <time>2013-03-09T07:51:59Z</time>
      </trkpt>
      <trkpt lat="45.22243" lon="6.01306">
        <ele>1640.933594</ele>
        <time>2013-03-09T07:52:12Z</time>
      </trkpt>
      <trkpt lat="45.22244" lon="6.01318">
        <ele>1644.279785</ele>
        <time>2013-03-09T07:52:26Z</time>
      </trkpt>
      <trkpt lat="45.22242" lon="6.0133">
        <ele>1646.835083</ele>
        <time>2013-03-09T07:52:35Z</time>
      </trkpt>
      <trkpt lat="45.22239" lon="6.01341">
        <ele>1649.100586</ele>
        <time>2013-03-09T07:52:46Z</time>
      </trkpt>
      <trkpt lat="45.22239" lon="6.01342">
        <ele>1649.271973</ele>
        <time>2013-03-09T07:52:47Z</time>
      </trkpt>
      <trkpt lat="45.22241" lon="6.0136">
        <ele>1654.461426</ele>
        <time>2013-03-09T07:53:33Z</time>
      </trkpt>
      <trkpt lat="45.22248" lon="6.01365">
        <ele>1657.012329</ele>
        <time>2013-03-09T07:53:44Z</time>
      </trkpt>
      <trkpt lat="45.22254" lon="6.01373">
        <ele>1659.965698</ele>
        <time>2013-03-09T07:53:56Z</time>
      </trkpt>
      <trkpt lat="45.22255" lon="6.01374">
        <ele>1660.278076</ele>
        <time>2013-03-09T07:53:57Z</time>
      </trkpt>
      <trkpt lat="45.22243" lon="6.01391">
        <ele>1662.716309</ele>
        <time>2013-03-09T07:54:28Z</time>
      </trkpt>
      <trkpt lat="45.22237" lon="6.014">
        <ele>1664.27832</ele>
        <time>2013-03-09T07:54:39Z</time>
      </trkpt>
      <trkpt lat="45.22233" lon="6.01411">
        <ele>1665.22583</ele>
        <time>2013-03-09T07:54:50Z</time>
      </trkpt>
      <trkpt lat="45.22232" lon="6.01423">
        <ele>1666.394653</ele>
        <time>2013-03-09T07:54:59Z</time>
      </trkpt>
      <trkpt lat="45.22232" lon="6.01425">
        <ele>1666.488525</ele>
        <time>2013-03-09T07:55:00Z</time>
      </trkpt>
      <trkpt lat="45.22233" lon="6.01448">
        <ele>1669.429077</ele>
        <time>2013-03-09T07:55:25Z</time>
      </trkpt>
      <trkpt lat="45.2223" lon="6.01436">
        <ele>1667.439697</ele>
        <time>2013-03-09T07:58:08Z</time>
      </trkpt>
      <trkpt lat="45.22229" lon="6.01436">
        <ele>1667.295288</ele>
        <time>2013-03-09T07:58:09Z</time>
      </trkpt>
      <trkpt lat="45.22236" lon="6.01459">
        <ele>1671.883911</ele>
        <time>2013-03-09T07:59:02Z</time>
      </trkpt>
      <trkpt lat="45.22239" lon="6.0147">
        <ele>1673.19873</ele>
        <time>2013-03-09T07:59:10Z</time>
      </trkpt>
      <trkpt lat="45.2224" lon="6.01471">
        <ele>1673.263794</ele>
        <time>2013-03-09T07:59:11Z</time>
      </trkpt>
      <trkpt lat="45.22243" lon="6.01494">
        <ele>1673.940308</ele>
        <time>2013-03-09T07:59:26Z</time>
      </trkpt>
      <trkpt lat="45.22245" lon="6.01506">
        <ele>1674.095215</ele>
        <time>2013-03-09T07:59:35Z</time>
      </trkpt>
      <trkpt lat="45.22246" lon="6.01517">
        <ele>1674.367554</ele>
        <time>2013-03-09T07:59:42Z</time>
      </trkpt>
      <trkpt lat="45.22247" lon="6.01529">
        <ele>1674.417969</ele>
        <time>2013-03-09T07:59:50Z</time>
      </trkpt>
      <trkpt lat="45.22249" lon="6.01541">
        <ele>1674.001709</ele>
        <time>2013-03-09T07:59:57Z</time>
      </trkpt>
      <trkpt lat="45.22253" lon="6.01552">
        <ele>1674.935303</ele>
        <time>2013-03-09T08:00:06Z</time>
      </trkpt>
      <trkpt lat="45.22254" lon="6.01563">
        <ele>1674.539185</ele>
        <time>2013-03-09T08:00:15Z</time>
      </trkpt>
      <trkpt lat="45.22254" lon="6.01565">
        <ele>1674.480957</ele>
        <time>2013-03-09T08:00:16Z</time>
      </trkpt>
      <trkpt lat="45.22258" lon="6.01587">
        <ele>1674.226196</ele>
        <time>2013-03-09T08:00:27Z</time>
      </trkpt>
      <trkpt lat="45.2226" lon="6.01598">
        <ele>1674.699829</ele>
        <time>2013-03-09T08:00:33Z</time>
      </trkpt>
      <trkpt lat="45.22262" lon="6.0161">
        <ele>1674.863281</ele>
        <time>2013-03-09T08:00:41Z</time>
      </trkpt>
      <trkpt lat="45.22264" lon="6.0162">
        <ele>1675.187134</ele>
        <time>2013-03-09T08:00:48Z</time>
      </trkpt>
      <trkpt lat="45.22266" lon="6.01632">
        <ele>1675.695557</ele>
        <time>2013-03-09T08:00:54Z</time>
      </trkpt>
      <trkpt lat="45.22268" lon="6.01645">
        <ele>1675.653687</ele>
        <time>2013-03-09T08:01:00Z</time>
      </trkpt>
      <trkpt lat="45.22267" lon="6.01656">
        <ele>1674.425415</ele>
        <time>2013-03-09T08:01:07Z</time>
      </trkpt>
      <trkpt lat="45.22266" lon="6.01668">
        <ele>1674.081299</ele>
        <time>2013-03-09T08:01:14Z</time>
      </trkpt>
      <trkpt lat="45.22266" lon="6.01679">
        <ele>1673.910278</ele>
        <time>2013-03-09T08:01:20Z</time>
      </trkpt>
      <trkpt lat="45.22266" lon="6.01681">
        <ele>1673.944092</ele>
        <time>2013-03-09T08:01:21Z</time>
      </trkpt>
      <trkpt lat="45.22267" lon="6.01701">
        <ele>1673.838867</ele>
        <time>2013-03-09T08:01:31Z</time>
      </trkpt>
      <trkpt lat="45.22268" lon="6.01713">
        <ele>1673.828491</ele>
        <time>2013-03-09T08:01:36Z</time>
      </trkpt>
      <trkpt lat="45.22268" lon="6.01724">
        <ele>1674.106567</ele>
        <time>2013-03-09T08:01:42Z</time>
      </trkpt>
      <trkpt lat="45.22268" lon="6.01735">
        <ele>1675.074219</ele>
        <time>2013-03-09T08:01:48Z</time>
      </trkpt>
      <trkpt lat="45.22268" lon="6.01748">
        <ele>1676.325317</ele>
        <time>2013-03-09T08:01:55Z</time>
      </trkpt>
      <trkpt lat="45.22268" lon="6.0176">
        <ele>1677.460449</ele>
        <time>2013-03-09T08:02:04Z</time>
      </trkpt>
      <trkpt lat="45.22265" lon="6.01771">
        <ele>1677.805542</ele>
        <time>2013-03-09T08:02:26Z</time>
      </trkpt>
      <trkpt lat="45.22266" lon="6.01773">
        <ele>1677.959229</ele>
        <time>2013-03-09T08:02:27Z</time>
      </trkpt>
      <trkpt lat="45.2227" lon="6.01795">
        <ele>1683.400024</ele>
        <time>2013-03-09T08:02:46Z</time>
      </trkpt>
      <trkpt lat="45.22272" lon="6.01806">
        <ele>1687.209961</ele>
        <time>2013-03-09T08:02:54Z</time>
      </trkpt>
      <trkpt lat="45.22271" lon="6.01818">
        <ele>1689.890015</ele>
        <time>2013-03-09T08:03:05Z</time>
      </trkpt>
      <trkpt lat="45.22264" lon="6.01825">
        <ele>1689.063721</ele>
        <time>2013-03-09T08:03:20Z</time>
      </trkpt>
      <trkpt lat="45.22258" lon="6.01833">
        <ele>1688.981934</ele>
        <time>2013-03-09T08:03:30Z</time>
      </trkpt>
      <trkpt lat="45.22257" lon="6.01834">
        <ele>1689.053589</ele>
        <time>2013-03-09T08:03:31Z</time>
      </trkpt>
      <trkpt lat="45.22254" lon="6.01856">
        <ele>1691.310425</ele>
        <time>2013-03-09T08:03:49Z</time>
      </trkpt>
      <trkpt lat="45.22254" lon="6.01869">
        <ele>1691.727661</ele>
        <time>2013-03-09T08:03:59Z</time>
      </trkpt>
      <trkpt lat="45.22252" lon="6.01881">
        <ele>1691.726196</ele>
        <time>2013-03-09T08:04:09Z</time>
      </trkpt>
      <trkpt lat="45.22253" lon="6.01894">
        <ele>1692.524658</ele>
        <time>2013-03-09T08:04:20Z</time>
      </trkpt>
      <trkpt lat="45.22254" lon="6.01906">
        <ele>1693.650024</ele>
        <time>2013-03-09T08:04:29Z</time>
      </trkpt>
      <trkpt lat="45.22256" lon="6.01918">
        <ele>1695.946167</ele>
        <time>2013-03-09T08:04:39Z</time>
      </trkpt>
      <trkpt lat="45.22257" lon="6.01919">
        <ele>1696.151855</ele>
        <time>2013-03-09T08:04:40Z</time>
      </trkpt>
      <trkpt lat="45.22257" lon="6.01941">
        <ele>1698.389771</ele>
        <time>2013-03-09T08:04:56Z</time>
      </trkpt>
      <trkpt lat="45.22257" lon="6.01954">
        <ele>1699.565308</ele>
        <time>2013-03-09T08:05:05Z</time>
      </trkpt>
      <trkpt lat="45.22259" lon="6.01965">
        <ele>1701.458008</ele>
        <time>2013-03-09T08:05:13Z</time>
      </trkpt>
      <trkpt lat="45.22258" lon="6.01977">
        <ele>1702.483154</ele>
        <time>2013-03-09T08:05:21Z</time>
      </trkpt>
      <trkpt lat="45.22257" lon="6.0199">
        <ele>1703.265259</ele>
        <time>2013-03-09T08:05:30Z</time>
      </trkpt>
      <trkpt lat="45.22252" lon="6.02">
        <ele>1702.673706</ele>
        <time>2013-03-09T08:05:41Z</time>
      </trkpt>
      <trkpt lat="45.22252" lon="6.02001">
        <ele>1702.574341</ele>
        <time>2013-03-09T08:05:42Z</time>
      </trkpt>
      <trkpt lat="45.22251" lon="6.02023">
        <ele>1704.512451</ele>
        <time>2013-03-09T08:06:02Z</time>
      </trkpt>
      <trkpt lat="45.22251" lon="6.02035">
        <ele>1705.876953</ele>
        <time>2013-03-09T08:06:12Z</time>
      </trkpt>
      <trkpt lat="45.22251" lon="6.02047">
        <ele>1707.254639</ele>
        <time>2013-03-09T08:06:23Z</time>
      </trkpt>
      <trkpt lat="45.22253" lon="6.02059">
        <ele>1709.279053</ele>
        <time>2013-03-09T08:06:34Z</time>
      </trkpt>
      <trkpt lat="45.22255" lon="6.02071">
        <ele>1711.188965</ele>
        <time>2013-03-09T08:06:44Z</time>
      </trkpt>
      <trkpt lat="45.22255" lon="6.02072">
        <ele>1711.373047</ele>
        <time>2013-03-09T08:06:45Z</time>
      </trkpt>
      <trkpt lat="45.22261" lon="6.02094">
        <ele>1715.467163</ele>
        <time>2013-03-09T08:07:07Z</time>
      </trkpt>
      <trkpt lat="45.22266" lon="6.02103">
        <ele>1717.844238</ele>
        <time>2013-03-09T08:07:18Z</time>
      </trkpt>
      <trkpt lat="45.22271" lon="6.02113">
        <ele>1720.512695</ele>
        <time>2013-03-09T08:07:28Z</time>
      </trkpt>
      <trkpt lat="45.22277" lon="6.02122">
        <ele>1723.009033</ele>
        <time>2013-03-09T08:07:38Z</time>
      </trkpt>
      <trkpt lat="45.22283" lon="6.0213">
        <ele>1725.387451</ele>
        <time>2013-03-09T08:07:52Z</time>
      </trkpt>
      <trkpt lat="45.22284" lon="6.02131">
        <ele>1725.547241</ele>
        <time>2013-03-09T08:07:53Z</time>
      </trkpt>
      <trkpt lat="45.22294" lon="6.02149">
        <ele>1729.458496</ele>
        <time>2013-03-09T08:08:12Z</time>
      </trkpt>
      <trkpt lat="45.22299" lon="6.02159">
        <ele>1731.172119</ele>
        <time>2013-03-09T08:08:21Z</time>
      </trkpt>
      <trkpt lat="45.22304" lon="6.02169">
        <ele>1733.072998</ele>
        <time>2013-03-09T08:08:31Z</time>
      </trkpt>
      <trkpt lat="45.22308" lon="6.02179">
        <ele>1735.600464</ele>
        <time>2013-03-09T08:08:42Z</time>
      </trkpt>
      <trkpt lat="45.22314" lon="6.02188">
        <ele>1737.959595</ele>
        <time>2013-03-09T08:08:53Z</time>
      </trkpt>
      <trkpt lat="45.22314" lon="6.02189">
        <ele>1738.155273</ele>
        <time>2013-03-09T08:08:54Z</time>
      </trkpt>
      <trkpt lat="45.22323" lon="6.02209">
        <ele>1742.439087</ele>
        <time>2013-03-09T08:09:17Z</time>
      </trkpt>
      <trkpt lat="45.22329" lon="6.02219">
        <ele>1744.491333</ele>
        <time>2013-03-09T08:09:28Z</time>
      </trkpt>
      <trkpt lat="45.22334" lon="6.02228">
        <ele>1746.323608</ele>
        <time>2013-03-09T08:09:39Z</time>
      </trkpt>
      <trkpt lat="45.22339" lon="6.02238">
        <ele>1748.36853</ele>
        <time>2013-03-09T08:09:51Z</time>
      </trkpt>
      <trkpt lat="45.22345" lon="6.02248">
        <ele>1751.382202</ele>
        <time>2013-03-09T08:10:03Z</time>
      </trkpt>
      <trkpt lat="45.22346" lon="6.02248">
        <ele>1751.643188</ele>
        <time>2013-03-09T08:10:04Z</time>
      </trkpt>
      <trkpt lat="45.22358" lon="6.02264">
        <ele>1757.766479</ele>
        <time>2013-03-09T08:10:26Z</time>
      </trkpt>
      <trkpt lat="45.22365" lon="6.02271">
        <ele>1760.727295</ele>
        <time>2013-03-09T08:10:38Z</time>
      </trkpt>
      <trkpt lat="45.22371" lon="6.0228">
        <ele>1764.091553</ele>
        <time>2013-03-09T08:10:51Z</time>
      </trkpt>
      <trkpt lat="45.22377" lon="6.02289">
        <ele>1767.436279</ele>
        <time>2013-03-09T08:11:03Z</time>
      </trkpt>
      <trkpt lat="45.22373" lon="6.023">
        <ele>1768.888428</ele>
        <time>2013-03-09T08:11:23Z</time>
      </trkpt>
      <trkpt lat="45.22373" lon="6.02301">
        <ele>1768.928711</ele>
        <time>2013-03-09T08:11:24Z</time>
      </trkpt>
      <trkpt lat="45.22388" lon="6.02314">
        <ele>1775.484985</ele>
        <time>2013-03-09T08:11:52Z</time>
      </trkpt>
      <trkpt lat="45.22389" lon="6.02326">
        <ele>1777.94104</ele>
        <time>2013-03-09T08:12:06Z</time>
      </trkpt>
      <trkpt lat="45.2239" lon="6.02338">
        <ele>1780.348389</ele>
        <time>2013-03-09T08:12:17Z</time>
      </trkpt>
      <trkpt lat="45.22392" lon="6.0235">
        <ele>1783.063354</ele>
        <time>2013-03-09T08:12:31Z</time>
      </trkpt>
      <trkpt lat="45.22393" lon="6.02351">
        <ele>1783.1698</ele>
        <time>2013-03-09T08:12:32Z</time>
      </trkpt>
      <trkpt lat="45.22402" lon="6.0237">
        <ele>1788.782227</ele>
        <time>2013-03-09T08:13:04Z</time>
      </trkpt>
      <trkpt lat="45.2241" lon="6.02366">
        <ele>1790.979492</ele>
        <time>2013-03-09T08:13:16Z</time>
      </trkpt>
      <trkpt lat="45.22418" lon="6.02362">
        <ele>1793.358398</ele>
        <time>2013-03-09T08:13:28Z</time>
      </trkpt>
      <trkpt lat="45.22421" lon="6.02373">
        <ele>1795.632324</ele>
        <time>2013-03-09T08:13:48Z</time>
      </trkpt>
      <trkpt lat="45.22421" lon="6.02374">
        <ele>1795.634521</ele>
        <time>2013-03-09T08:13:49Z</time>
      </trkpt>
      <trkpt lat="45.22432" lon="6.02391">
        <ele>1800.974609</ele>
        <time>2013-03-09T08:16:28Z</time>
      </trkpt>
      <trkpt lat="45.22432" lon="6.02392">
        <ele>1801.188721</ele>
        <time>2013-03-09T08:16:29Z</time>
      </trkpt>
      <trkpt lat="45.22445" lon="6.02397">
        <ele>1806.176636</ele>
        <time>2013-03-09T08:16:58Z</time>
      </trkpt>
      <trkpt lat="45.22449" lon="6.02387">
        <ele>1807.057739</ele>
        <time>2013-03-09T08:17:12Z</time>
      </trkpt>
      <trkpt lat="45.22452" lon="6.02375">
        <ele>1807.174072</ele>
        <time>2013-03-09T08:17:24Z</time>
      </trkpt>
      <trkpt lat="45.22455" lon="6.02363">
        <ele>1807.75</ele>
        <time>2013-03-09T08:17:36Z</time>
      </trkpt>
      <trkpt lat="45.22455" lon="6.02363">
        <ele>1807.783936</ele>
        <time>2013-03-09T08:17:37Z</time>
      </trkpt>
      <trkpt lat="45.22462" lon="6.02341">
        <ele>1810.184204</ele>
        <time>2013-03-09T08:18:02Z</time>
      </trkpt>
      <trkpt lat="45.22467" lon="6.02332">
        <ele>1812.711304</ele>
        <time>2013-03-09T08:18:14Z</time>
      </trkpt>
      <trkpt lat="45.22474" lon="6.02324">
        <ele>1815.570068</ele>
        <time>2013-03-09T08:18:26Z</time>
      </trkpt>
      <trkpt lat="45.2248" lon="6.02315">
        <ele>1818.427979</ele>
        <time>2013-03-09T08:18:40Z</time>
      </trkpt>
      <trkpt lat="45.22481" lon="6.02315">
        <ele>1818.685791</ele>
        <time>2013-03-09T08:18:41Z</time>
      </trkpt>
      <trkpt lat="45.22495" lon="6.02326">
        <ele>1824.536499</ele>
        <time>2013-03-09T08:19:22Z</time>
      </trkpt>
      <trkpt lat="45.225" lon="6.02335">
        <ele>1826.761597</ele>
        <time>2013-03-09T08:19:36Z</time>
      </trkpt>
      <trkpt lat="45.22509" lon="6.02333">
        <ele>1830.522705</ele>
        <time>2013-03-09T08:19:57Z</time>
      </trkpt>
      <trkpt lat="45.22509" lon="6.02332">
        <ele>1830.706787</ele>
        <time>2013-03-09T08:19:58Z</time>
      </trkpt>
      <trkpt lat="45.22516" lon="6.02311">
        <ele>1834.507446</ele>
        <time>2013-03-09T08:20:21Z</time>
      </trkpt>
      <trkpt lat="45.22523" lon="6.02317">
        <ele>1837.330322</ele>
        <time>2013-03-09T08:20:44Z</time>
      </trkpt>
      <trkpt lat="45.22528" lon="6.02327">
        <ele>1839.084839</ele>
        <time>2013-03-09T08:20:57Z</time>
      </trkpt>
      <trkpt lat="45.22537" lon="6.02328">
        <ele>1842.74646</ele>
        <time>2013-03-09T08:22:04Z</time>
      </trkpt>
      <trkpt lat="45.22538" lon="6.02328">
        <ele>1842.997437</ele>
        <time>2013-03-09T08:22:05Z</time>
      </trkpt>
      <trkpt lat="45.22552" lon="6.02339">
        <ele>1848.15625</ele>
        <time>2013-03-09T08:22:27Z</time>
      </trkpt>
      <trkpt lat="45.22559" lon="6.02345">
        <ele>1850.776123</ele>
        <time>2013-03-09T08:23:06Z</time>
      </trkpt>
      <trkpt lat="45.2256" lon="6.02346">
        <ele>1850.910156</ele>
        <time>2013-03-09T08:23:07Z</time>
      </trkpt>
      <trkpt lat="45.22571" lon="6.02363">
        <ele>1853.724365</ele>
        <time>2013-03-09T08:23:54Z</time>
      </trkpt>
      <trkpt lat="45.22578" lon="6.0237">
        <ele>1855.671021</ele>
        <time>2013-03-09T08:24:09Z</time>
      </trkpt>
      <trkpt lat="45.22579" lon="6.0237">
        <ele>1855.886963</ele>
        <time>2013-03-09T08:24:10Z</time>
      </trkpt>
      <trkpt lat="45.22595" lon="6.02378">
        <ele>1860.692871</ele>
        <time>2013-03-09T08:24:38Z</time>
      </trkpt>
      <trkpt lat="45.22603" lon="6.02381">
        <ele>1863.369263</ele>
        <time>2013-03-09T08:24:51Z</time>
      </trkpt>
      <trkpt lat="45.22612" lon="6.02379">
        <ele>1866.808716</ele>
        <time>2013-03-09T08:25:18Z</time>
      </trkpt>
      <trkpt lat="45.22612" lon="6.02378">
        <ele>1867.060059</ele>
        <time>2013-03-09T08:25:19Z</time>
      </trkpt>
      <trkpt lat="45.22615" lon="6.02354">
        <ele>1872.047485</ele>
        <time>2013-03-09T08:26:52Z</time>
      </trkpt>
      <trkpt lat="45.22615" lon="6.02353">
        <ele>1872.297485</ele>
        <time>2013-03-09T08:26:53Z</time>
      </trkpt>
      <trkpt lat="45.22616" lon="6.02331">
        <ele>1876.158813</ele>
        <time>2013-03-09T08:27:15Z</time>
      </trkpt>
      <trkpt lat="45.22616" lon="6.02319">
        <ele>1878.107422</ele>
        <time>2013-03-09T08:27:28Z</time>
      </trkpt>
      <trkpt lat="45.22616" lon="6.02306">
        <ele>1879.734985</ele>
        <time>2013-03-09T08:27:42Z</time>
      </trkpt>
      <trkpt lat="45.22618" lon="6.02295">
        <ele>1881.660034</ele>
        <time>2013-03-09T08:27:55Z</time>
      </trkpt>
      <trkpt lat="45.22618" lon="6.02294">
        <ele>1881.939941</ele>
        <time>2013-03-09T08:27:56Z</time>
      </trkpt>
      <trkpt lat="45.2263" lon="6.02279">
        <ele>1888.342529</ele>
        <time>2013-03-09T08:28:30Z</time>
      </trkpt>
      <trkpt lat="45.22636" lon="6.0227">
        <ele>1891.665039</ele>
        <time>2013-03-09T08:28:42Z</time>
      </trkpt>
      <trkpt lat="45.22641" lon="6.0226">
        <ele>1894.732544</ele>
        <time>2013-03-09T08:28:52Z</time>
      </trkpt>
      <trkpt lat="45.22645" lon="6.02249">
        <ele>1897.356934</ele>
        <time>2013-03-09T08:29:04Z</time>
      </trkpt>
      <trkpt lat="45.22645" lon="6.02248">
        <ele>1897.552124</ele>
        <time>2013-03-09T08:29:05Z</time>
      </trkpt>
      <trkpt lat="45.22651" lon="6.02225">
        <ele>1901.77478</ele>
        <time>2013-03-09T08:29:31Z</time>
      </trkpt>
      <trkpt lat="45.22656" lon="6.02215">
        <ele>1904.784302</ele>
        <time>2013-03-09T08:29:44Z</time>
      </trkpt>
      <trkpt lat="45.22663" lon="6.02208">
        <ele>1909.045776</ele>
        <time>2013-03-09T08:29:58Z</time>
      </trkpt>
      <trkpt lat="45.22667" lon="6.02197">
        <ele>1912.06897</ele>
        <time>2013-03-09T08:30:13Z</time>
      </trkpt>
      <trkpt lat="45.22668" lon="6.02196">
        <ele>1912.331055</ele>
        <time>2013-03-09T08:30:14Z</time>
      </trkpt>
      <trkpt lat="45.2267" lon="6.02173">
        <ele>1918.569092</ele>
        <time>2013-03-09T08:30:51Z</time>
      </trkpt>
      <trkpt lat="45.22679" lon="6.02177">
        <ele>1921.638306</ele>
        <time>2013-03-09T08:31:42Z</time>
      </trkpt>
      <trkpt lat="45.22679" lon="6.02178">
        <ele>1921.728394</ele>
        <time>2013-03-09T08:31:43Z</time>
      </trkpt>
      <trkpt lat="45.22692" lon="6.02181">
        <ele>1927.471802</ele>
        <time>2013-03-09T08:32:18Z</time>
      </trkpt>
      <trkpt lat="45.22693" lon="6.02169">
        <ele>1930.270264</ele>
        <time>2013-03-09T08:32:29Z</time>
      </trkpt>
      <trkpt lat="45.22702" lon="6.02169">
        <ele>1934.355835</ele>
        <time>2013-03-09T08:33:04Z</time>
      </trkpt>
      <trkpt lat="45.22702" lon="6.0217">
        <ele>1934.383789</ele>
        <time>2013-03-09T08:33:05Z</time>
      </trkpt>
      <trkpt lat="45.22712" lon="6.0217">
        <ele>1940.170532</ele>
        <time>2013-03-09T08:33:39Z</time>
      </trkpt>
      <trkpt lat="45.22715" lon="6.02158">
        <ele>1942.791382</ele>
        <time>2013-03-09T08:33:52Z</time>
      </trkpt>
      <trkpt lat="45.22713" lon="6.02146">
        <ele>1943.560913</ele>
        <time>2013-03-09T08:34:04Z</time>
      </trkpt>
      <trkpt lat="45.22721" lon="6.02152">
        <ele>1946.924194</ele>
        <time>2013-03-09T08:34:43Z</time>
      </trkpt>
      <trkpt lat="45.22722" lon="6.02152">
        <ele>1947.101929</ele>
        <time>2013-03-09T08:34:44Z</time>
      </trkpt>
      <trkpt lat="45.2273" lon="6.02133">
        <ele>1952.351074</ele>
        <time>2013-03-09T08:35:22Z</time>
      </trkpt>
      <trkpt lat="45.22737" lon="6.02139">
        <ele>1955.263672</ele>
        <time>2013-03-09T08:35:44Z</time>
      </trkpt>
      <trkpt lat="45.22742" lon="6.0215">
        <ele>1957.337891</ele>
        <time>2013-03-09T08:36:00Z</time>
      </trkpt>
      <trkpt lat="45.22742" lon="6.02151">
        <ele>1957.493164</ele>
        <time>2013-03-09T08:36:01Z</time>
      </trkpt>
      <trkpt lat="45.22749" lon="6.02129">
        <ele>1961.741821</ele>
        <time>2013-03-09T08:36:40Z</time>
      </trkpt>
      <trkpt lat="45.22757" lon="6.02135">
        <ele>1963.030029</ele>
        <time>2013-03-09T08:37:10Z</time>
      </trkpt>
      <trkpt lat="45.22757" lon="6.02135">
        <ele>1963.141968</ele>
        <time>2013-03-09T08:37:11Z</time>
      </trkpt>
      <trkpt lat="45.22767" lon="6.02118">
        <ele>1969.868286</ele>
        <time>2013-03-09T08:38:00Z</time>
      </trkpt>
      <trkpt lat="45.22775" lon="6.02122">
        <ele>1971.587646</ele>
        <time>2013-03-09T08:38:32Z</time>
      </trkpt>
      <trkpt lat="45.22775" lon="6.02123">
        <ele>1971.44751</ele>
        <time>2013-03-09T08:38:33Z</time>
      </trkpt>
      <trkpt lat="45.22791" lon="6.02114">
        <ele>1978.08667</ele>
        <time>2013-03-09T08:39:46Z</time>
      </trkpt>
      <trkpt lat="45.22791" lon="6.02115">
        <ele>1978.021118</ele>
        <time>2013-03-09T08:39:47Z</time>
      </trkpt>
      <trkpt lat="45.22802" lon="6.02117">
        <ele>1980.948853</ele>
        <time>2013-03-09T08:41:57Z</time>
      </trkpt>
      <trkpt lat="45.22802" lon="6.02116">
        <ele>1981.250977</ele>
        <time>2013-03-09T08:41:58Z</time>
      </trkpt>
      <trkpt lat="45.22803" lon="6.02093">
        <ele>1985.77124</ele>
        <time>2013-03-09T08:42:26Z</time>
      </trkpt>
      <trkpt lat="45.22802" lon="6.0208">
        <ele>1988.006348</ele>
        <time>2013-03-09T08:42:39Z</time>
      </trkpt>
      <trkpt lat="45.228" lon="6.02068">
        <ele>1990.210327</ele>
        <time>2013-03-09T08:42:52Z</time>
      </trkpt>
      <trkpt lat="45.22796" lon="6.02057">
        <ele>1992.705322</ele>
        <time>2013-03-09T08:43:04Z</time>
      </trkpt>
      <trkpt lat="45.22796" lon="6.02056">
        <ele>1992.892944</ele>
        <time>2013-03-09T08:43:05Z</time>
      </trkpt>
      <trkpt lat="45.22799" lon="6.02038">
        <ele>1999.373291</ele>
        <time>2013-03-09T08:44:05Z</time>
      </trkpt>
      <trkpt lat="45.22799" lon="6.02038">
        <ele>1999.491211</ele>
        <time>2013-03-09T08:44:06Z</time>
      </trkpt>
      <trkpt lat="45.22815" lon="6.02028">
        <ele>2005.869507</ele>
        <time>2013-03-09T08:44:39Z</time>
      </trkpt>
      <trkpt lat="45.22822" lon="6.0202">
        <ele>2009.567627</ele>
        <time>2013-03-09T08:44:55Z</time>
      </trkpt>
      <trkpt lat="45.22824" lon="6.02008">
        <ele>2013.428833</ele>
        <time>2013-03-09T08:45:10Z</time>
      </trkpt>
      <trkpt lat="45.22824" lon="6.02007">
        <ele>2013.680786</ele>
        <time>2013-03-09T08:45:11Z</time>
      </trkpt>
      <trkpt lat="45.22817" lon="6.01985">
        <ele>2018.849731</ele>
        <time>2013-03-09T08:45:38Z</time>
      </trkpt>
      <trkpt lat="45.22815" lon="6.01973">
        <ele>2022.102051</ele>
        <time>2013-03-09T08:45:51Z</time>
      </trkpt>
      <trkpt lat="45.22814" lon="6.01961">
        <ele>2025.420532</ele>
        <time>2013-03-09T08:46:03Z</time>
      </trkpt>
      <trkpt lat="45.22807" lon="6.01953">
        <ele>2025.736572</ele>
        <time>2013-03-09T08:46:20Z</time>
      </trkpt>
      <trkpt lat="45.22806" lon="6.01952">
        <ele>2025.706543</ele>
        <time>2013-03-09T08:46:21Z</time>
      </trkpt>
      <trkpt lat="45.22804" lon="6.01929">
        <ele>2032.748535</ele>
        <time>2013-03-09T08:47:32Z</time>
      </trkpt>
      <trkpt lat="45.22804" lon="6.01929">
        <ele>2032.864624</ele>
        <time>2013-03-09T08:47:33Z</time>
      </trkpt>
      <trkpt lat="45.22801" lon="6.01905">
        <ele>2040.093384</ele>
        <time>2013-03-09T08:48:05Z</time>
      </trkpt>
      <trkpt lat="45.22798" lon="6.01892">
        <ele>2043.109863</ele>
        <time>2013-03-09T08:48:20Z</time>
      </trkpt>
      <trkpt lat="45.22796" lon="6.0188">
        <ele>2046.192139</ele>
        <time>2013-03-09T08:48:37Z</time>
      </trkpt>
      <trkpt lat="45.22796" lon="6.0188">
        <ele>2046.390625</ele>
        <time>2013-03-09T08:48:38Z</time>
      </trkpt>
      <trkpt lat="45.22792" lon="6.01856">
        <ele>2051.436279</ele>
        <time>2013-03-09T08:49:14Z</time>
      </trkpt>
      <trkpt lat="45.22786" lon="6.01847">
        <ele>2050.862549</ele>
        <time>2013-03-09T08:49:38Z</time>
      </trkpt>
      <trkpt lat="45.22786" lon="6.01847">
        <ele>2050.873779</ele>
        <time>2013-03-09T08:49:39Z</time>
      </trkpt>
      <trkpt lat="45.22776" lon="6.01827">
        <ele>2050.177979</ele>
        <time>2013-03-09T08:50:14Z</time>
      </trkpt>
      <trkpt lat="45.22773" lon="6.01815">
        <ele>2050.8479</ele>
        <time>2013-03-09T08:50:30Z</time>
      </trkpt>
      <trkpt lat="45.22781" lon="6.01817">
        <ele>2056.665527</ele>
        <time>2013-03-09T08:52:51Z</time>
      </trkpt>
      <trkpt lat="45.22782" lon="6.01817">
        <ele>2056.81543</ele>
        <time>2013-03-09T08:52:52Z</time>
      </trkpt>
      <trkpt lat="45.22782" lon="6.01804">
        <ele>2057.280029</ele>
        <time>2013-03-09T08:59:39Z</time>
      </trkpt>
      <trkpt lat="45.22791" lon="6.01808">
        <ele>2063.024414</ele>
        <time>2013-03-09T09:03:16Z</time>
      </trkpt>
      <trkpt lat="45.22804" lon="6.01794">
        <ele>2071.914795</ele>
        <time>2013-03-09T09:03:53Z</time>
      </trkpt>
      <trkpt lat="45.22811" lon="6.01786">
        <ele>2076.050781</ele>
        <time>2013-03-09T09:04:08Z</time>
      </trkpt>
      <trkpt lat="45.22818" lon="6.01778">
        <ele>2080.141113</ele>
        <time>2013-03-09T09:04:35Z</time>
      </trkpt>
      <trkpt lat="45.22818" lon="6.01778">
        <ele>2080.36792</ele>
        <time>2013-03-09T09:04:36Z</time>
      </trkpt>
      <trkpt lat="45.2283" lon="6.0176">
        <ele>2088.194336</ele>
        <time>2013-03-09T09:05:08Z</time>
      </trkpt>
      <trkpt lat="45.22836" lon="6.01751">
        <ele>2091.492188</ele>
        <time>2013-03-09T09:05:26Z</time>
      </trkpt>
      <trkpt lat="45.22842" lon="6.01742">
        <ele>2094.275635</ele>
        <time>2013-03-09T09:05:48Z</time>
      </trkpt>
      <trkpt lat="45.22843" lon="6.01742">
        <ele>2094.432373</ele>
        <time>2013-03-09T09:05:49Z</time>
      </trkpt>
      <trkpt lat="45.22854" lon="6.01743">
        <ele>2101.505127</ele>
        <time>2013-03-09T09:06:47Z</time>
      </trkpt>
      <trkpt lat="45.22856" lon="6.01754">
        <ele>2104.66748</ele>
        <time>2013-03-09T09:07:03Z</time>
      </trkpt>
      <trkpt lat="45.22857" lon="6.01755">
        <ele>2104.891357</ele>
        <time>2013-03-09T09:07:04Z</time>
      </trkpt>
      <trkpt lat="45.2287" lon="6.01745">
        <ele>2112.418701</ele>
        <time>2013-03-09T09:07:56Z</time>
      </trkpt>
      <trkpt lat="45.22876" lon="6.01736">
        <ele>2114.67749</ele>
        <time>2013-03-09T09:08:15Z</time>
      </trkpt>
      <trkpt lat="45.22876" lon="6.01735">
        <ele>2114.880127</ele>
        <time>2013-03-09T09:08:16Z</time>
      </trkpt>
      <trkpt lat="45.22887" lon="6.01716">
        <ele>2119.27002</ele>
        <time>2013-03-09T09:08:54Z</time>
      </trkpt>
      <trkpt lat="45.22892" lon="6.01726">
        <ele>2123.918701</ele>
        <time>2013-03-09T09:09:43Z</time>
      </trkpt>
      <trkpt lat="45.22892" lon="6.01727">
        <ele>2124.006348</ele>
        <time>2013-03-09T09:09:44Z</time>
      </trkpt>
      <trkpt lat="45.22898" lon="6.0175">
        <ele>2130.504883</ele>
        <time>2013-03-09T09:10:17Z</time>
      </trkpt>
      <trkpt lat="45.22906" lon="6.01746">
        <ele>2135.750977</ele>
        <time>2013-03-09T09:10:58Z</time>
      </trkpt>
      <trkpt lat="45.22906" lon="6.01745">
        <ele>2136.015381</ele>
        <time>2013-03-09T09:10:59Z</time>
      </trkpt>
      <trkpt lat="45.22917" lon="6.01727">
        <ele>2141.513672</ele>
        <time>2013-03-09T09:11:35Z</time>
      </trkpt>
      <trkpt lat="45.22924" lon="6.01735">
        <ele>2147.725098</ele>
        <time>2013-03-09T09:12:27Z</time>
      </trkpt>
      <trkpt lat="45.22924" lon="6.01735">
        <ele>2147.94873</ele>
        <time>2013-03-09T09:12:28Z</time>
      </trkpt>
      <trkpt lat="45.22929" lon="6.01758">
        <ele>2154.532959</ele>
        <time>2013-03-09T09:12:58Z</time>
      </trkpt>
      <trkpt lat="45.22933" lon="6.01769">
        <ele>2157.082275</ele>
        <time>2013-03-09T09:13:14Z</time>
      </trkpt>
      <trkpt lat="45.22941" lon="6.01764">
        <ele>2163.69458</ele>
        <time>2013-03-09T09:13:54Z</time>
      </trkpt>
      <trkpt lat="45.22941" lon="6.01763">
        <ele>2163.889404</ele>
        <time>2013-03-09T09:13:55Z</time>
      </trkpt>
      <trkpt lat="45.22951" lon="6.01743">
        <ele>2168.761475</ele>
        <time>2013-03-09T09:14:39Z</time>
      </trkpt>
      <trkpt lat="45.22956" lon="6.01732">
        <ele>2170.919922</ele>
        <time>2013-03-09T09:15:22Z</time>
      </trkpt>
      <trkpt lat="45.22956" lon="6.01732">
        <ele>2171.078369</ele>
        <time>2013-03-09T09:15:23Z</time>
      </trkpt>
      <trkpt lat="45.22968" lon="6.01732">
        <ele>2180.08667</ele>
        <time>2013-03-09T09:16:37Z</time>
      </trkpt>
      <trkpt lat="45.22968" lon="6.01733">
        <ele>2180.248291</ele>
        <time>2013-03-09T09:16:38Z</time>
      </trkpt>
      <trkpt lat="45.22973" lon="6.01756">
        <ele>2186.473389</ele>
        <time>2013-03-09T09:17:20Z</time>
      </trkpt>
      <trkpt lat="45.22981" lon="6.01752">
        <ele>2192.439453</ele>
        <time>2013-03-09T09:18:09Z</time>
      </trkpt>
      <trkpt lat="45.22981" lon="6.01752">
        <ele>2192.467041</ele>
        <time>2013-03-09T09:18:10Z</time>
      </trkpt>
      <trkpt lat="45.22991" lon="6.01732">
        <ele>2198.059814</ele>
        <time>2013-03-09T09:18:50Z</time>
      </trkpt>
      <trkpt lat="45.22996" lon="6.01721">
        <ele>2200.317139</ele>
        <time>2013-03-09T09:19:11Z</time>
      </trkpt>
      <trkpt lat="45.22996" lon="6.01721">
        <ele>2200.374756</ele>
        <time>2013-03-09T09:19:12Z</time>
      </trkpt>
      <trkpt lat="45.23007" lon="6.01739">
        <ele>2209.730713</ele>
        <time>2013-03-09T09:20:17Z</time>
      </trkpt>
      <trkpt lat="45.23007" lon="6.0174">
        <ele>2210.118408</ele>
        <time>2013-03-09T09:20:18Z</time>
      </trkpt>
      <trkpt lat="45.23016" lon="6.01743">
        <ele>2216.983887</ele>
        <time>2013-03-09T09:21:10Z</time>
      </trkpt>
      <trkpt lat="45.23021" lon="6.01732">
        <ele>2219.52002</ele>
        <time>2013-03-09T09:21:30Z</time>
      </trkpt>
      <trkpt lat="45.23022" lon="6.01732">
        <ele>2219.787354</ele>
        <time>2013-03-09T09:21:31Z</time>
      </trkpt>
      <trkpt lat="45.23032" lon="6.01713">
        <ele>2225.822021</ele>
        <time>2013-03-09T09:22:13Z</time>
      </trkpt>
      <trkpt lat="45.23035" lon="6.01725">
        <ele>2228.637939</ele>
        <time>2013-03-09T09:22:43Z</time>
      </trkpt>
      <trkpt lat="45.23035" lon="6.01725">
        <ele>2228.81665</ele>
        <time>2013-03-09T09:22:44Z</time>
      </trkpt>
      <trkpt lat="45.23039" lon="6.01749">
        <ele>2233.438232</ele>
        <time>2013-03-09T09:23:18Z</time>
      </trkpt>
      <trkpt lat="45.23042" lon="6.0176">
        <ele>2236.116943</ele>
        <time>2013-03-09T09:23:38Z</time>
      </trkpt>
      <trkpt lat="45.23049" lon="6.01752">
        <ele>2239.939209</ele>
        <time>2013-03-09T09:24:18Z</time>
      </trkpt>
      <trkpt lat="45.2305" lon="6.01752">
        <ele>2240.061279</ele>
        <time>2013-03-09T09:24:19Z</time>
      </trkpt>
      <trkpt lat="45.2306" lon="6.01733">
        <ele>2245.616211</ele>
        <time>2013-03-09T09:24:56Z</time>
      </trkpt>
      <trkpt lat="45.23066" lon="6.01724">
        <ele>2248.89624</ele>
        <time>2013-03-09T09:25:20Z</time>
      </trkpt>
      <trkpt lat="45.23066" lon="6.01723">
        <ele>2249.108643</ele>
        <time>2013-03-09T09:25:21Z</time>
      </trkpt>
      <trkpt lat="45.23078" lon="6.01706">
        <ele>2256.286133</ele>
        <time>2013-03-09T09:25:57Z</time>
      </trkpt>
      <trkpt lat="45.23085" lon="6.01698">
        <ele>2258.898438</ele>
        <time>2013-03-09T09:26:16Z</time>
      </trkpt>
      <trkpt lat="45.23091" lon="6.0169">
        <ele>2261.488281</ele>
        <time>2013-03-09T09:26:35Z</time>
      </trkpt>
      <trkpt lat="45.23092" lon="6.0169">
        <ele>2261.571289</ele>
        <time>2013-03-09T09:26:36Z</time>
      </trkpt>
      <trkpt lat="45.23105" lon="6.01674">
        <ele>2267.308105</ele>
        <time>2013-03-09T09:27:14Z</time>
      </trkpt>
      <trkpt lat="45.23107" lon="6.01686">
        <ele>2270.192871</ele>
        <time>2013-03-09T09:27:41Z</time>
      </trkpt>
      <trkpt lat="45.23108" lon="6.01687">
        <ele>2270.385498</ele>
        <time>2013-03-09T09:27:42Z</time>
      </trkpt>
      <trkpt lat="45.23111" lon="6.0171">
        <ele>2274.547119</ele>
        <time>2013-03-09T09:28:19Z</time>
      </trkpt>
      <trkpt lat="45.2312" lon="6.01709">
        <ele>2279.126709</ele>
        <time>2013-03-09T09:28:57Z</time>
      </trkpt>
      <trkpt lat="45.2312" lon="6.01708">
        <ele>2279.1604</ele>
        <time>2013-03-09T09:28:58Z</time>
      </trkpt>
      <trkpt lat="45.23131" lon="6.0169">
        <ele>2282.768799</ele>
        <time>2013-03-09T09:29:36Z</time>
      </trkpt>
      <trkpt lat="45.23138" lon="6.01681">
        <ele>2284.14624</ele>
        <time>2013-03-09T09:29:56Z</time>
      </trkpt>
      <trkpt lat="45.23144" lon="6.01672">
        <ele>2285.546387</ele>
        <time>2013-03-09T09:30:14Z</time>
      </trkpt>
      <trkpt lat="45.23144" lon="6.01672">
        <ele>2285.625</ele>
        <time>2013-03-09T09:30:15Z</time>
      </trkpt>
      <trkpt lat="45.23156" lon="6.01674">
        <ele>2289.33252</ele>
        <time>2013-03-09T09:31:09Z</time>
      </trkpt>
      <trkpt lat="45.23158" lon="6.01686">
        <ele>2290.777588</ele>
        <time>2013-03-09T09:31:27Z</time>
      </trkpt>
      <trkpt lat="45.23158" lon="6.01687">
        <ele>2290.834961</ele>
        <time>2013-03-09T09:31:28Z</time>
      </trkpt>
      <trkpt lat="45.23163" lon="6.0171">
        <ele>2293.571289</ele>
        <time>2013-03-09T09:32:02Z</time>
      </trkpt>
      <trkpt lat="45.23169" lon="6.01702">
        <ele>2295.168701</ele>
        <time>2013-03-09T09:32:32Z</time>
      </trkpt>
      <trkpt lat="45.2317" lon="6.01701">
        <ele>2295.205078</ele>
        <time>2013-03-09T09:32:33Z</time>
      </trkpt>
      <trkpt lat="45.23178" lon="6.01681">
        <ele>2294.306396</ele>
        <time>2013-03-09T09:33:10Z</time>
      </trkpt>
      <trkpt lat="45.23186" lon="6.01674">
        <ele>2293.744141</ele>
        <time>2013-03-09T09:33:29Z</time>
      </trkpt>
      <trkpt lat="45.23193" lon="6.01681">
        <ele>2294.145264</ele>
        <time>2013-03-09T09:33:48Z</time>
      </trkpt>
      <trkpt lat="45.23193" lon="6.01682">
        <ele>2294.192383</ele>
        <time>2013-03-09T09:33:49Z</time>
      </trkpt>
      <trkpt lat="45.23204" lon="6.017">
        <ele>2295.780273</ele>
        <time>2013-03-09T09:34:13Z</time>
      </trkpt>
      <trkpt lat="45.23208" lon="6.0171">
        <ele>2296.834473</ele>
        <time>2013-03-09T09:34:24Z</time>
      </trkpt>
      <trkpt lat="45.23213" lon="6.01721">
        <ele>2297.854248</ele>
        <time>2013-03-09T09:34:39Z</time>
      </trkpt>
      <trkpt lat="45.23219" lon="6.0173">
        <ele>2295.810791</ele>
        <time>2013-03-09T09:35:03Z</time>
      </trkpt>
      <trkpt lat="45.2322" lon="6.0173">
        <ele>2295.640137</ele>
        <time>2013-03-09T09:35:04Z</time>
      </trkpt>
      <trkpt lat="45.23217" lon="6.01734">
        <ele>2296.459473</ele>
        <time>2013-03-09T09:56:54Z</time>
      </trkpt>
      <trkpt lat="45.23215" lon="6.01731">
        <ele>2297.43042</ele>
        <time>2013-03-09T09:56:55Z</time>
      </trkpt>
      <trkpt lat="45.23209" lon="6.01717">
        <ele>2297.561768</ele>
        <time>2013-03-09T09:57:01Z</time>
      </trkpt>
      <trkpt lat="45.23204" lon="6.01708">
        <ele>2296.507324</ele>
        <time>2013-03-09T09:57:04Z</time>
      </trkpt>
      <trkpt lat="45.23199" lon="6.01699">
        <ele>2295.643799</ele>
        <time>2013-03-09T09:57:08Z</time>
      </trkpt>
      <trkpt lat="45.23194" lon="6.0169">
        <ele>2294.864746</ele>
        <time>2013-03-09T09:57:11Z</time>
      </trkpt>
      <trkpt lat="45.23188" lon="6.01682">
        <ele>2294.268311</ele>
        <time>2013-03-09T09:57:15Z</time>
      </trkpt>
      <trkpt lat="45.2318" lon="6.01682">
        <ele>2294.337158</ele>
        <time>2013-03-09T09:58:21Z</time>
      </trkpt>
      <trkpt lat="45.23178" lon="6.01683">
        <ele>2294.380859</ele>
        <time>2013-03-09T09:58:22Z</time>
      </trkpt>
      <trkpt lat="45.23164" lon="6.01681">
        <ele>2292.14502</ele>
        <time>2013-03-09T09:58:32Z</time>
      </trkpt>
      <trkpt lat="45.23156" lon="6.01677">
        <ele>2289.727539</ele>
        <time>2013-03-09T09:58:36Z</time>
      </trkpt>
      <trkpt lat="45.23148" lon="6.01676">
        <ele>2286.97876</ele>
        <time>2013-03-09T09:58:40Z</time>
      </trkpt>
      <trkpt lat="45.2314" lon="6.01677">
        <ele>2284.577637</ele>
        <time>2013-03-09T09:58:51Z</time>
      </trkpt>
      <trkpt lat="45.23132" lon="6.01675">
        <ele>2282.268799</ele>
        <time>2013-03-09T09:58:55Z</time>
      </trkpt>
      <trkpt lat="45.23124" lon="6.01676">
        <ele>2279.278076</ele>
        <time>2013-03-09T09:58:59Z</time>
      </trkpt>
      <trkpt lat="45.23117" lon="6.01675">
        <ele>2274.579102</ele>
        <time>2013-03-09T09:59:03Z</time>
      </trkpt>
      <trkpt lat="45.23108" lon="6.01676">
        <ele>2269.726563</ele>
        <time>2013-03-09T09:59:07Z</time>
      </trkpt>
      <trkpt lat="45.231" lon="6.01674">
        <ele>2264.487549</ele>
        <time>2013-03-09T09:59:37Z</time>
      </trkpt>
      <trkpt lat="45.23099" lon="6.01676">
        <ele>2264.101074</ele>
        <time>2013-03-09T09:59:38Z</time>
      </trkpt>
      <trkpt lat="45.2309" lon="6.01691">
        <ele>2260.731445</ele>
        <time>2013-03-09T09:59:44Z</time>
      </trkpt>
      <trkpt lat="45.23081" lon="6.01689">
        <ele>2255.613037</ele>
        <time>2013-03-09T09:59:52Z</time>
      </trkpt>
      <trkpt lat="45.23074" lon="6.01687">
        <ele>2250.465088</ele>
        <time>2013-03-09T09:59:56Z</time>
      </trkpt>
      <trkpt lat="45.23068" lon="6.01681">
        <ele>2245.203857</ele>
        <time>2013-03-09T09:59:59Z</time>
      </trkpt>
      <trkpt lat="45.2306" lon="6.01678">
        <ele>2239.70752</ele>
        <time>2013-03-09T10:00:03Z</time>
      </trkpt>
      <trkpt lat="45.23052" lon="6.0168">
        <ele>2234.300049</ele>
        <time>2013-03-09T10:00:06Z</time>
      </trkpt>
      <trkpt lat="45.23045" lon="6.01677">
        <ele>2229.100098</ele>
        <time>2013-03-09T10:00:09Z</time>
      </trkpt>
      <trkpt lat="45.2304" lon="6.01673">
        <ele>2225.040039</ele>
        <time>2013-03-09T10:00:12Z</time>
      </trkpt>
      <trkpt lat="45.23032" lon="6.01676">
        <ele>2219.69751</ele>
        <time>2013-03-09T10:00:31Z</time>
      </trkpt>
      <trkpt lat="45.23026" lon="6.01685">
        <ele>2216.966797</ele>
        <time>2013-03-09T10:01:21Z</time>
      </trkpt>
      <trkpt lat="45.23024" lon="6.01686">
        <ele>2216.009766</ele>
        <time>2013-03-09T10:01:22Z</time>
      </trkpt>
      <trkpt lat="45.23014" lon="6.01695">
        <ele>2209.907715</ele>
        <time>2013-03-09T10:01:30Z</time>
      </trkpt>
      <trkpt lat="45.2301" lon="6.01705">
        <ele>2208.651367</ele>
        <time>2013-03-09T10:01:34Z</time>
      </trkpt>
      <trkpt lat="45.23002" lon="6.01704">
        <ele>2202.56958</ele>
        <time>2013-03-09T10:01:40Z</time>
      </trkpt>
      <trkpt lat="45.22993" lon="6.01704">
        <ele>2196.249512</ele>
        <time>2013-03-09T10:01:45Z</time>
      </trkpt>
      <trkpt lat="45.22985" lon="6.01705">
        <ele>2190.17749</ele>
        <time>2013-03-09T10:01:50Z</time>
      </trkpt>
      <trkpt lat="45.2298" lon="6.01714">
        <ele>2187.281006</ele>
        <time>2013-03-09T10:01:53Z</time>
      </trkpt>
      <trkpt lat="45.22975" lon="6.01725">
        <ele>2185.261719</ele>
        <time>2013-03-09T10:01:57Z</time>
      </trkpt>
      <trkpt lat="45.22967" lon="6.01722">
        <ele>2178.638672</ele>
        <time>2013-03-09T10:02:02Z</time>
      </trkpt>
      <trkpt lat="45.22961" lon="6.01724">
        <ele>2173.979004</ele>
        <time>2013-03-09T10:02:09Z</time>
      </trkpt>
      <trkpt lat="45.22952" lon="6.01726">
        <ele>2167.489746</ele>
        <time>2013-03-09T10:02:15Z</time>
      </trkpt>
      <trkpt lat="45.22945" lon="6.01731">
        <ele>2163.028564</ele>
        <time>2013-03-09T10:02:19Z</time>
      </trkpt>
      <trkpt lat="45.22944" lon="6.01743">
        <ele>2163.109131</ele>
        <time>2013-03-09T10:03:14Z</time>
      </trkpt>
      <trkpt lat="45.22943" lon="6.01744">
        <ele>2162.898438</ele>
        <time>2013-03-09T10:03:15Z</time>
      </trkpt>
      <trkpt lat="45.22933" lon="6.01759">
        <ele>2156.935059</ele>
        <time>2013-03-09T10:03:28Z</time>
      </trkpt>
      <trkpt lat="45.22924" lon="6.01756">
        <ele>2150.401611</ele>
        <time>2013-03-09T10:03:33Z</time>
      </trkpt>
      <trkpt lat="45.22916" lon="6.01752">
        <ele>2143.912109</ele>
        <time>2013-03-09T10:03:38Z</time>
      </trkpt>
      <trkpt lat="45.22907" lon="6.01753">
        <ele>2137.588379</ele>
        <time>2013-03-09T10:03:44Z</time>
      </trkpt>
      <trkpt lat="45.22898" lon="6.01753">
        <ele>2131.085205</ele>
        <time>2013-03-09T10:04:06Z</time>
      </trkpt>
      <trkpt lat="45.22894" lon="6.01743">
        <ele>2126.808838</ele>
        <time>2013-03-09T10:04:24Z</time>
      </trkpt>
      <trkpt lat="45.22893" lon="6.0174">
        <ele>2126.221191</ele>
        <time>2013-03-09T10:04:25Z</time>
      </trkpt>
      <trkpt lat="45.22878" lon="6.01734">
        <ele>2115.86499</ele>
        <time>2013-03-09T10:04:36Z</time>
      </trkpt>
      <trkpt lat="45.22874" lon="6.01723">
        <ele>2111.844971</ele>
        <time>2013-03-09T10:04:45Z</time>
      </trkpt>
      <trkpt lat="45.22874" lon="6.01713">
        <ele>2110.226318</ele>
        <time>2013-03-09T10:04:50Z</time>
      </trkpt>
      <trkpt lat="45.22867" lon="6.01709">
        <ele>2105.209961</ele>
        <time>2013-03-09T10:04:54Z</time>
      </trkpt>
      <trkpt lat="45.22858" lon="6.01708">
        <ele>2099.86499</ele>
        <time>2013-03-09T10:04:59Z</time>
      </trkpt>
      <trkpt lat="45.22852" lon="6.01707">
        <ele>2095.567383</ele>
        <time>2013-03-09T10:05:02Z</time>
      </trkpt>
      <trkpt lat="45.22845" lon="6.01702">
        <ele>2091.154785</ele>
        <time>2013-03-09T10:05:05Z</time>
      </trkpt>
      <trkpt lat="45.22837" lon="6.017">
        <ele>2085.62207</ele>
        <time>2013-03-09T10:05:10Z</time>
      </trkpt>
      <trkpt lat="45.22828" lon="6.01699">
        <ele>2080.368164</ele>
        <time>2013-03-09T10:05:15Z</time>
      </trkpt>
      <trkpt lat="45.2282" lon="6.01696">
        <ele>2075.157715</ele>
        <time>2013-03-09T10:05:20Z</time>
      </trkpt>
      <trkpt lat="45.22813" lon="6.01691">
        <ele>2070.508789</ele>
        <time>2013-03-09T10:06:53Z</time>
      </trkpt>
      <trkpt lat="45.22813" lon="6.01687">
        <ele>2069.893555</ele>
        <time>2013-03-09T10:06:54Z</time>
      </trkpt>
      <trkpt lat="45.22806" lon="6.01675">
        <ele>2063.659912</ele>
        <time>2013-03-09T10:07:01Z</time>
      </trkpt>
      <trkpt lat="45.22798" lon="6.0167">
        <ele>2057.584961</ele>
        <time>2013-03-09T10:07:06Z</time>
      </trkpt>
      <trkpt lat="45.22791" lon="6.0167">
        <ele>2052.860107</ele>
        <time>2013-03-09T10:07:09Z</time>
      </trkpt>
      <trkpt lat="45.22783" lon="6.01665">
        <ele>2046.86377</ele>
        <time>2013-03-09T10:07:12Z</time>
      </trkpt>
      <trkpt lat="45.22775" lon="6.01662">
        <ele>2041.193726</ele>
        <time>2013-03-09T10:07:16Z</time>
      </trkpt>
      <trkpt lat="45.22767" lon="6.01658">
        <ele>2035.231201</ele>
        <time>2013-03-09T10:07:20Z</time>
      </trkpt>
      <trkpt lat="45.2276" lon="6.01665">
        <ele>2031.135376</ele>
        <time>2013-03-09T10:07:23Z</time>
      </trkpt>
      <trkpt lat="45.22753" lon="6.01661">
        <ele>2025.171265</ele>
        <time>2013-03-09T10:07:26Z</time>
      </trkpt>
      <trkpt lat="45.22747" lon="6.01659">
        <ele>2020.31958</ele>
        <time>2013-03-09T10:07:29Z</time>
      </trkpt>
      <trkpt lat="45.2274" lon="6.0166">
        <ele>2014.902344</ele>
        <time>2013-03-09T10:07:32Z</time>
      </trkpt>
      <trkpt lat="45.22733" lon="6.01657">
        <ele>2009.181885</ele>
        <time>2013-03-09T10:07:35Z</time>
      </trkpt>
      <trkpt lat="45.22728" lon="6.01648">
        <ele>2004.636353</ele>
        <time>2013-03-09T10:09:27Z</time>
      </trkpt>
      <trkpt lat="45.22728" lon="6.01646">
        <ele>2003.976196</ele>
        <time>2013-03-09T10:09:28Z</time>
      </trkpt>
      <trkpt lat="45.22727" lon="6.01627">
        <ele>2001.06897</ele>
        <time>2013-03-09T10:09:33Z</time>
      </trkpt>
      <trkpt lat="45.22726" lon="6.01615">
        <ele>1998.470215</ele>
        <time>2013-03-09T10:09:36Z</time>
      </trkpt>
      <trkpt lat="45.22726" lon="6.01604">
        <ele>1996.4729</ele>
        <time>2013-03-09T10:09:39Z</time>
      </trkpt>
      <trkpt lat="45.22727" lon="6.01595">
        <ele>1995.009033</ele>
        <time>2013-03-09T10:09:41Z</time>
      </trkpt>
      <trkpt lat="45.22727" lon="6.01583">
        <ele>1992.750488</ele>
        <time>2013-03-09T10:09:44Z</time>
      </trkpt>
      <trkpt lat="45.2272" lon="6.01578">
        <ele>1987.325806</ele>
        <time>2013-03-09T10:09:49Z</time>
      </trkpt>
      <trkpt lat="45.22713" lon="6.01575">
        <ele>1982.528809</ele>
        <time>2013-03-09T10:09:53Z</time>
      </trkpt>
      <trkpt lat="45.22705" lon="6.01569">
        <ele>1976.532471</ele>
        <time>2013-03-09T10:09:57Z</time>
      </trkpt>
      <trkpt lat="45.22698" lon="6.01562">
        <ele>1970.668457</ele>
        <time>2013-03-09T10:10:01Z</time>
      </trkpt>
      <trkpt lat="45.2269" lon="6.01558">
        <ele>1964.828125</ele>
        <time>2013-03-09T10:10:04Z</time>
      </trkpt>
      <trkpt lat="45.22681" lon="6.01556">
        <ele>1959.255127</ele>
        <time>2013-03-09T10:10:07Z</time>
      </trkpt>
      <trkpt lat="45.22675" lon="6.01563">
        <ele>1955.796631</ele>
        <time>2013-03-09T10:12:28Z</time>
      </trkpt>
      <trkpt lat="45.22674" lon="6.01565">
        <ele>1955.494629</ele>
        <time>2013-03-09T10:12:29Z</time>
      </trkpt>
      <trkpt lat="45.22663" lon="6.01557">
        <ele>1945.69165</ele>
        <time>2013-03-09T10:12:41Z</time>
      </trkpt>
      <trkpt lat="45.22655" lon="6.01553">
        <ele>1938.674072</ele>
        <time>2013-03-09T10:12:46Z</time>
      </trkpt>
      <trkpt lat="45.22649" lon="6.01551">
        <ele>1933.859253</ele>
        <time>2013-03-09T10:12:49Z</time>
      </trkpt>
      <trkpt lat="45.22641" lon="6.01556">
        <ele>1928.720581</ele>
        <time>2013-03-09T10:12:53Z</time>
      </trkpt>
      <trkpt lat="45.22636" lon="6.01563">
        <ele>1925.334839</ele>
        <time>2013-03-09T10:13:53Z</time>
      </trkpt>
      <trkpt lat="45.22634" lon="6.01564">
        <ele>1924.555908</ele>
        <time>2013-03-09T10:13:54Z</time>
      </trkpt>
      <trkpt lat="45.2262" lon="6.01561">
        <ele>1913.821167</ele>
        <time>2013-03-09T10:14:02Z</time>
      </trkpt>
      <trkpt lat="45.22613" lon="6.0156">
        <ele>1908.933228</ele>
        <time>2013-03-09T10:14:05Z</time>
      </trkpt>
      <trkpt lat="45.22606" lon="6.01556">
        <ele>1903.680298</ele>
        <time>2013-03-09T10:14:08Z</time>
      </trkpt>
      <trkpt lat="45.22598" lon="6.01557">
        <ele>1898.661987</ele>
        <time>2013-03-09T10:14:11Z</time>
      </trkpt>
      <trkpt lat="45.22592" lon="6.01556">
        <ele>1894.262817</ele>
        <time>2013-03-09T10:14:13Z</time>
      </trkpt>
      <trkpt lat="45.22586" lon="6.01556">
        <ele>1890.251465</ele>
        <time>2013-03-09T10:14:15Z</time>
      </trkpt>
      <trkpt lat="45.2258" lon="6.01558">
        <ele>1885.834717</ele>
        <time>2013-03-09T10:14:17Z</time>
      </trkpt>
      <trkpt lat="45.22574" lon="6.01555">
        <ele>1881.285645</ele>
        <time>2013-03-09T10:14:19Z</time>
      </trkpt>
      <trkpt lat="45.22566" lon="6.01555">
        <ele>1875.597534</ele>
        <time>2013-03-09T10:14:22Z</time>
      </trkpt>
      <trkpt lat="45.2256" lon="6.01555">
        <ele>1871.397217</ele>
        <time>2013-03-09T10:14:24Z</time>
      </trkpt>
      <trkpt lat="45.22553" lon="6.01551">
        <ele>1867.043701</ele>
        <time>2013-03-09T10:14:26Z</time>
      </trkpt>
      <trkpt lat="45.22546" lon="6.0155">
        <ele>1861.981689</ele>
        <time>2013-03-09T10:14:29Z</time>
      </trkpt>
      <trkpt lat="45.22539" lon="6.01549">
        <ele>1857.11377</ele>
        <time>2013-03-09T10:14:32Z</time>
      </trkpt>
      <trkpt lat="45.22532" lon="6.01545">
        <ele>1853.248901</ele>
        <time>2013-03-09T10:14:34Z</time>
      </trkpt>
      <trkpt lat="45.22524" lon="6.01548">
        <ele>1847.803833</ele>
        <time>2013-03-09T10:15:10Z</time>
      </trkpt>
      <trkpt lat="45.22523" lon="6.01549">
        <ele>1847.261963</ele>
        <time>2013-03-09T10:15:11Z</time>
      </trkpt>
      <trkpt lat="45.22513" lon="6.0153">
        <ele>1840.445923</ele>
        <time>2013-03-09T10:15:18Z</time>
      </trkpt>
      <trkpt lat="45.22511" lon="6.0152">
        <ele>1838.443359</ele>
        <time>2013-03-09T10:15:21Z</time>
      </trkpt>
      <trkpt lat="45.22508" lon="6.01509">
        <ele>1836.407593</ele>
        <time>2013-03-09T10:15:24Z</time>
      </trkpt>
      <trkpt lat="45.22506" lon="6.01498">
        <ele>1834.589355</ele>
        <time>2013-03-09T10:15:27Z</time>
      </trkpt>
      <trkpt lat="45.22505" lon="6.01485">
        <ele>1833.037476</ele>
        <time>2013-03-09T10:15:30Z</time>
      </trkpt>
      <trkpt lat="45.22503" lon="6.01476">
        <ele>1830.466797</ele>
        <time>2013-03-09T10:15:33Z</time>
      </trkpt>
      <trkpt lat="45.22502" lon="6.01463">
        <ele>1826.303711</ele>
        <time>2013-03-09T10:15:37Z</time>
      </trkpt>
      <trkpt lat="45.22503" lon="6.01451">
        <ele>1823.119019</ele>
        <time>2013-03-09T10:16:01Z</time>
      </trkpt>
      <trkpt lat="45.22505" lon="6.01439">
        <ele>1821.427734</ele>
        <time>2013-03-09T10:16:10Z</time>
      </trkpt>
      <trkpt lat="45.22508" lon="6.01427">
        <ele>1819.494629</ele>
        <time>2013-03-09T10:16:21Z</time>
      </trkpt>
      <trkpt lat="45.22507" lon="6.01427">
        <ele>1819.28894</ele>
        <time>2013-03-09T10:16:22Z</time>
      </trkpt>
      <trkpt lat="45.22514" lon="6.01417">
        <ele>1821.203369</ele>
        <time>2013-03-09T10:18:03Z</time>
      </trkpt>
      <trkpt lat="45.22525" lon="6.01403">
        <ele>1825.741699</ele>
        <time>2013-03-09T10:18:32Z</time>
      </trkpt>
      <trkpt lat="45.22528" lon="6.01391">
        <ele>1824.944214</ele>
        <time>2013-03-09T10:18:56Z</time>
      </trkpt>
      <trkpt lat="45.22532" lon="6.0138">
        <ele>1825.003662</ele>
        <time>2013-03-09T10:19:03Z</time>
      </trkpt>
      <trkpt lat="45.22532" lon="6.01377">
        <ele>1824.847412</ele>
        <time>2013-03-09T10:19:04Z</time>
      </trkpt>
      <trkpt lat="45.22539" lon="6.01361">
        <ele>1825.507446</ele>
        <time>2013-03-09T10:19:11Z</time>
      </trkpt>
      <trkpt lat="45.22542" lon="6.01353">
        <ele>1825.832764</ele>
        <time>2013-03-09T10:19:15Z</time>
      </trkpt>
      <trkpt lat="45.22546" lon="6.01343">
        <ele>1825.184204</ele>
        <time>2013-03-09T10:19:18Z</time>
      </trkpt>
      <trkpt lat="45.22549" lon="6.01332">
        <ele>1823.858521</ele>
        <time>2013-03-09T10:19:21Z</time>
      </trkpt>
      <trkpt lat="45.22551" lon="6.01322">
        <ele>1822.050781</ele>
        <time>2013-03-09T10:19:24Z</time>
      </trkpt>
      <trkpt lat="45.22551" lon="6.01309">
        <ele>1818.44165</ele>
        <time>2013-03-09T10:19:27Z</time>
      </trkpt>
      <trkpt lat="45.22552" lon="6.01301">
        <ele>1816.502808</ele>
        <time>2013-03-09T10:19:29Z</time>
      </trkpt>
      <trkpt lat="45.22552" lon="6.0129">
        <ele>1813.35376</ele>
        <time>2013-03-09T10:19:31Z</time>
      </trkpt>
      <trkpt lat="45.2255" lon="6.01279">
        <ele>1808.656372</ele>
        <time>2013-03-09T10:19:33Z</time>
      </trkpt>
      <trkpt lat="45.22551" lon="6.01267">
        <ele>1805.931152</ele>
        <time>2013-03-09T10:19:36Z</time>
      </trkpt>
      <trkpt lat="45.22553" lon="6.01257">
        <ele>1804.463135</ele>
        <time>2013-03-09T10:19:55Z</time>
      </trkpt>
      <trkpt lat="45.22553" lon="6.01246">
        <ele>1801.183472</ele>
        <time>2013-03-09T10:19:59Z</time>
      </trkpt>
      <trkpt lat="45.22553" lon="6.01237">
        <ele>1799.073242</ele>
        <time>2013-03-09T10:20:02Z</time>
      </trkpt>
      <trkpt lat="45.22554" lon="6.01225">
        <ele>1796.597046</ele>
        <time>2013-03-09T10:20:05Z</time>
      </trkpt>
      <trkpt lat="45.22554" lon="6.01223">
        <ele>1795.928345</ele>
        <time>2013-03-09T10:20:06Z</time>
      </trkpt>
      <trkpt lat="45.22554" lon="6.012">
        <ele>1791.595581</ele>
        <time>2013-03-09T10:20:24Z</time>
      </trkpt>
      <trkpt lat="45.22552" lon="6.01189">
        <ele>1788.406128</ele>
        <time>2013-03-09T10:20:35Z</time>
      </trkpt>
      <trkpt lat="45.22546" lon="6.01196">
        <ele>1785.140259</ele>
        <time>2013-03-09T10:20:42Z</time>
      </trkpt>
      <trkpt lat="45.22543" lon="6.01208">
        <ele>1785.5</ele>
        <time>2013-03-09T10:20:48Z</time>
      </trkpt>
      <trkpt lat="45.22538" lon="6.01218">
        <ele>1784.02417</ele>
        <time>2013-03-09T10:20:53Z</time>
      </trkpt>
      <trkpt lat="45.22531" lon="6.01223">
        <ele>1780.157837</ele>
        <time>2013-03-09T10:21:04Z</time>
      </trkpt>
      <trkpt lat="45.22523" lon="6.01222">
        <ele>1774.34314</ele>
        <time>2013-03-09T10:21:14Z</time>
      </trkpt>
      <trkpt lat="45.22523" lon="6.0122">
        <ele>1773.379395</ele>
        <time>2013-03-09T10:21:15Z</time>
      </trkpt>
      <trkpt lat="45.22513" lon="6.01208">
        <ele>1763.838135</ele>
        <time>2013-03-09T10:21:29Z</time>
      </trkpt>
      <trkpt lat="45.22505" lon="6.01215">
        <ele>1759.832642</ele>
        <time>2013-03-09T10:21:33Z</time>
      </trkpt>
      <trkpt lat="45.22497" lon="6.01217">
        <ele>1754.317993</ele>
        <time>2013-03-09T10:21:37Z</time>
      </trkpt>
      <trkpt lat="45.22491" lon="6.01209">
        <ele>1747.925415</ele>
        <time>2013-03-09T10:21:42Z</time>
      </trkpt>
      <trkpt lat="45.2249" lon="6.01197">
        <ele>1744.86377</ele>
        <time>2013-03-09T10:21:48Z</time>
      </trkpt>
      <trkpt lat="45.22493" lon="6.01185">
        <ele>1744.90686</ele>
        <time>2013-03-09T10:21:52Z</time>
      </trkpt>
      <trkpt lat="45.22491" lon="6.01174">
        <ele>1741.387329</ele>
        <time>2013-03-09T10:22:01Z</time>
      </trkpt>
      <trkpt lat="45.22482" lon="6.01176">
        <ele>1735.525391</ele>
        <time>2013-03-09T10:22:10Z</time>
      </trkpt>
      <trkpt lat="45.22474" lon="6.01175">
        <ele>1729.382813</ele>
        <time>2013-03-09T10:22:17Z</time>
      </trkpt>
      <trkpt lat="45.22473" lon="6.01175">
        <ele>1728.91272</ele>
        <time>2013-03-09T10:22:18Z</time>
      </trkpt>
      <trkpt lat="45.22465" lon="6.01157">
        <ele>1720.052002</ele>
        <time>2013-03-09T10:22:47Z</time>
      </trkpt>
      <trkpt lat="45.22461" lon="6.01147">
        <ele>1716.800049</ele>
        <time>2013-03-09T10:22:49Z</time>
      </trkpt>
      <trkpt lat="45.22457" lon="6.01139">
        <ele>1714.093018</ele>
        <time>2013-03-09T10:22:50Z</time>
      </trkpt>
      <trkpt lat="45.22455" lon="6.0113">
        <ele>1712.182007</ele>
        <time>2013-03-09T10:22:51Z</time>
      </trkpt>
      <trkpt lat="45.22453" lon="6.01123">
        <ele>1710.323853</ele>
        <time>2013-03-09T10:22:52Z</time>
      </trkpt>
      <trkpt lat="45.22452" lon="6.01111">
        <ele>1708.809204</ele>
        <time>2013-03-09T10:22:54Z</time>
      </trkpt>
      <trkpt lat="45.22451" lon="6.01124">
        <ele>1709.10498</ele>
        <time>2013-03-09T10:23:15Z</time>
      </trkpt>
      <trkpt lat="45.22447" lon="6.01134">
        <ele>1706.519409</ele>
        <time>2013-03-09T10:23:58Z</time>
      </trkpt>
      <trkpt lat="45.22446" lon="6.01136">
        <ele>1705.964722</ele>
        <time>2013-03-09T10:23:59Z</time>
      </trkpt>
      <trkpt lat="45.22444" lon="6.0115">
        <ele>1705.551758</ele>
        <time>2013-03-09T10:24:21Z</time>
      </trkpt>
      <trkpt lat="45.22447" lon="6.01159">
        <ele>1708.193237</ele>
        <time>2013-03-09T10:24:26Z</time>
      </trkpt>
      <trkpt lat="45.22446" lon="6.01171">
        <ele>1709.312134</ele>
        <time>2013-03-09T10:24:29Z</time>
      </trkpt>
      <trkpt lat="45.22441" lon="6.01181">
        <ele>1707.520874</ele>
        <time>2013-03-09T10:24:34Z</time>
      </trkpt>
      <trkpt lat="45.22434" lon="6.01187">
        <ele>1703.567139</ele>
        <time>2013-03-09T10:24:41Z</time>
      </trkpt>
      <trkpt lat="45.22427" lon="6.01195">
        <ele>1700.157837</ele>
        <time>2013-03-09T10:24:48Z</time>
      </trkpt>
      <trkpt lat="45.22419" lon="6.01191">
        <ele>1694.105225</ele>
        <time>2013-03-09T10:25:04Z</time>
      </trkpt>
      <trkpt lat="45.22418" lon="6.01191">
        <ele>1693.725708</ele>
        <time>2013-03-09T10:25:05Z</time>
      </trkpt>
      <trkpt lat="45.22407" lon="6.01207">
        <ele>1689.647217</ele>
        <time>2013-03-09T10:25:15Z</time>
      </trkpt>
      <trkpt lat="45.22399" lon="6.01204">
        <ele>1684.64856</ele>
        <time>2013-03-09T10:25:19Z</time>
      </trkpt>
      <trkpt lat="45.22392" lon="6.01201">
        <ele>1679.424072</ele>
        <time>2013-03-09T10:25:22Z</time>
      </trkpt>
      <trkpt lat="45.22385" lon="6.01193">
        <ele>1674.095215</ele>
        <time>2013-03-09T10:25:36Z</time>
      </trkpt>
      <trkpt lat="45.22378" lon="6.01186">
        <ele>1668.717651</ele>
        <time>2013-03-09T10:25:41Z</time>
      </trkpt>
      <trkpt lat="45.22369" lon="6.01181">
        <ele>1663.807617</ele>
        <time>2013-03-09T10:25:50Z</time>
      </trkpt>
      <trkpt lat="45.22361" lon="6.01182">
        <ele>1659.602783</ele>
        <time>2013-03-09T10:25:59Z</time>
      </trkpt>
      <trkpt lat="45.22352" lon="6.01177">
        <ele>1654.908081</ele>
        <time>2013-03-09T10:26:25Z</time>
      </trkpt>
      <trkpt lat="45.22352" lon="6.01178">
        <ele>1654.665283</ele>
        <time>2013-03-09T10:26:26Z</time>
      </trkpt>
      <trkpt lat="45.2234" lon="6.01196">
        <ele>1651.412964</ele>
        <time>2013-03-09T10:27:07Z</time>
      </trkpt>
      <trkpt lat="45.22335" lon="6.01203">
        <ele>1649.622681</ele>
        <time>2013-03-09T10:27:12Z</time>
      </trkpt>
      <trkpt lat="45.22326" lon="6.01206">
        <ele>1646.293823</ele>
        <time>2013-03-09T10:27:28Z</time>
      </trkpt>
      <trkpt lat="45.22326" lon="6.01206">
        <ele>1646.049561</ele>
        <time>2013-03-09T10:27:29Z</time>
      </trkpt>
      <trkpt lat="45.22309" lon="6.01206">
        <ele>1639.535767</ele>
        <time>2013-03-09T10:28:39Z</time>
      </trkpt>
      <trkpt lat="45.22309" lon="6.01203">
        <ele>1638.972168</ele>
        <time>2013-03-09T10:28:40Z</time>
      </trkpt>
      <trkpt lat="45.22307" lon="6.01193">
        <ele>1636.803833</ele>
        <time>2013-03-09T10:28:42Z</time>
      </trkpt>
      <trkpt lat="45.22305" lon="6.01185">
        <ele>1635.189453</ele>
        <time>2013-03-09T10:28:43Z</time>
      </trkpt>
      <trkpt lat="45.22303" lon="6.01175">
        <ele>1632.878174</ele>
        <time>2013-03-09T10:28:45Z</time>
      </trkpt>
      <trkpt lat="45.22298" lon="6.01182">
        <ele>1631.828369</ele>
        <time>2013-03-09T10:29:07Z</time>
      </trkpt>
      <trkpt lat="45.22296" lon="6.01191">
        <ele>1632.225952</ele>
        <time>2013-03-09T10:29:09Z</time>
      </trkpt>
      <trkpt lat="45.22291" lon="6.01199">
        <ele>1631.206299</ele>
        <time>2013-03-09T10:29:12Z</time>
      </trkpt>
      <trkpt lat="45.22284" lon="6.01203">
        <ele>1629.394287</ele>
        <time>2013-03-09T10:29:18Z</time>
      </trkpt>
      <trkpt lat="45.22278" lon="6.01197">
        <ele>1627.056274</ele>
        <time>2013-03-09T10:29:37Z</time>
      </trkpt>
      <trkpt lat="45.22276" lon="6.01187">
        <ele>1625.0625</ele>
        <time>2013-03-09T10:29:43Z</time>
      </trkpt>
      <trkpt lat="45.22276" lon="6.01184">
        <ele>1624.542725</ele>
        <time>2013-03-09T10:29:44Z</time>
      </trkpt>
      <trkpt lat="45.22263" lon="6.0117">
        <ele>1618.671875</ele>
        <time>2013-03-09T10:30:19Z</time>
      </trkpt>
      <trkpt lat="45.22256" lon="6.01173">
        <ele>1617.329834</ele>
        <time>2013-03-09T10:30:30Z</time>
      </trkpt>
      <trkpt lat="45.22249" lon="6.01178">
        <ele>1616.329224</ele>
        <time>2013-03-09T10:30:36Z</time>
      </trkpt>
      <trkpt lat="45.22243" lon="6.01171">
        <ele>1613.25769</ele>
        <time>2013-03-09T10:30:45Z</time>
      </trkpt>
      <trkpt lat="45.22242" lon="6.01168">
        <ele>1612.376831</ele>
        <time>2013-03-09T10:30:46Z</time>
      </trkpt>
      <trkpt lat="45.22238" lon="6.01155">
        <ele>1609.52002</ele>
        <time>2013-03-09T10:30:52Z</time>
      </trkpt>
      <trkpt lat="45.22238" lon="6.01145">
        <ele>1607.699951</ele>
        <time>2013-03-09T10:30:54Z</time>
      </trkpt>
      <trkpt lat="45.22241" lon="6.01135">
        <ele>1606.069092</ele>
        <time>2013-03-09T10:30:56Z</time>
      </trkpt>
      <trkpt lat="45.22243" lon="6.01124">
        <ele>1604.004639</ele>
        <time>2013-03-09T10:30:58Z</time>
      </trkpt>
      <trkpt lat="45.22243" lon="6.01113">
        <ele>1601.89856</ele>
        <time>2013-03-09T10:31:00Z</time>
      </trkpt>
      <trkpt lat="45.22243" lon="6.01104">
        <ele>1600.27124</ele>
        <time>2013-03-09T10:31:02Z</time>
      </trkpt>
      <trkpt lat="45.22244" lon="6.01093">
        <ele>1598.192261</ele>
        <time>2013-03-09T10:31:05Z</time>
      </trkpt>
      <trkpt lat="45.22239" lon="6.01086">
        <ele>1597.155029</ele>
        <time>2013-03-09T10:31:09Z</time>
      </trkpt>
      <trkpt lat="45.22235" lon="6.01076">
        <ele>1595.697754</ele>
        <time>2013-03-09T10:31:12Z</time>
      </trkpt>
      <trkpt lat="45.22233" lon="6.01065">
        <ele>1593.918091</ele>
        <time>2013-03-09T10:31:16Z</time>
      </trkpt>
      <trkpt lat="45.22231" lon="6.01052">
        <ele>1591.971313</ele>
        <time>2013-03-09T10:31:19Z</time>
      </trkpt>
      <trkpt lat="45.2223" lon="6.0104">
        <ele>1589.943604</ele>
        <time>2013-03-09T10:31:22Z</time>
      </trkpt>
      <trkpt lat="45.22236" lon="6.01031">
        <ele>1588.080688</ele>
        <time>2013-03-09T10:31:25Z</time>
      </trkpt>
      <trkpt lat="45.22235" lon="6.01019">
        <ele>1586.179565</ele>
        <time>2013-03-09T10:31:29Z</time>
      </trkpt>
      <trkpt lat="45.22243" lon="6.01015">
        <ele>1584.603271</ele>
        <time>2013-03-09T10:31:55Z</time>
      </trkpt>
      <trkpt lat="45.22243" lon="6.01015">
        <ele>1584.611328</ele>
        <time>2013-03-09T10:31:56Z</time>
      </trkpt>
      <trkpt lat="45.22235" lon="6.01001">
        <ele>1582.300171</ele>
        <time>2013-03-09T10:33:20Z</time>
      </trkpt>
      <trkpt lat="45.22236" lon="6.01">
        <ele>1581.952759</ele>
        <time>2013-03-09T10:33:21Z</time>
      </trkpt>
      <trkpt lat="45.22243" lon="6.00981">
        <ele>1576.717407</ele>
        <time>2013-03-09T10:33:28Z</time>
      </trkpt>
      <trkpt lat="45.22245" lon="6.00972">
        <ele>1574.217773</ele>
        <time>2013-03-09T10:33:31Z</time>
      </trkpt>
      <trkpt lat="45.2225" lon="6.00961">
        <ele>1571.126587</ele>
        <time>2013-03-09T10:33:36Z</time>
      </trkpt>
      <trkpt lat="45.22253" lon="6.00951">
        <ele>1570.101074</ele>
        <time>2013-03-09T10:33:41Z</time>
      </trkpt>
      <trkpt lat="45.22258" lon="6.00942">
        <ele>1570.199951</ele>
        <time>2013-03-09T10:33:49Z</time>
      </trkpt>
      <trkpt lat="45.22262" lon="6.00932">
        <ele>1569.748291</ele>
        <time>2013-03-09T10:33:54Z</time>
      </trkpt>
      <trkpt lat="45.22265" lon="6.00921">
        <ele>1568.764526</ele>
        <time>2013-03-09T10:34:02Z</time>
      </trkpt>
      <trkpt lat="45.22266" lon="6.00909">
        <ele>1566.691772</ele>
        <time>2013-03-09T10:34:21Z</time>
      </trkpt>
      <trkpt lat="45.22265" lon="6.00898">
        <ele>1563.545532</ele>
        <time>2013-03-09T10:34:29Z</time>
      </trkpt>
      <trkpt lat="45.22265" lon="6.00896">
        <ele>1563.251099</ele>
        <time>2013-03-09T10:34:30Z</time>
      </trkpt>
      <trkpt lat="45.22264" lon="6.00877">
        <ele>1559.966675</ele>
        <time>2013-03-09T10:34:44Z</time>
      </trkpt>
      <trkpt lat="45.22255" lon="6.00878">
        <ele>1556.004028</ele>
        <time>2013-03-09T10:34:57Z</time>
      </trkpt>
      <trkpt lat="45.22249" lon="6.00874">
        <ele>1554.803833</ele>
        <time>2013-03-09T10:35:02Z</time>
      </trkpt>
      <trkpt lat="45.22243" lon="6.00872">
        <ele>1555.796997</ele>
        <time>2013-03-09T10:35:04Z</time>
      </trkpt>
      <trkpt lat="45.22236" lon="6.00864">
        <ele>1556.092529</ele>
        <time>2013-03-09T10:35:08Z</time>
      </trkpt>
      <trkpt lat="45.22231" lon="6.00855">
        <ele>1555.670166</ele>
        <time>2013-03-09T10:35:12Z</time>
      </trkpt>
      <trkpt lat="45.22227" lon="6.00845">
        <ele>1554.698853</ele>
        <time>2013-03-09T10:35:16Z</time>
      </trkpt>
      <trkpt lat="45.22223" lon="6.00834">
        <ele>1553.345825</ele>
        <time>2013-03-09T10:35:21Z</time>
      </trkpt>
      <trkpt lat="45.22216" lon="6.00826">
        <ele>1552.50293</ele>
        <time>2013-03-09T10:35:25Z</time>
      </trkpt>
      <trkpt lat="45.22211" lon="6.00816">
        <ele>1550.630371</ele>
        <time>2013-03-09T10:35:29Z</time>
      </trkpt>
      <trkpt lat="45.22206" lon="6.00808">
        <ele>1549.620117</ele>
        <time>2013-03-09T10:35:34Z</time>
      </trkpt>
      <trkpt lat="45.22206" lon="6.00806">
        <ele>1549.119141</ele>
        <time>2013-03-09T10:35:35Z</time>
      </trkpt>
      <trkpt lat="45.22201" lon="6.00788">
        <ele>1546.065796</ele>
        <time>2013-03-09T10:35:40Z</time>
      </trkpt>
      <trkpt lat="45.22201" lon="6.00776">
        <ele>1543.146362</ele>
        <time>2013-03-09T10:35:50Z</time>
      </trkpt>
      <trkpt lat="45.22205" lon="6.00767">
        <ele>1539.457886</ele>
        <time>2013-03-09T10:35:56Z</time>
      </trkpt>
      <trkpt lat="45.22211" lon="6.00764">
        <ele>1536.92627</ele>
        <time>2013-03-09T10:35:58Z</time>
      </trkpt>
      <trkpt lat="45.22217" lon="6.0076">
        <ele>1535.887695</ele>
        <time>2013-03-09T10:36:01Z</time>
      </trkpt>
      <trkpt lat="45.22223" lon="6.00751">
        <ele>1533.377563</ele>
        <time>2013-03-09T10:36:05Z</time>
      </trkpt>
      <trkpt lat="45.22227" lon="6.00742">
        <ele>1530.94104</ele>
        <time>2013-03-09T10:36:08Z</time>
      </trkpt>
      <trkpt lat="45.22231" lon="6.00731">
        <ele>1527.935547</ele>
        <time>2013-03-09T10:36:11Z</time>
      </trkpt>
      <trkpt lat="45.22233" lon="6.00721">
        <ele>1525.185059</ele>
        <time>2013-03-09T10:36:13Z</time>
      </trkpt>
      <trkpt lat="45.22236" lon="6.00711">
        <ele>1522.692749</ele>
        <time>2013-03-09T10:36:15Z</time>
      </trkpt>
      <trkpt lat="45.22238" lon="6.007">
        <ele>1519.730103</ele>
        <time>2013-03-09T10:36:17Z</time>
      </trkpt>
      <trkpt lat="45.22242" lon="6.00689">
        <ele>1517.928589</ele>
        <time>2013-03-09T10:36:21Z</time>
      </trkpt>
      <trkpt lat="45.22244" lon="6.00677">
        <ele>1515.679688</ele>
        <time>2013-03-09T10:36:27Z</time>
      </trkpt>
      <trkpt lat="45.22246" lon="6.00667">
        <ele>1513.787476</ele>
        <time>2013-03-09T10:36:30Z</time>
      </trkpt>
      <trkpt lat="45.22246" lon="6.00659">
        <ele>1512.182251</ele>
        <time>2013-03-09T10:36:32Z</time>
      </trkpt>
      <trkpt lat="45.22248" lon="6.00649">
        <ele>1510.134521</ele>
        <time>2013-03-09T10:36:34Z</time>
      </trkpt>
      <trkpt lat="45.22252" lon="6.00642">
        <ele>1508.498413</ele>
        <time>2013-03-09T10:36:36Z</time>
      </trkpt>
      <trkpt lat="45.22252" lon="6.00637">
        <ele>1507.355347</ele>
        <time>2013-03-09T10:36:37Z</time>
      </trkpt>
      <trkpt lat="45.22239" lon="6.00631">
        <ele>1506.721558</ele>
        <time>2013-03-09T10:36:42Z</time>
      </trkpt>
      <trkpt lat="45.22238" lon="6.0062">
        <ele>1504.522705</ele>
        <time>2013-03-09T10:36:47Z</time>
      </trkpt>
      <trkpt lat="45.22233" lon="6.00609">
        <ele>1502.649292</ele>
        <time>2013-03-09T10:36:52Z</time>
      </trkpt>
      <trkpt lat="45.22228" lon="6.006">
        <ele>1501.398682</ele>
        <time>2013-03-09T10:36:54Z</time>
      </trkpt>
      <trkpt lat="45.22228" lon="6.00589">
        <ele>1499.345825</ele>
        <time>2013-03-09T10:36:57Z</time>
      </trkpt>
      <trkpt lat="45.22233" lon="6.00578">
        <ele>1496.964355</ele>
        <time>2013-03-09T10:37:05Z</time>
      </trkpt>
      <trkpt lat="45.2223" lon="6.00567">
        <ele>1494.849365</ele>
        <time>2013-03-09T10:37:12Z</time>
      </trkpt>
      <trkpt lat="45.22227" lon="6.00556">
        <ele>1492.388428</ele>
        <time>2013-03-09T10:37:17Z</time>
      </trkpt>
      <trkpt lat="45.22227" lon="6.00545">
        <ele>1489.477051</ele>
        <time>2013-03-09T10:37:25Z</time>
      </trkpt>
      <trkpt lat="45.22234" lon="6.00538">
        <ele>1486.643188</ele>
        <time>2013-03-09T10:37:31Z</time>
      </trkpt>
      <trkpt lat="45.22237" lon="6.00527">
        <ele>1483.557495</ele>
        <time>2013-03-09T10:37:38Z</time>
      </trkpt>
      <trkpt lat="45.22238" lon="6.00526">
        <ele>1482.961792</ele>
        <time>2013-03-09T10:37:39Z</time>
      </trkpt>
      <trkpt lat="45.22238" lon="6.00512">
        <ele>1479.303711</ele>
        <time>2013-03-09T10:37:46Z</time>
      </trkpt>
      <trkpt lat="45.22235" lon="6.005">
        <ele>1476.863525</ele>
        <time>2013-03-09T10:37:49Z</time>
      </trkpt>
      <trkpt lat="45.2223" lon="6.0049">
        <ele>1475.555786</ele>
        <time>2013-03-09T10:37:57Z</time>
      </trkpt>
      <trkpt lat="45.22232" lon="6.00478">
        <ele>1472.563843</ele>
        <time>2013-03-09T10:38:02Z</time>
      </trkpt>
      <trkpt lat="45.2224" lon="6.00478">
        <ele>1470.414673</ele>
        <time>2013-03-09T10:38:06Z</time>
      </trkpt>
      <trkpt lat="45.22241" lon="6.00466">
        <ele>1466.998169</ele>
        <time>2013-03-09T10:38:11Z</time>
      </trkpt>
      <trkpt lat="45.22242" lon="6.00454">
        <ele>1464.052368</ele>
        <time>2013-03-09T10:38:15Z</time>
      </trkpt>
      <trkpt lat="45.22244" lon="6.00442">
        <ele>1460.140015</ele>
        <time>2013-03-09T10:38:22Z</time>
      </trkpt>
      <trkpt lat="45.22252" lon="6.00447">
        <ele>1458.665649</ele>
        <time>2013-03-09T10:38:26Z</time>
      </trkpt>
      <trkpt lat="45.22255" lon="6.00438">
        <ele>1455.055054</ele>
        <time>2013-03-09T10:38:30Z</time>
      </trkpt>
      <trkpt lat="45.22259" lon="6.00429">
        <ele>1451.112549</ele>
        <time>2013-03-09T10:38:33Z</time>
      </trkpt>
      <trkpt lat="45.22266" lon="6.00422">
        <ele>1446.652466</ele>
        <time>2013-03-09T10:38:36Z</time>
      </trkpt>
      <trkpt lat="45.22268" lon="6.00412">
        <ele>1443.296021</ele>
        <time>2013-03-09T10:38:39Z</time>
      </trkpt>
      <trkpt lat="45.2227" lon="6.0041">
        <ele>1442.617065</ele>
        <time>2013-03-09T10:38:40Z</time>
      </trkpt>
      <trkpt lat="45.22285" lon="6.00408">
        <ele>1440.160522</ele>
        <time>2013-03-09T10:38:46Z</time>
      </trkpt>
      <trkpt lat="45.22289" lon="6.00398">
        <ele>1436.87146</ele>
        <time>2013-03-09T10:38:50Z</time>
      </trkpt>
      <trkpt lat="45.2229" lon="6.00387">
        <ele>1433.987793</ele>
        <time>2013-03-09T10:38:52Z</time>
      </trkpt>
      <trkpt lat="45.22298" lon="6.00382">
        <ele>1432.030518</ele>
        <time>2013-03-09T10:38:55Z</time>
      </trkpt>
      <trkpt lat="45.22302" lon="6.00379">
        <ele>1430.95166</ele>
        <time>2013-03-09T10:38:56Z</time>
      </trkpt>
      <trkpt lat="45.22307" lon="6.00374">
        <ele>1429.51123</ele>
        <time>2013-03-09T10:38:57Z</time>
      </trkpt>
      <trkpt lat="45.22312" lon="6.00369">
        <ele>1427.937744</ele>
        <time>2013-03-09T10:38:59Z</time>
      </trkpt>
      <trkpt lat="45.22318" lon="6.00364">
        <ele>1427.203369</ele>
        <time>2013-03-09T10:39:01Z</time>
      </trkpt>
      <trkpt lat="45.22321" lon="6.00356">
        <ele>1425.966187</ele>
        <time>2013-03-09T10:39:03Z</time>
      </trkpt>
      <trkpt lat="45.22323" lon="6.00344">
        <ele>1423.762695</ele>
        <time>2013-03-09T10:39:06Z</time>
      </trkpt>
      <trkpt lat="45.22321" lon="6.00336">
        <ele>1421.891113</ele>
        <time>2013-03-09T10:39:08Z</time>
      </trkpt>
      <trkpt lat="45.22321" lon="6.00327">
        <ele>1420.078247</ele>
        <time>2013-03-09T10:39:10Z</time>
      </trkpt>
      <trkpt lat="45.2232" lon="6.00315">
        <ele>1417.584961</ele>
        <time>2013-03-09T10:39:13Z</time>
      </trkpt>
      <trkpt lat="45.2232" lon="6.00304">
        <ele>1415.36499</ele>
        <time>2013-03-09T10:40:32Z</time>
      </trkpt>
      <trkpt lat="45.2232" lon="6.00301">
        <ele>1414.805054</ele>
        <time>2013-03-09T10:40:33Z</time>
      </trkpt>
      <trkpt lat="45.22321" lon="6.00281">
        <ele>1411.060059</ele>
        <time>2013-03-09T10:40:39Z</time>
      </trkpt>
      <trkpt lat="45.22319" lon="6.0027">
        <ele>1408.625</ele>
        <time>2013-03-09T10:40:42Z</time>
      </trkpt>
      <trkpt lat="45.22315" lon="6.0026">
        <ele>1407.027466</ele>
        <time>2013-03-09T10:40:46Z</time>
      </trkpt>
      <trkpt lat="45.22309" lon="6.00251">
        <ele>1407.15564</ele>
        <time>2013-03-09T10:40:49Z</time>
      </trkpt>
      <trkpt lat="45.22307" lon="6.00239">
        <ele>1405.904663</ele>
        <time>2013-03-09T10:40:54Z</time>
      </trkpt>
      <trkpt lat="45.2231" lon="6.0023">
        <ele>1403.359497</ele>
        <time>2013-03-09T10:40:57Z</time>
      </trkpt>
      <trkpt lat="45.22315" lon="6.00221">
        <ele>1400.153198</ele>
        <time>2013-03-09T10:40:59Z</time>
      </trkpt>
      <trkpt lat="45.22319" lon="6.00216">
        <ele>1398.168701</ele>
        <time>2013-03-09T10:41:00Z</time>
      </trkpt>
      <trkpt lat="45.22322" lon="6.00211">
        <ele>1397.437866</ele>
        <time>2013-03-09T10:41:01Z</time>
      </trkpt>
      <trkpt lat="45.22328" lon="6.00204">
        <ele>1396.450806</ele>
        <time>2013-03-09T10:41:03Z</time>
      </trkpt>
      <trkpt lat="45.22335" lon="6.00201">
        <ele>1396.230835</ele>
        <time>2013-03-09T10:41:05Z</time>
      </trkpt>
      <trkpt lat="45.22341" lon="6.00196">
        <ele>1395.484985</ele>
        <time>2013-03-09T10:41:08Z</time>
      </trkpt>
      <trkpt lat="45.22347" lon="6.00187">
        <ele>1393.856934</ele>
        <time>2013-03-09T10:41:11Z</time>
      </trkpt>
      <trkpt lat="45.22352" lon="6.00178">
        <ele>1391.991089</ele>
        <time>2013-03-09T10:41:14Z</time>
      </trkpt>
      <trkpt lat="45.22356" lon="6.0017">
        <ele>1390.217163</ele>
        <time>2013-03-09T10:41:17Z</time>
      </trkpt>
      <trkpt lat="45.22362" lon="6.00162">
        <ele>1388.202026</ele>
        <time>2013-03-09T10:41:20Z</time>
      </trkpt>
      <trkpt lat="45.22368" lon="6.00156">
        <ele>1386.988281</ele>
        <time>2013-03-09T10:41:23Z</time>
      </trkpt>
      <trkpt lat="45.22374" lon="6.0015">
        <ele>1386.003296</ele>
        <time>2013-03-09T10:41:26Z</time>
      </trkpt>
      <trkpt lat="45.22382" lon="6.00147">
        <ele>1386.044189</ele>
        <time>2013-03-09T10:41:30Z</time>
      </trkpt>
      <trkpt lat="45.22389" lon="6.00142">
        <ele>1385.526855</ele>
        <time>2013-03-09T10:41:33Z</time>
      </trkpt>
      <trkpt lat="45.22391" lon="6.00141">
        <ele>1385.41333</ele>
        <time>2013-03-09T10:41:34Z</time>
      </trkpt>
      <trkpt lat="45.22402" lon="6.00128">
        <ele>1383.07605</ele>
        <time>2013-03-09T10:41:40Z</time>
      </trkpt>
      <trkpt lat="45.22407" lon="6.00122">
        <ele>1382.015747</ele>
        <time>2013-03-09T10:41:42Z</time>
      </trkpt>
      <trkpt lat="45.22413" lon="6.00117">
        <ele>1381.149536</ele>
        <time>2013-03-09T10:41:44Z</time>
      </trkpt>
      <trkpt lat="45.22418" lon="6.00111">
        <ele>1380.927612</ele>
        <time>2013-03-09T10:41:46Z</time>
      </trkpt>
      <trkpt lat="45.22423" lon="6.00104">
        <ele>1379.985718</ele>
        <time>2013-03-09T10:41:48Z</time>
      </trkpt>
      <trkpt lat="45.22428" lon="6.00097">
        <ele>1379.158569</ele>
        <time>2013-03-09T10:41:50Z</time>
      </trkpt>
      <trkpt lat="45.22433" lon="6.00092">
        <ele>1378.512085</ele>
        <time>2013-03-09T10:41:52Z</time>
      </trkpt>
      <trkpt lat="45.22438" lon="6.00086">
        <ele>1377.935791</ele>
        <time>2013-03-09T10:41:54Z</time>
      </trkpt>
      <trkpt lat="45.22443" lon="6.0008">
        <ele>1377.299194</ele>
        <time>2013-03-09T10:41:56Z</time>
      </trkpt>
      <trkpt lat="45.22451" lon="6.00074">
        <ele>1376.937622</ele>
        <time>2013-03-09T10:41:59Z</time>
      </trkpt>
      <trkpt lat="45.22458" lon="6.00067">
        <ele>1376.142456</ele>
        <time>2013-03-09T10:42:02Z</time>
      </trkpt>
      <trkpt lat="45.22463" lon="6.0006">
        <ele>1375.425049</ele>
        <time>2013-03-09T10:42:05Z</time>
      </trkpt>
      <trkpt lat="45.2247" lon="6.00053">
        <ele>1375.223755</ele>
        <time>2013-03-09T10:42:08Z</time>
      </trkpt>
      <trkpt lat="45.22475" lon="6.00047">
        <ele>1374.828735</ele>
        <time>2013-03-09T10:42:10Z</time>
      </trkpt>
      <trkpt lat="45.22481" lon="6.0004">
        <ele>1374.33374</ele>
        <time>2013-03-09T10:42:12Z</time>
      </trkpt>
      <trkpt lat="45.22487" lon="6.00032">
        <ele>1373.907471</ele>
        <time>2013-03-09T10:42:14Z</time>
      </trkpt>
      <trkpt lat="45.22491" lon="6.00023">
        <ele>1372.141235</ele>
        <time>2013-03-09T10:42:16Z</time>
      </trkpt>
      <trkpt lat="45.22494" lon="6.00012">
        <ele>1369.819946</ele>
        <time>2013-03-09T10:42:18Z</time>
      </trkpt>
      <trkpt lat="45.22496" lon="6.00004">
        <ele>1368.155029</ele>
        <time>2013-03-09T10:42:20Z</time>
      </trkpt>
      <trkpt lat="45.22499" lon="5.99994">
        <ele>1366.268799</ele>
        <time>2013-03-09T10:42:22Z</time>
      </trkpt>
      <trkpt lat="45.22501" lon="5.99984">
        <ele>1364.040039</ele>
        <time>2013-03-09T10:42:24Z</time>
      </trkpt>
      <trkpt lat="45.225" lon="5.99976">
        <ele>1361.486206</ele>
        <time>2013-03-09T10:42:26Z</time>
      </trkpt>
      <trkpt lat="45.22499" lon="5.99967">
        <ele>1358.686279</ele>
        <time>2013-03-09T10:42:28Z</time>
      </trkpt>
      <trkpt lat="45.225" lon="5.99957">
        <ele>1356.23999</ele>
        <time>2013-03-09T10:42:30Z</time>
      </trkpt>
      <trkpt lat="45.22503" lon="5.99945">
        <ele>1354.3302</ele>
        <time>2013-03-09T10:42:33Z</time>
      </trkpt>
      <trkpt lat="45.22504" lon="5.99935">
        <ele>1352.869507</ele>
        <time>2013-03-09T10:42:35Z</time>
      </trkpt>
      <trkpt lat="45.22504" lon="5.99929">
        <ele>1351.723755</ele>
        <time>2013-03-09T10:42:36Z</time>
      </trkpt>
      <trkpt lat="45.22505" lon="5.99913">
        <ele>1349.239868</ele>
        <time>2013-03-09T10:42:39Z</time>
      </trkpt>
      <trkpt lat="45.22506" lon="5.99903">
        <ele>1347.677979</ele>
        <time>2013-03-09T10:42:41Z</time>
      </trkpt>
      <trkpt lat="45.22505" lon="5.99893">
        <ele>1345.738281</ele>
        <time>2013-03-09T10:42:43Z</time>
      </trkpt>
      <trkpt lat="45.22506" lon="5.99885">
        <ele>1344.498047</ele>
        <time>2013-03-09T10:42:45Z</time>
      </trkpt>
      <trkpt lat="45.22507" lon="5.99875">
        <ele>1343.512573</ele>
        <time>2013-03-09T10:42:47Z</time>
      </trkpt>
      <trkpt lat="45.22508" lon="5.99866">
        <ele>1342.711426</ele>
        <time>2013-03-09T10:42:49Z</time>
      </trkpt>
      <trkpt lat="45.22509" lon="5.99857">
        <ele>1341.753052</ele>
        <time>2013-03-09T10:42:51Z</time>
      </trkpt>
      <trkpt lat="45.22511" lon="5.99847">
        <ele>1341.055054</ele>
        <time>2013-03-09T10:42:53Z</time>
      </trkpt>
      <trkpt lat="45.22512" lon="5.99837">
        <ele>1340.180054</ele>
        <time>2013-03-09T10:42:55Z</time>
      </trkpt>
      <trkpt lat="45.22514" lon="5.99827">
        <ele>1339.570068</ele>
        <time>2013-03-09T10:42:57Z</time>
      </trkpt>
      <trkpt lat="45.22515" lon="5.99816">
        <ele>1338.880005</ele>
        <time>2013-03-09T10:42:59Z</time>
      </trkpt>
      <trkpt lat="45.22517" lon="5.99807">
        <ele>1338.345581</ele>
        <time>2013-03-09T10:43:01Z</time>
      </trkpt>
      <trkpt lat="45.22518" lon="5.99798">
        <ele>1337.884155</ele>
        <time>2013-03-09T10:43:03Z</time>
      </trkpt>
      <trkpt lat="45.22518" lon="5.99788">
        <ele>1336.423218</ele>
        <time>2013-03-09T10:43:05Z</time>
      </trkpt>
      <trkpt lat="45.22517" lon="5.99776">
        <ele>1334.047607</ele>
        <time>2013-03-09T10:43:07Z</time>
      </trkpt>
      <trkpt lat="45.22509" lon="5.9978">
        <ele>1331.15332</ele>
        <time>2013-03-09T10:43:11Z</time>
      </trkpt>
      <trkpt lat="45.22505" lon="5.99789">
        <ele>1331.497559</ele>
        <time>2013-03-09T10:43:14Z</time>
      </trkpt>
      <trkpt lat="45.22503" lon="5.99802">
        <ele>1332.75061</ele>
        <time>2013-03-09T10:43:17Z</time>
      </trkpt>
      <trkpt lat="45.22504" lon="5.99814">
        <ele>1334.704468</ele>
        <time>2013-03-09T10:43:21Z</time>
      </trkpt>
      <trkpt lat="45.22504" lon="5.99824">
        <ele>1336.259399</ele>
        <time>2013-03-09T10:43:25Z</time>
      </trkpt>
      <trkpt lat="45.22501" lon="5.99834">
        <ele>1336.957397</ele>
        <time>2013-03-09T10:43:29Z</time>
      </trkpt>
      <trkpt lat="45.22495" lon="5.99839">
        <ele>1336.015869</ele>
        <time>2013-03-09T10:43:32Z</time>
      </trkpt>
      <trkpt lat="45.22488" lon="5.99844">
        <ele>1335.049561</ele>
        <time>2013-03-09T10:43:35Z</time>
      </trkpt>
      <trkpt lat="45.22484" lon="5.99853">
        <ele>1335.077393</ele>
        <time>2013-03-09T10:43:39Z</time>
      </trkpt>
      <trkpt lat="45.22484" lon="5.99855">
        <ele>1335.175293</ele>
        <time>2013-03-09T10:43:40Z</time>
      </trkpt>
      <trkpt lat="45.22474" lon="5.99869">
        <ele>1333.986938</ele>
        <time>2013-03-09T10:43:46Z</time>
      </trkpt>
      <trkpt lat="45.22466" lon="5.99873">
        <ele>1332.186035</ele>
        <time>2013-03-09T10:43:49Z</time>
      </trkpt>
      <trkpt lat="45.22458" lon="5.99875">
        <ele>1331.612305</ele>
        <time>2013-03-09T10:43:55Z</time>
      </trkpt>
      <trkpt lat="45.22453" lon="5.9987">
        <ele>1330.527954</ele>
        <time>2013-03-09T10:43:58Z</time>
      </trkpt>
      <trkpt lat="45.22449" lon="5.9986">
        <ele>1328.921997</ele>
        <time>2013-03-09T10:44:01Z</time>
      </trkpt>
      <trkpt lat="45.22452" lon="5.99848">
        <ele>1327.825317</ele>
        <time>2013-03-09T10:44:05Z</time>
      </trkpt>
      <trkpt lat="45.22457" lon="5.9984">
        <ele>1327.678955</ele>
        <time>2013-03-09T10:44:09Z</time>
      </trkpt>
      <trkpt lat="45.22463" lon="5.99834">
        <ele>1328.347656</ele>
        <time>2013-03-09T10:44:13Z</time>
      </trkpt>
      <trkpt lat="45.2247" lon="5.99829">
        <ele>1329.382568</ele>
        <time>2013-03-09T10:44:16Z</time>
      </trkpt>
      <trkpt lat="45.22477" lon="5.99823">
        <ele>1330.274536</ele>
        <time>2013-03-09T10:44:19Z</time>
      </trkpt>
      <trkpt lat="45.22481" lon="5.99818">
        <ele>1330.465454</ele>
        <time>2013-03-09T10:44:21Z</time>
      </trkpt>
      <trkpt lat="45.22488" lon="5.99811">
        <ele>1330.553589</ele>
        <time>2013-03-09T10:44:24Z</time>
      </trkpt>
      <trkpt lat="45.22492" lon="5.99802">
        <ele>1330.042969</ele>
        <time>2013-03-09T10:44:27Z</time>
      </trkpt>
      <trkpt lat="45.22494" lon="5.99791">
        <ele>1328.692871</ele>
        <time>2013-03-09T10:44:30Z</time>
      </trkpt>
      <trkpt lat="45.22495" lon="5.99778">
        <ele>1326.773315</ele>
        <time>2013-03-09T10:44:33Z</time>
      </trkpt>
      <trkpt lat="45.22495" lon="5.99767">
        <ele>1324.895874</ele>
        <time>2013-03-09T10:44:36Z</time>
      </trkpt>
      <trkpt lat="45.22496" lon="5.99757">
        <ele>1323.689819</ele>
        <time>2013-03-09T10:44:39Z</time>
      </trkpt>
      <trkpt lat="45.22497" lon="5.99747">
        <ele>1322.941528</ele>
        <time>2013-03-09T10:44:42Z</time>
      </trkpt>
      <trkpt lat="45.22496" lon="5.99744">
        <ele>1322.285278</ele>
        <time>2013-03-09T10:44:43Z</time>
      </trkpt>
      <trkpt lat="45.22499" lon="5.99727">
        <ele>1321.352661</ele>
        <time>2013-03-09T10:44:48Z</time>
      </trkpt>
      <trkpt lat="45.225" lon="5.99719">
        <ele>1320.973633</ele>
        <time>2013-03-09T10:44:50Z</time>
      </trkpt>
      <trkpt lat="45.22502" lon="5.9971">
        <ele>1320.487915</ele>
        <time>2013-03-09T10:44:52Z</time>
      </trkpt>
      <trkpt lat="45.22503" lon="5.997">
        <ele>1319.946655</ele>
        <time>2013-03-09T10:44:54Z</time>
      </trkpt>
      <trkpt lat="45.22505" lon="5.9969">
        <ele>1319.484985</ele>
        <time>2013-03-09T10:44:56Z</time>
      </trkpt>
      <trkpt lat="45.22506" lon="5.9968">
        <ele>1318.73999</ele>
        <time>2013-03-09T10:44:58Z</time>
      </trkpt>
      <trkpt lat="45.22506" lon="5.99668">
        <ele>1317.189941</ele>
        <time>2013-03-09T10:45:00Z</time>
      </trkpt>
      <trkpt lat="45.22505" lon="5.99656">
        <ele>1315.441284</ele>
        <time>2013-03-09T10:45:02Z</time>
      </trkpt>
      <trkpt lat="45.22506" lon="5.99644">
        <ele>1314.223755</ele>
        <time>2013-03-09T10:45:04Z</time>
      </trkpt>
      <trkpt lat="45.22506" lon="5.99632">
        <ele>1312.754883</ele>
        <time>2013-03-09T10:45:06Z</time>
      </trkpt>
      <trkpt lat="45.22506" lon="5.9962">
        <ele>1310.631958</ele>
        <time>2013-03-09T10:45:08Z</time>
      </trkpt>
      <trkpt lat="45.22509" lon="5.99609">
        <ele>1309.689453</ele>
        <time>2013-03-09T10:45:10Z</time>
      </trkpt>
      <trkpt lat="45.22512" lon="5.99598">
        <ele>1308.523071</ele>
        <time>2013-03-09T10:45:12Z</time>
      </trkpt>
      <trkpt lat="45.22515" lon="5.99588">
        <ele>1307.688843</ele>
        <time>2013-03-09T10:45:14Z</time>
      </trkpt>
      <trkpt lat="45.2252" lon="5.99581">
        <ele>1308.074585</ele>
        <time>2013-03-09T10:45:16Z</time>
      </trkpt>
      <trkpt lat="45.22524" lon="5.99575">
        <ele>1308.06897</ele>
        <time>2013-03-09T10:45:18Z</time>
      </trkpt>
      <trkpt lat="45.22529" lon="5.99565">
        <ele>1308.04126</ele>
        <time>2013-03-09T10:45:21Z</time>
      </trkpt>
      <trkpt lat="45.22534" lon="5.99558">
        <ele>1308.259399</ele>
        <time>2013-03-09T10:45:23Z</time>
      </trkpt>
      <trkpt lat="45.22536" lon="5.9955">
        <ele>1307.813599</ele>
        <time>2013-03-09T10:45:25Z</time>
      </trkpt>
      <trkpt lat="45.22541" lon="5.99544">
        <ele>1308.197998</ele>
        <time>2013-03-09T10:45:27Z</time>
      </trkpt>
      <trkpt lat="45.22547" lon="5.99537">
        <ele>1308.807739</ele>
        <time>2013-03-09T10:45:29Z</time>
      </trkpt>
      <trkpt lat="45.22553" lon="5.9953">
        <ele>1309.561646</ele>
        <time>2013-03-09T10:45:31Z</time>
      </trkpt>
      <trkpt lat="45.22559" lon="5.9952">
        <ele>1309.456665</ele>
        <time>2013-03-09T10:45:33Z</time>
      </trkpt>
      <trkpt lat="45.22562" lon="5.99515">
        <ele>1309.439697</ele>
        <time>2013-03-09T10:45:34Z</time>
      </trkpt>
      <trkpt lat="45.22565" lon="5.99511">
        <ele>1309.761597</ele>
        <time>2013-03-09T10:45:35Z</time>
      </trkpt>
      <trkpt lat="45.22569" lon="5.99507">
        <ele>1309.967773</ele>
        <time>2013-03-09T10:45:36Z</time>
      </trkpt>
      <trkpt lat="45.22573" lon="5.99501">
        <ele>1310.011353</ele>
        <time>2013-03-09T10:45:37Z</time>
      </trkpt>
      <trkpt lat="45.22578" lon="5.99496">
        <ele>1310.064209</ele>
        <time>2013-03-09T10:45:38Z</time>
      </trkpt>
      <trkpt lat="45.22582" lon="5.9949">
        <ele>1309.947876</ele>
        <time>2013-03-09T10:45:39Z</time>
      </trkpt>
      <trkpt lat="45.22587" lon="5.99484">
        <ele>1309.612061</ele>
        <time>2013-03-09T10:45:40Z</time>
      </trkpt>
      <trkpt lat="45.22592" lon="5.99478">
        <ele>1309.168945</ele>
        <time>2013-03-09T10:45:41Z</time>
      </trkpt>
      <trkpt lat="45.22598" lon="5.9947">
        <ele>1308.424927</ele>
        <time>2013-03-09T10:45:43Z</time>
      </trkpt>
      <trkpt lat="45.22601" lon="5.99467">
        <ele>1307.921631</ele>
        <time>2013-03-09T10:45:44Z</time>
      </trkpt>
      <trkpt lat="45.22609" lon="5.99455">
        <ele>1306.124023</ele>
        <time>2013-03-09T10:45:47Z</time>
      </trkpt>
      <trkpt lat="45.22615" lon="5.99448">
        <ele>1304.744507</ele>
        <time>2013-03-09T10:45:49Z</time>
      </trkpt>
      <trkpt lat="45.22621" lon="5.99441">
        <ele>1302.848022</ele>
        <time>2013-03-09T10:45:51Z</time>
      </trkpt>
      <trkpt lat="45.22628" lon="5.99436">
        <ele>1301.324219</ele>
        <time>2013-03-09T10:45:53Z</time>
      </trkpt>
      <trkpt lat="45.22632" lon="5.99433">
        <ele>1300.312134</ele>
        <time>2013-03-09T10:45:54Z</time>
      </trkpt>
      <trkpt lat="45.22637" lon="5.9943">
        <ele>1299.436523</ele>
        <time>2013-03-09T10:45:55Z</time>
      </trkpt>
      <trkpt lat="45.22641" lon="5.99427">
        <ele>1298.637695</ele>
        <time>2013-03-09T10:45:56Z</time>
      </trkpt>
      <trkpt lat="45.22646" lon="5.99425">
        <ele>1297.976196</ele>
        <time>2013-03-09T10:45:57Z</time>
      </trkpt>
      <trkpt lat="45.22654" lon="5.99421">
        <ele>1296.815918</ele>
        <time>2013-03-09T10:45:59Z</time>
      </trkpt>
      <trkpt lat="45.22662" lon="5.99417">
        <ele>1295.901611</ele>
        <time>2013-03-09T10:46:01Z</time>
      </trkpt>
      <trkpt lat="45.22669" lon="5.99412">
        <ele>1295.74646</ele>
        <time>2013-03-09T10:46:03Z</time>
      </trkpt>
      <trkpt lat="45.22677" lon="5.99406">
        <ele>1295.245239</ele>
        <time>2013-03-09T10:46:05Z</time>
      </trkpt>
      <trkpt lat="45.22681" lon="5.99403">
        <ele>1295.003906</ele>
        <time>2013-03-09T10:46:06Z</time>
      </trkpt>
      <trkpt lat="45.22686" lon="5.994">
        <ele>1294.674805</ele>
        <time>2013-03-09T10:46:07Z</time>
      </trkpt>
      <trkpt lat="45.2269" lon="5.99397">
        <ele>1294.166992</ele>
        <time>2013-03-09T10:46:08Z</time>
      </trkpt>
      <trkpt lat="45.22695" lon="5.99394">
        <ele>1294.01062</ele>
        <time>2013-03-09T10:46:09Z</time>
      </trkpt>
      <trkpt lat="45.22699" lon="5.99391">
        <ele>1293.830444</ele>
        <time>2013-03-09T10:46:10Z</time>
      </trkpt>
      <trkpt lat="45.22704" lon="5.99388">
        <ele>1292.969604</ele>
        <time>2013-03-09T10:46:11Z</time>
      </trkpt>
      <trkpt lat="45.22711" lon="5.99381">
        <ele>1291.740356</ele>
        <time>2013-03-09T10:46:13Z</time>
      </trkpt>
      <trkpt lat="45.22715" lon="5.99378">
        <ele>1291.643433</ele>
        <time>2013-03-09T10:46:14Z</time>
      </trkpt>
      <trkpt lat="45.22719" lon="5.99375">
        <ele>1291.277954</ele>
        <time>2013-03-09T10:46:15Z</time>
      </trkpt>
      <trkpt lat="45.22723" lon="5.99371">
        <ele>1290.897095</ele>
        <time>2013-03-09T10:46:16Z</time>
      </trkpt>
      <trkpt lat="45.22727" lon="5.99368">
        <ele>1290.545654</ele>
        <time>2013-03-09T10:46:17Z</time>
      </trkpt>
      <trkpt lat="45.22731" lon="5.99364">
        <ele>1290.011108</ele>
        <time>2013-03-09T10:46:18Z</time>
      </trkpt>
      <trkpt lat="45.22735" lon="5.9936">
        <ele>1289.199829</ele>
        <time>2013-03-09T10:46:19Z</time>
      </trkpt>
      <trkpt lat="45.22739" lon="5.99356">
        <ele>1288.575684</ele>
        <time>2013-03-09T10:46:20Z</time>
      </trkpt>
      <trkpt lat="45.22743" lon="5.99351">
        <ele>1287.516357</ele>
        <time>2013-03-09T10:46:21Z</time>
      </trkpt>
      <trkpt lat="45.22747" lon="5.99346">
        <ele>1286.064331</ele>
        <time>2013-03-09T10:46:22Z</time>
      </trkpt>
      <trkpt lat="45.2275" lon="5.99341">
        <ele>1284.546875</ele>
        <time>2013-03-09T10:46:23Z</time>
      </trkpt>
      <trkpt lat="45.22754" lon="5.99336">
        <ele>1283.209229</ele>
        <time>2013-03-09T10:46:24Z</time>
      </trkpt>
      <trkpt lat="45.22758" lon="5.99332">
        <ele>1281.589478</ele>
        <time>2013-03-09T10:46:25Z</time>
      </trkpt>
      <trkpt lat="45.22763" lon="5.99327">
        <ele>1280.159058</ele>
        <time>2013-03-09T10:46:26Z</time>
      </trkpt>
      <trkpt lat="45.22767" lon="5.99322">
        <ele>1278.758545</ele>
        <time>2013-03-09T10:46:27Z</time>
      </trkpt>
      <trkpt lat="45.22771" lon="5.99317">
        <ele>1277.263794</ele>
        <time>2013-03-09T10:46:28Z</time>
      </trkpt>
      <trkpt lat="45.22775" lon="5.99313">
        <ele>1276.03418</ele>
        <time>2013-03-09T10:46:29Z</time>
      </trkpt>
      <trkpt lat="45.2278" lon="5.99308">
        <ele>1275.009277</ele>
        <time>2013-03-09T10:46:30Z</time>
      </trkpt>
      <trkpt lat="45.22785" lon="5.99303">
        <ele>1274.002808</ele>
        <time>2013-03-09T10:46:31Z</time>
      </trkpt>
      <trkpt lat="45.2279" lon="5.99299">
        <ele>1273.155029</ele>
        <time>2013-03-09T10:46:32Z</time>
      </trkpt>
      <trkpt lat="45.22796" lon="5.99295">
        <ele>1272.722412</ele>
        <time>2013-03-09T10:46:33Z</time>
      </trkpt>
      <trkpt lat="45.22802" lon="5.9929">
        <ele>1272.02002</ele>
        <time>2013-03-09T10:46:34Z</time>
      </trkpt>
      <trkpt lat="45.22807" lon="5.99286">
        <ele>1271.592285</ele>
        <time>2013-03-09T10:46:35Z</time>
      </trkpt>
      <trkpt lat="45.22813" lon="5.99282">
        <ele>1271.381958</ele>
        <time>2013-03-09T10:46:36Z</time>
      </trkpt>
      <trkpt lat="45.22819" lon="5.99277">
        <ele>1270.869629</ele>
        <time>2013-03-09T10:46:37Z</time>
      </trkpt>
      <trkpt lat="45.22825" lon="5.99273">
        <ele>1270.19458</ele>
        <time>2013-03-09T10:46:38Z</time>
      </trkpt>
      <trkpt lat="45.22831" lon="5.99268">
        <ele>1269.772827</ele>
        <time>2013-03-09T10:46:39Z</time>
      </trkpt>
      <trkpt lat="45.22836" lon="5.99263">
        <ele>1269.247681</ele>
        <time>2013-03-09T10:46:40Z</time>
      </trkpt>
      <trkpt lat="45.22841" lon="5.99256">
        <ele>1268.241089</ele>
        <time>2013-03-09T10:46:41Z</time>
      </trkpt>
      <trkpt lat="45.22847" lon="5.99249">
        <ele>1267.418701</ele>
        <time>2013-03-09T10:46:42Z</time>
      </trkpt>
      <trkpt lat="45.22852" lon="5.99243">
        <ele>1266.544556</ele>
        <time>2013-03-09T10:46:43Z</time>
      </trkpt>
      <trkpt lat="45.22857" lon="5.99236">
        <ele>1265.543579</ele>
        <time>2013-03-09T10:46:44Z</time>
      </trkpt>
      <trkpt lat="45.22862" lon="5.9923">
        <ele>1264.23645</ele>
        <time>2013-03-09T10:46:45Z</time>
      </trkpt>
      <trkpt lat="45.22867" lon="5.99223">
        <ele>1262.787598</ele>
        <time>2013-03-09T10:46:46Z</time>
      </trkpt>
      <trkpt lat="45.22872" lon="5.99216">
        <ele>1261.197021</ele>
        <time>2013-03-09T10:46:47Z</time>
      </trkpt>
      <trkpt lat="45.22876" lon="5.99209">
        <ele>1259.531006</ele>
        <time>2013-03-09T10:46:48Z</time>
      </trkpt>
      <trkpt lat="45.22881" lon="5.99203">
        <ele>1258.120361</ele>
        <time>2013-03-09T10:46:49Z</time>
      </trkpt>
      <trkpt lat="45.22885" lon="5.99196">
        <ele>1256.598511</ele>
        <time>2013-03-09T10:46:50Z</time>
      </trkpt>
      <trkpt lat="45.2289" lon="5.9919">
        <ele>1255.194214</ele>
        <time>2013-03-09T10:46:51Z</time>
      </trkpt>
      <trkpt lat="45.22895" lon="5.99184">
        <ele>1254.003784</ele>
        <time>2013-03-09T10:46:52Z</time>
      </trkpt>
      <trkpt lat="45.229" lon="5.99179">
        <ele>1252.787964</ele>
        <time>2013-03-09T10:46:53Z</time>
      </trkpt>
      <trkpt lat="45.22905" lon="5.99174">
        <ele>1251.911743</ele>
        <time>2013-03-09T10:46:54Z</time>
      </trkpt>
      <trkpt lat="45.22911" lon="5.9917">
        <ele>1251.124268</ele>
        <time>2013-03-09T10:46:55Z</time>
      </trkpt>
      <trkpt lat="45.22917" lon="5.99167">
        <ele>1250.692139</ele>
        <time>2013-03-09T10:46:56Z</time>
      </trkpt>
      <trkpt lat="45.22922" lon="5.99165">
        <ele>1250.652344</ele>
        <time>2013-03-09T10:46:57Z</time>
      </trkpt>
      <trkpt lat="45.22928" lon="5.99164">
        <ele>1250.893311</ele>
        <time>2013-03-09T10:46:58Z</time>
      </trkpt>
      <trkpt lat="45.22933" lon="5.99164">
        <ele>1251.335938</ele>
        <time>2013-03-09T10:46:59Z</time>
      </trkpt>
      <trkpt lat="45.22938" lon="5.99163">
        <ele>1251.980713</ele>
        <time>2013-03-09T10:47:00Z</time>
      </trkpt>
      <trkpt lat="45.22943" lon="5.99163">
        <ele>1252.638062</ele>
        <time>2013-03-09T10:47:01Z</time>
      </trkpt>
      <trkpt lat="45.22949" lon="5.99163">
        <ele>1253.30957</ele>
        <time>2013-03-09T10:47:02Z</time>
      </trkpt>
      <trkpt lat="45.22955" lon="5.99162">
        <ele>1253.609009</ele>
        <time>2013-03-09T10:47:03Z</time>
      </trkpt>
      <trkpt lat="45.2296" lon="5.99161">
        <ele>1254.150513</ele>
        <time>2013-03-09T10:47:04Z</time>
      </trkpt>
      <trkpt lat="45.22966" lon="5.9916">
        <ele>1254.253784</ele>
        <time>2013-03-09T10:47:05Z</time>
      </trkpt>
      <trkpt lat="45.22971" lon="5.99159">
        <ele>1254.244629</ele>
        <time>2013-03-09T10:47:06Z</time>
      </trkpt>
      <trkpt lat="45.22976" lon="5.99157">
        <ele>1254.159302</ele>
        <time>2013-03-09T10:47:07Z</time>
      </trkpt>
      <trkpt lat="45.22982" lon="5.99155">
        <ele>1253.99707</ele>
        <time>2013-03-09T10:47:08Z</time>
      </trkpt>
      <trkpt lat="45.22986" lon="5.99153">
        <ele>1253.493042</ele>
        <time>2013-03-09T10:47:09Z</time>
      </trkpt>
      <trkpt lat="45.22991" lon="5.99151">
        <ele>1252.724487</ele>
        <time>2013-03-09T10:47:10Z</time>
      </trkpt>
      <trkpt lat="45.22995" lon="5.99147">
        <ele>1251.541992</ele>
        <time>2013-03-09T10:47:11Z</time>
      </trkpt>
      <trkpt lat="45.22999" lon="5.99145">
        <ele>1250.891968</ele>
        <time>2013-03-09T10:47:12Z</time>
      </trkpt>
      <trkpt lat="45.23004" lon="5.99143">
        <ele>1250.38855</ele>
        <time>2013-03-09T10:47:13Z</time>
      </trkpt>
      <trkpt lat="45.23009" lon="5.99141">
        <ele>1250.147461</ele>
        <time>2013-03-09T10:47:14Z</time>
      </trkpt>
      <trkpt lat="45.23014" lon="5.9914">
        <ele>1249.870483</ele>
        <time>2013-03-09T10:47:15Z</time>
      </trkpt>
      <trkpt lat="45.23019" lon="5.99138">
        <ele>1249.480347</ele>
        <time>2013-03-09T10:47:16Z</time>
      </trkpt>
      <trkpt lat="45.23023" lon="5.99137">
        <ele>1249.164307</ele>
        <time>2013-03-09T10:47:17Z</time>
      </trkpt>
      <trkpt lat="45.23028" lon="5.99135">
        <ele>1248.901489</ele>
        <time>2013-03-09T10:47:18Z</time>
      </trkpt>
      <trkpt lat="45.23033" lon="5.99134">
        <ele>1248.586548</ele>
        <time>2013-03-09T10:47:19Z</time>
      </trkpt>
      <trkpt lat="45.23038" lon="5.99132">
        <ele>1248.369873</ele>
        <time>2013-03-09T10:47:20Z</time>
      </trkpt>
      <trkpt lat="45.23044" lon="5.99131">
        <ele>1248.276611</ele>
        <time>2013-03-09T10:47:21Z</time>
      </trkpt>
      <trkpt lat="45.23048" lon="5.9913">
        <ele>1247.967651</ele>
        <time>2013-03-09T10:47:22Z</time>
      </trkpt>
      <trkpt lat="45.23053" lon="5.99128">
        <ele>1247.539917</ele>
        <time>2013-03-09T10:47:23Z</time>
      </trkpt>
      <trkpt lat="45.23058" lon="5.99126">
        <ele>1247.043579</ele>
        <time>2013-03-09T10:47:24Z</time>
      </trkpt>
      <trkpt lat="45.23064" lon="5.99124">
        <ele>1246.710449</ele>
        <time>2013-03-09T10:47:25Z</time>
      </trkpt>
      <trkpt lat="45.23069" lon="5.99122">
        <ele>1246.34729</ele>
        <time>2013-03-09T10:47:26Z</time>
      </trkpt>
      <trkpt lat="45.23074" lon="5.9912">
        <ele>1245.724731</ele>
        <time>2013-03-09T10:47:27Z</time>
      </trkpt>
      <trkpt lat="45.23079" lon="5.99118">
        <ele>1245.157593</ele>
        <time>2013-03-09T10:47:28Z</time>
      </trkpt>
      <trkpt lat="45.23084" lon="5.99116">
        <ele>1244.552612</ele>
        <time>2013-03-09T10:47:29Z</time>
      </trkpt>
      <trkpt lat="45.23089" lon="5.99113">
        <ele>1243.616577</ele>
        <time>2013-03-09T10:47:30Z</time>
      </trkpt>
      <trkpt lat="45.23094" lon="5.9911">
        <ele>1242.683105</ele>
        <time>2013-03-09T10:47:31Z</time>
      </trkpt>
      <trkpt lat="45.23098" lon="5.99107">
        <ele>1242.004272</ele>
        <time>2013-03-09T10:47:32Z</time>
      </trkpt>
      <trkpt lat="45.23103" lon="5.99105">
        <ele>1241.290771</ele>
        <time>2013-03-09T10:47:33Z</time>
      </trkpt>
      <trkpt lat="45.23108" lon="5.99102">
        <ele>1240.432861</ele>
        <time>2013-03-09T10:47:34Z</time>
      </trkpt>
      <trkpt lat="45.23113" lon="5.99099">
        <ele>1239.687012</ele>
        <time>2013-03-09T10:47:35Z</time>
      </trkpt>
      <trkpt lat="45.23118" lon="5.99096">
        <ele>1239.332275</ele>
        <time>2013-03-09T10:47:36Z</time>
      </trkpt>
      <trkpt lat="45.23122" lon="5.99092">
        <ele>1238.969849</ele>
        <time>2013-03-09T10:47:37Z</time>
      </trkpt>
      <trkpt lat="45.23126" lon="5.99086">
        <ele>1238.528076</ele>
        <time>2013-03-09T10:47:38Z</time>
      </trkpt>
      <trkpt lat="45.23128" lon="5.99082">
        <ele>1238.015747</ele>
        <time>2013-03-09T10:47:39Z</time>
      </trkpt>
      <trkpt lat="45.23131" lon="5.99076">
        <ele>1237.044922</ele>
        <time>2013-03-09T10:47:40Z</time>
      </trkpt>
      <trkpt lat="45.23132" lon="5.99069">
        <ele>1235.762695</ele>
        <time>2013-03-09T10:47:41Z</time>
      </trkpt>
      <trkpt lat="45.23136" lon="5.99057">
        <ele>1233.671021</ele>
        <time>2013-03-09T10:47:43Z</time>
      </trkpt>
      <trkpt lat="45.23139" lon="5.99046">
        <ele>1231.589111</ele>
        <time>2013-03-09T10:47:45Z</time>
      </trkpt>
      <trkpt lat="45.2314" lon="5.99041">
        <ele>1230.797485</ele>
        <time>2013-03-09T10:47:46Z</time>
      </trkpt>
      <trkpt lat="45.23144" lon="5.99024">
        <ele>1228.775024</ele>
        <time>2013-03-09T10:47:49Z</time>
      </trkpt>
      <trkpt lat="45.23147" lon="5.99012">
        <ele>1227.559937</ele>
        <time>2013-03-09T10:47:51Z</time>
      </trkpt>
      <trkpt lat="45.23151" lon="5.99002">
        <ele>1226.795044</ele>
        <time>2013-03-09T10:47:53Z</time>
      </trkpt>
      <trkpt lat="45.23155" lon="5.98991">
        <ele>1226.344971</ele>
        <time>2013-03-09T10:47:55Z</time>
      </trkpt>
      <trkpt lat="45.23157" lon="5.98986">
        <ele>1226.089966</ele>
        <time>2013-03-09T10:47:56Z</time>
      </trkpt>
      <trkpt lat="45.2316" lon="5.98981">
        <ele>1226.314941</ele>
        <time>2013-03-09T10:47:57Z</time>
      </trkpt>
      <trkpt lat="45.23163" lon="5.98976">
        <ele>1226.420044</ele>
        <time>2013-03-09T10:47:58Z</time>
      </trkpt>
      <trkpt lat="45.23166" lon="5.98971">
        <ele>1226.245361</ele>
        <time>2013-03-09T10:47:59Z</time>
      </trkpt>
      <trkpt lat="45.23169" lon="5.98966">
        <ele>1226.190796</ele>
        <time>2013-03-09T10:48:00Z</time>
      </trkpt>
      <trkpt lat="45.23174" lon="5.98956">
        <ele>1225.28772</ele>
        <time>2013-03-09T10:48:02Z</time>
      </trkpt>
      <trkpt lat="45.23179" lon="5.98946">
        <ele>1224.204834</ele>
        <time>2013-03-09T10:48:04Z</time>
      </trkpt>
      <trkpt lat="45.23183" lon="5.98937">
        <ele>1223.016235</ele>
        <time>2013-03-09T10:48:06Z</time>
      </trkpt>
      <trkpt lat="45.23187" lon="5.98928">
        <ele>1221.732544</ele>
        <time>2013-03-09T10:48:08Z</time>
      </trkpt>
      <trkpt lat="45.23192" lon="5.98919">
        <ele>1220.710449</ele>
        <time>2013-03-09T10:48:10Z</time>
      </trkpt>
      <trkpt lat="45.23197" lon="5.98911">
        <ele>1219.909424</ele>
        <time>2013-03-09T10:48:12Z</time>
      </trkpt>
      <trkpt lat="45.23201" lon="5.98903">
        <ele>1218.983276</ele>
        <time>2013-03-09T10:48:14Z</time>
      </trkpt>
      <trkpt lat="45.23206" lon="5.98895">
        <ele>1218.180054</ele>
        <time>2013-03-09T10:48:16Z</time>
      </trkpt>
      <trkpt lat="45.23212" lon="5.98889">
        <ele>1217.734253</ele>
        <time>2013-03-09T10:48:18Z</time>
      </trkpt>
      <trkpt lat="45.23219" lon="5.98885">
        <ele>1217.864868</ele>
        <time>2013-03-09T10:48:20Z</time>
      </trkpt>
      <trkpt lat="45.23227" lon="5.98881">
        <ele>1217.573975</ele>
        <time>2013-03-09T10:48:22Z</time>
      </trkpt>
      <trkpt lat="45.23235" lon="5.98878">
        <ele>1217.432251</ele>
        <time>2013-03-09T10:48:24Z</time>
      </trkpt>
      <trkpt lat="45.23243" lon="5.98876">
        <ele>1217.416016</ele>
        <time>2013-03-09T10:48:26Z</time>
      </trkpt>
      <trkpt lat="45.23251" lon="5.98873">
        <ele>1217.283691</ele>
        <time>2013-03-09T10:48:28Z</time>
      </trkpt>
      <trkpt lat="45.23258" lon="5.9887">
        <ele>1216.714355</ele>
        <time>2013-03-09T10:48:30Z</time>
      </trkpt>
      <trkpt lat="45.23266" lon="5.98867">
        <ele>1216.235718</ele>
        <time>2013-03-09T10:48:32Z</time>
      </trkpt>
      <trkpt lat="45.23274" lon="5.98865">
        <ele>1215.455444</ele>
        <time>2013-03-09T10:48:34Z</time>
      </trkpt>
      <trkpt lat="45.2328" lon="5.98861">
        <ele>1214.441406</ele>
        <time>2013-03-09T10:48:36Z</time>
      </trkpt>
      <trkpt lat="45.23286" lon="5.98858">
        <ele>1213.454956</ele>
        <time>2013-03-09T10:48:38Z</time>
      </trkpt>
      <trkpt lat="45.23294" lon="5.98852">
        <ele>1211.970581</ele>
        <time>2013-03-09T10:48:41Z</time>
      </trkpt>
      <trkpt lat="45.23302" lon="5.98846">
        <ele>1210.655762</ele>
        <time>2013-03-09T10:48:44Z</time>
      </trkpt>
      <trkpt lat="45.23308" lon="5.98841">
        <ele>1209.303955</ele>
        <time>2013-03-09T10:48:46Z</time>
      </trkpt>
      <trkpt lat="45.23311" lon="5.98838">
        <ele>1208.541992</ele>
        <time>2013-03-09T10:48:47Z</time>
      </trkpt>
      <trkpt lat="45.23321" lon="5.98829">
        <ele>1206.804688</ele>
        <time>2013-03-09T10:48:50Z</time>
      </trkpt>
      <trkpt lat="45.23329" lon="5.98823">
        <ele>1205.51062</ele>
        <time>2013-03-09T10:48:52Z</time>
      </trkpt>
      <trkpt lat="45.23333" lon="5.98819">
        <ele>1204.90686</ele>
        <time>2013-03-09T10:48:53Z</time>
      </trkpt>
      <trkpt lat="45.23338" lon="5.98817">
        <ele>1204.566406</ele>
        <time>2013-03-09T10:48:54Z</time>
      </trkpt>
      <trkpt lat="45.23342" lon="5.98815">
        <ele>1204.380249</ele>
        <time>2013-03-09T10:48:55Z</time>
      </trkpt>
      <trkpt lat="45.23351" lon="5.98809">
        <ele>1203.717041</ele>
        <time>2013-03-09T10:48:57Z</time>
      </trkpt>
      <trkpt lat="45.23355" lon="5.98807">
        <ele>1203.401367</ele>
        <time>2013-03-09T10:48:58Z</time>
      </trkpt>
      <trkpt lat="45.23359" lon="5.98804">
        <ele>1203.280029</ele>
        <time>2013-03-09T10:48:59Z</time>
      </trkpt>
      <trkpt lat="45.23363" lon="5.98801">
        <ele>1203.015015</ele>
        <time>2013-03-09T10:49:00Z</time>
      </trkpt>
      <trkpt lat="45.23371" lon="5.98795">
        <ele>1202.448486</ele>
        <time>2013-03-09T10:49:02Z</time>
      </trkpt>
      <trkpt lat="45.23379" lon="5.98789">
        <ele>1201.875854</ele>
        <time>2013-03-09T10:49:04Z</time>
      </trkpt>
      <trkpt lat="45.23386" lon="5.98783">
        <ele>1201.38269</ele>
        <time>2013-03-09T10:49:06Z</time>
      </trkpt>
      <trkpt lat="45.23393" lon="5.98777">
        <ele>1200.774414</ele>
        <time>2013-03-09T10:49:08Z</time>
      </trkpt>
      <trkpt lat="45.234" lon="5.9877">
        <ele>1199.882568</ele>
        <time>2013-03-09T10:49:10Z</time>
      </trkpt>
      <trkpt lat="45.23407" lon="5.98763">
        <ele>1199.07312</ele>
        <time>2013-03-09T10:49:12Z</time>
      </trkpt>
      <trkpt lat="45.23411" lon="5.9876">
        <ele>1198.674438</ele>
        <time>2013-03-09T10:49:13Z</time>
      </trkpt>
      <trkpt lat="45.23415" lon="5.98756">
        <ele>1198.424561</ele>
        <time>2013-03-09T10:49:14Z</time>
      </trkpt>
      <trkpt lat="45.23422" lon="5.98748">
        <ele>1197.449341</ele>
        <time>2013-03-09T10:49:16Z</time>
      </trkpt>
      <trkpt lat="45.23427" lon="5.9874">
        <ele>1196.355713</ele>
        <time>2013-03-09T10:49:18Z</time>
      </trkpt>
      <trkpt lat="45.23433" lon="5.98732">
        <ele>1195.33606</ele>
        <time>2013-03-09T10:49:20Z</time>
      </trkpt>
      <trkpt lat="45.23438" lon="5.98724">
        <ele>1194.520142</ele>
        <time>2013-03-09T10:49:22Z</time>
      </trkpt>
      <trkpt lat="45.23445" lon="5.98716">
        <ele>1193.678101</ele>
        <time>2013-03-09T10:49:24Z</time>
      </trkpt>
      <trkpt lat="45.23449" lon="5.98707">
        <ele>1192.392578</ele>
        <time>2013-03-09T10:49:26Z</time>
      </trkpt>
      <trkpt lat="45.23454" lon="5.98697">
        <ele>1191.240845</ele>
        <time>2013-03-09T10:49:28Z</time>
      </trkpt>
      <trkpt lat="45.23458" lon="5.98688">
        <ele>1190.432007</ele>
        <time>2013-03-09T10:49:30Z</time>
      </trkpt>
      <trkpt lat="45.23463" lon="5.98681">
        <ele>1189.84436</ele>
        <time>2013-03-09T10:49:32Z</time>
      </trkpt>
      <trkpt lat="45.23467" lon="5.98672">
        <ele>1188.682495</ele>
        <time>2013-03-09T10:49:35Z</time>
      </trkpt>
      <trkpt lat="45.23471" lon="5.98665">
        <ele>1187.569702</ele>
        <time>2013-03-09T10:49:37Z</time>
      </trkpt>
      <trkpt lat="45.23474" lon="5.98658">
        <ele>1186.476074</ele>
        <time>2013-03-09T10:49:39Z</time>
      </trkpt>
      <trkpt lat="45.23478" lon="5.9865">
        <ele>1185.29895</ele>
        <time>2013-03-09T10:49:41Z</time>
      </trkpt>
      <trkpt lat="45.23484" lon="5.98642">
        <ele>1184.38501</ele>
        <time>2013-03-09T10:49:43Z</time>
      </trkpt>
      <trkpt lat="45.23489" lon="5.98634">
        <ele>1183.361938</ele>
        <time>2013-03-09T10:49:45Z</time>
      </trkpt>
      <trkpt lat="45.23493" lon="5.98631">
        <ele>1183.369141</ele>
        <time>2013-03-09T10:49:46Z</time>
      </trkpt>
      <trkpt lat="45.23497" lon="5.98627">
        <ele>1183.32312</ele>
        <time>2013-03-09T10:49:47Z</time>
      </trkpt>
      <trkpt lat="45.23502" lon="5.98624">
        <ele>1183.310181</ele>
        <time>2013-03-09T10:49:48Z</time>
      </trkpt>
      <trkpt lat="45.23506" lon="5.98619">
        <ele>1183.049194</ele>
        <time>2013-03-09T10:49:49Z</time>
      </trkpt>
      <trkpt lat="45.2351" lon="5.98614">
        <ele>1182.624512</ele>
        <time>2013-03-09T10:49:50Z</time>
      </trkpt>
      <trkpt lat="45.23514" lon="5.98609">
        <ele>1181.985474</ele>
        <time>2013-03-09T10:49:51Z</time>
      </trkpt>
      <trkpt lat="45.23517" lon="5.98603">
        <ele>1181.209351</ele>
        <time>2013-03-09T10:49:52Z</time>
      </trkpt>
      <trkpt lat="45.23521" lon="5.98598">
        <ele>1180.514404</ele>
        <time>2013-03-09T10:49:53Z</time>
      </trkpt>
      <trkpt lat="45.23527" lon="5.98589">
        <ele>1179.095581</ele>
        <time>2013-03-09T10:49:55Z</time>
      </trkpt>
      <trkpt lat="45.23533" lon="5.9858">
        <ele>1177.673218</ele>
        <time>2013-03-09T10:49:57Z</time>
      </trkpt>
      <trkpt lat="45.23537" lon="5.98576">
        <ele>1177.079834</ele>
        <time>2013-03-09T10:49:58Z</time>
      </trkpt>
      <trkpt lat="45.23544" lon="5.98569">
        <ele>1176.282471</ele>
        <time>2013-03-09T10:50:00Z</time>
      </trkpt>
      <trkpt lat="45.23551" lon="5.98561">
        <ele>1175.652466</ele>
        <time>2013-03-09T10:50:02Z</time>
      </trkpt>
      <trkpt lat="45.23557" lon="5.98554">
        <ele>1174.695557</ele>
        <time>2013-03-09T10:50:04Z</time>
      </trkpt>
      <trkpt lat="45.23564" lon="5.98546">
        <ele>1173.403076</ele>
        <time>2013-03-09T10:50:06Z</time>
      </trkpt>
      <trkpt lat="45.23569" lon="5.9854">
        <ele>1172.447998</ele>
        <time>2013-03-09T10:50:08Z</time>
      </trkpt>
      <trkpt lat="45.23576" lon="5.98532">
        <ele>1171.13623</ele>
        <time>2013-03-09T10:50:11Z</time>
      </trkpt>
      <trkpt lat="45.23582" lon="5.98527">
        <ele>1170.399414</ele>
        <time>2013-03-09T10:50:13Z</time>
      </trkpt>
      <trkpt lat="45.2359" lon="5.98521">
        <ele>1169.895508</ele>
        <time>2013-03-09T10:50:15Z</time>
      </trkpt>
      <trkpt lat="45.23595" lon="5.98519">
        <ele>1169.601318</ele>
        <time>2013-03-09T10:50:16Z</time>
      </trkpt>
      <trkpt lat="45.236" lon="5.98516">
        <ele>1169.36499</ele>
        <time>2013-03-09T10:50:17Z</time>
      </trkpt>
      <trkpt lat="45.23604" lon="5.98514">
        <ele>1169.248779</ele>
        <time>2013-03-09T10:50:18Z</time>
      </trkpt>
      <trkpt lat="45.23613" lon="5.9851">
        <ele>1168.640015</ele>
        <time>2013-03-09T10:50:20Z</time>
      </trkpt>
      <trkpt lat="45.23619" lon="5.98505">
        <ele>1167.918701</ele>
        <time>2013-03-09T10:50:22Z</time>
      </trkpt>
      <trkpt lat="45.23624" lon="5.98504">
        <ele>1167.939941</ele>
        <time>2013-03-09T10:50:23Z</time>
      </trkpt>
      <trkpt lat="45.23628" lon="5.98502">
        <ele>1167.834961</ele>
        <time>2013-03-09T10:50:24Z</time>
      </trkpt>
      <trkpt lat="45.23633" lon="5.985">
        <ele>1167.88501</ele>
        <time>2013-03-09T10:50:25Z</time>
      </trkpt>
      <trkpt lat="45.23637" lon="5.98499">
        <ele>1167.774048</ele>
        <time>2013-03-09T10:50:26Z</time>
      </trkpt>
      <trkpt lat="45.23642" lon="5.98498">
        <ele>1167.302124</ele>
        <time>2013-03-09T10:50:27Z</time>
      </trkpt>
      <trkpt lat="45.23647" lon="5.98498">
        <ele>1166.896729</ele>
        <time>2013-03-09T10:50:28Z</time>
      </trkpt>
      <trkpt lat="45.23652" lon="5.98498">
        <ele>1166.542603</ele>
        <time>2013-03-09T10:50:29Z</time>
      </trkpt>
      <trkpt lat="45.2366" lon="5.98498">
        <ele>1166.126831</ele>
        <time>2013-03-09T10:50:31Z</time>
      </trkpt>
      <trkpt lat="45.23665" lon="5.98497">
        <ele>1165.721802</ele>
        <time>2013-03-09T10:50:32Z</time>
      </trkpt>
      <trkpt lat="45.2367" lon="5.98496">
        <ele>1165.019287</ele>
        <time>2013-03-09T10:50:33Z</time>
      </trkpt>
      <trkpt lat="45.23676" lon="5.98496">
        <ele>1164.67395</ele>
        <time>2013-03-09T10:50:34Z</time>
      </trkpt>
      <trkpt lat="45.23682" lon="5.98495">
        <ele>1164.102539</ele>
        <time>2013-03-09T10:50:35Z</time>
      </trkpt>
      <trkpt lat="45.23688" lon="5.98494">
        <ele>1163.553955</ele>
        <time>2013-03-09T10:50:36Z</time>
      </trkpt>
      <trkpt lat="45.23694" lon="5.98492">
        <ele>1162.731201</ele>
        <time>2013-03-09T10:50:37Z</time>
      </trkpt>
      <trkpt lat="45.23699" lon="5.9849">
        <ele>1162.119385</ele>
        <time>2013-03-09T10:50:38Z</time>
      </trkpt>
      <trkpt lat="45.23704" lon="5.98488">
        <ele>1161.34729</ele>
        <time>2013-03-09T10:50:39Z</time>
      </trkpt>
      <trkpt lat="45.23711" lon="5.98483">
        <ele>1159.2948</ele>
        <time>2013-03-09T10:50:41Z</time>
      </trkpt>
      <trkpt lat="45.23719" lon="5.98478">
        <ele>1157.4375</ele>
        <time>2013-03-09T10:50:44Z</time>
      </trkpt>
      <trkpt lat="45.23727" lon="5.98471">
        <ele>1155</ele>
        <time>2013-03-09T10:50:51Z</time>
      </trkpt>
      <trkpt lat="45.23728" lon="5.9847">
        <ele>1154.810913</ele>
        <time>2013-03-09T10:50:52Z</time>
      </trkpt>
      <trkpt lat="45.23741" lon="5.98459">
        <ele>1151.481079</ele>
        <time>2013-03-09T10:51:05Z</time>
      </trkpt>
      <trkpt lat="45.23748" lon="5.98452">
        <ele>1149.79248</ele>
        <time>2013-03-09T10:51:08Z</time>
      </trkpt>
      <trkpt lat="45.23754" lon="5.98444">
        <ele>1147.677979</ele>
        <time>2013-03-09T10:51:12Z</time>
      </trkpt>
      <trkpt lat="45.23761" lon="5.98439">
        <ele>1146.615356</ele>
        <time>2013-03-09T10:51:18Z</time>
      </trkpt>
      <trkpt lat="45.23769" lon="5.98435">
        <ele>1146.28186</ele>
        <time>2013-03-09T10:51:21Z</time>
      </trkpt>
      <trkpt lat="45.23775" lon="5.98432">
        <ele>1145.892212</ele>
        <time>2013-03-09T10:51:23Z</time>
      </trkpt>
      <trkpt lat="45.23782" lon="5.98429">
        <ele>1144.734497</ele>
        <time>2013-03-09T10:51:25Z</time>
      </trkpt>
      <trkpt lat="45.23789" lon="5.98427">
        <ele>1143.917603</ele>
        <time>2013-03-09T10:51:27Z</time>
      </trkpt>
      <trkpt lat="45.23796" lon="5.98427">
        <ele>1143.590088</ele>
        <time>2013-03-09T10:51:29Z</time>
      </trkpt>
      <trkpt lat="45.23804" lon="5.98427">
        <ele>1143.368164</ele>
        <time>2013-03-09T10:51:31Z</time>
      </trkpt>
      <trkpt lat="45.2381" lon="5.98425">
        <ele>1142.586182</ele>
        <time>2013-03-09T10:51:33Z</time>
      </trkpt>
      <trkpt lat="45.23817" lon="5.98425">
        <ele>1142.347168</ele>
        <time>2013-03-09T10:51:35Z</time>
      </trkpt>
      <trkpt lat="45.23825" lon="5.98426">
        <ele>1142.139893</ele>
        <time>2013-03-09T10:51:37Z</time>
      </trkpt>
      <trkpt lat="45.23831" lon="5.98426">
        <ele>1141.956299</ele>
        <time>2013-03-09T10:51:39Z</time>
      </trkpt>
      <trkpt lat="45.2384" lon="5.98429">
        <ele>1142.182495</ele>
        <time>2013-03-09T10:51:41Z</time>
      </trkpt>
      <trkpt lat="45.23845" lon="5.9843">
        <ele>1142.110596</ele>
        <time>2013-03-09T10:51:42Z</time>
      </trkpt>
      <trkpt lat="45.2385" lon="5.98431">
        <ele>1142.114746</ele>
        <time>2013-03-09T10:51:43Z</time>
      </trkpt>
      <trkpt lat="45.23856" lon="5.98431">
        <ele>1141.910034</ele>
        <time>2013-03-09T10:51:44Z</time>
      </trkpt>
      <trkpt lat="45.23862" lon="5.9843">
        <ele>1141.402344</ele>
        <time>2013-03-09T10:51:45Z</time>
      </trkpt>
      <trkpt lat="45.23867" lon="5.98429">
        <ele>1140.806763</ele>
        <time>2013-03-09T10:51:46Z</time>
      </trkpt>
      <trkpt lat="45.23873" lon="5.98426">
        <ele>1140.091553</ele>
        <time>2013-03-09T10:51:47Z</time>
      </trkpt>
      <trkpt lat="45.23876" lon="5.98421">
        <ele>1138.937256</ele>
        <time>2013-03-09T10:51:48Z</time>
      </trkpt>
      <trkpt lat="45.2388" lon="5.98416">
        <ele>1137.613281</ele>
        <time>2013-03-09T10:51:49Z</time>
      </trkpt>
      <trkpt lat="45.23883" lon="5.98411">
        <ele>1136.336182</ele>
        <time>2013-03-09T10:51:50Z</time>
      </trkpt>
      <trkpt lat="45.23886" lon="5.98405">
        <ele>1134.869629</ele>
        <time>2013-03-09T10:51:51Z</time>
      </trkpt>
      <trkpt lat="45.23891" lon="5.98397">
        <ele>1132.822632</ele>
        <time>2013-03-09T10:51:53Z</time>
      </trkpt>
      <trkpt lat="45.23894" lon="5.98393">
        <ele>1132.07959</ele>
        <time>2013-03-09T10:51:54Z</time>
      </trkpt>
      <trkpt lat="45.23903" lon="5.98386">
        <ele>1130.389282</ele>
        <time>2013-03-09T10:51:58Z</time>
      </trkpt>
      <trkpt lat="45.2391" lon="5.9838">
        <ele>1129.188843</ele>
        <time>2013-03-09T10:52:01Z</time>
      </trkpt>
      <trkpt lat="45.23915" lon="5.98376">
        <ele>1128.69165</ele>
        <time>2013-03-09T10:52:03Z</time>
      </trkpt>
      <trkpt lat="45.2392" lon="5.98371">
        <ele>1128.067017</ele>
        <time>2013-03-09T10:52:05Z</time>
      </trkpt>
      <trkpt lat="45.23925" lon="5.98365">
        <ele>1127.161255</ele>
        <time>2013-03-09T10:52:07Z</time>
      </trkpt>
      <trkpt lat="45.23931" lon="5.98359">
        <ele>1126.56311</ele>
        <time>2013-03-09T10:52:09Z</time>
      </trkpt>
      <trkpt lat="45.23934" lon="5.98355">
        <ele>1126.022583</ele>
        <time>2013-03-09T10:52:10Z</time>
      </trkpt>
      <trkpt lat="45.23939" lon="5.98351">
        <ele>1125.533203</ele>
        <time>2013-03-09T10:52:11Z</time>
      </trkpt>
      <trkpt lat="45.23943" lon="5.98347">
        <ele>1124.960815</ele>
        <time>2013-03-09T10:52:12Z</time>
      </trkpt>
      <trkpt lat="45.23947" lon="5.98342">
        <ele>1124.463379</ele>
        <time>2013-03-09T10:52:13Z</time>
      </trkpt>
      <trkpt lat="45.23954" lon="5.98336">
        <ele>1123.763672</ele>
        <time>2013-03-09T10:52:15Z</time>
      </trkpt>
      <trkpt lat="45.23958" lon="5.98333">
        <ele>1123.633057</ele>
        <time>2013-03-09T10:52:16Z</time>
      </trkpt>
      <trkpt lat="45.23962" lon="5.98329">
        <ele>1123.493408</ele>
        <time>2013-03-09T10:52:17Z</time>
      </trkpt>
      <trkpt lat="45.23965" lon="5.98325">
        <ele>1122.897705</ele>
        <time>2013-03-09T10:52:18Z</time>
      </trkpt>
      <trkpt lat="45.23969" lon="5.98322">
        <ele>1122.450928</ele>
        <time>2013-03-09T10:52:19Z</time>
      </trkpt>
      <trkpt lat="45.23978" lon="5.98318">
        <ele>1122.185547</ele>
        <time>2013-03-09T10:52:21Z</time>
      </trkpt>
      <trkpt lat="45.23986" lon="5.98315">
        <ele>1122.486816</ele>
        <time>2013-03-09T10:52:23Z</time>
      </trkpt>
      <trkpt lat="45.23991" lon="5.98314">
        <ele>1123.129639</ele>
        <time>2013-03-09T10:52:24Z</time>
      </trkpt>
      <trkpt lat="45.23997" lon="5.98314">
        <ele>1123.800293</ele>
        <time>2013-03-09T10:52:25Z</time>
      </trkpt>
      <trkpt lat="45.24003" lon="5.98313">
        <ele>1124.366821</ele>
        <time>2013-03-09T10:52:26Z</time>
      </trkpt>
      <trkpt lat="45.24008" lon="5.98312">
        <ele>1124.500732</ele>
        <time>2013-03-09T10:52:27Z</time>
      </trkpt>
      <trkpt lat="45.24014" lon="5.9831">
        <ele>1124.351074</ele>
        <time>2013-03-09T10:52:28Z</time>
      </trkpt>
      <trkpt lat="45.2402" lon="5.98309">
        <ele>1124.377075</ele>
        <time>2013-03-09T10:52:29Z</time>
      </trkpt>
      <trkpt lat="45.24025" lon="5.98308">
        <ele>1124.469604</ele>
        <time>2013-03-09T10:52:30Z</time>
      </trkpt>
      <trkpt lat="45.24031" lon="5.98306">
        <ele>1124.239502</ele>
        <time>2013-03-09T10:52:31Z</time>
      </trkpt>
      <trkpt lat="45.24036" lon="5.98304">
        <ele>1123.825317</ele>
        <time>2013-03-09T10:52:32Z</time>
      </trkpt>
      <trkpt lat="45.24042" lon="5.98301">
        <ele>1123.257324</ele>
        <time>2013-03-09T10:52:33Z</time>
      </trkpt>
      <trkpt lat="45.24048" lon="5.98298">
        <ele>1122.572632</ele>
        <time>2013-03-09T10:52:34Z</time>
      </trkpt>
      <trkpt lat="45.24053" lon="5.98293">
        <ele>1121.534302</ele>
        <time>2013-03-09T10:52:35Z</time>
      </trkpt>
      <trkpt lat="45.24057" lon="5.98288">
        <ele>1120.269043</ele>
        <time>2013-03-09T10:52:36Z</time>
      </trkpt>
      <trkpt lat="45.2406" lon="5.98282">
        <ele>1118.725098</ele>
        <time>2013-03-09T10:52:37Z</time>
      </trkpt>
      <trkpt lat="45.24065" lon="5.98272">
        <ele>1115.989868</ele>
        <time>2013-03-09T10:52:39Z</time>
      </trkpt>
      <trkpt lat="45.24067" lon="5.98266">
        <ele>1115.047363</ele>
        <time>2013-03-09T10:52:40Z</time>
      </trkpt>
      <trkpt lat="45.24069" lon="5.9826">
        <ele>1114.439819</ele>
        <time>2013-03-09T10:52:41Z</time>
      </trkpt>
      <trkpt lat="45.24071" lon="5.98254">
        <ele>1113.769287</ele>
        <time>2013-03-09T10:52:42Z</time>
      </trkpt>
      <trkpt lat="45.24073" lon="5.98247">
        <ele>1113.115601</ele>
        <time>2013-03-09T10:52:43Z</time>
      </trkpt>
      <trkpt lat="45.24075" lon="5.98239">
        <ele>1112.483521</ele>
        <time>2013-03-09T10:52:44Z</time>
      </trkpt>
      <trkpt lat="45.24077" lon="5.98232">
        <ele>1111.598999</ele>
        <time>2013-03-09T10:52:45Z</time>
      </trkpt>
      <trkpt lat="45.24078" lon="5.98224">
        <ele>1110.770752</ele>
        <time>2013-03-09T10:52:46Z</time>
      </trkpt>
      <trkpt lat="45.24079" lon="5.98217">
        <ele>1110.020752</ele>
        <time>2013-03-09T10:52:47Z</time>
      </trkpt>
      <trkpt lat="45.24081" lon="5.9821">
        <ele>1109.386719</ele>
        <time>2013-03-09T10:52:48Z</time>
      </trkpt>
      <trkpt lat="45.24081" lon="5.98202">
        <ele>1108.070313</ele>
        <time>2013-03-09T10:52:49Z</time>
      </trkpt>
      <trkpt lat="45.24083" lon="5.9819">
        <ele>1105.702637</ele>
        <time>2013-03-09T10:52:51Z</time>
      </trkpt>
      <trkpt lat="45.24084" lon="5.98179">
        <ele>1103.265869</ele>
        <time>2013-03-09T10:52:53Z</time>
      </trkpt>
      <trkpt lat="45.24086" lon="5.98171">
        <ele>1102.012939</ele>
        <time>2013-03-09T10:52:55Z</time>
      </trkpt>
      <trkpt lat="45.24088" lon="5.98166">
        <ele>1101.51001</ele>
        <time>2013-03-09T10:52:56Z</time>
      </trkpt>
      <trkpt lat="45.24094" lon="5.98152">
        <ele>1099.773926</ele>
        <time>2013-03-09T10:52:59Z</time>
      </trkpt>
      <trkpt lat="45.24101" lon="5.98144">
        <ele>1099.464233</ele>
        <time>2013-03-09T10:53:03Z</time>
      </trkpt>
      <trkpt lat="45.24106" lon="5.98137">
        <ele>1098.358521</ele>
        <time>2013-03-09T10:53:07Z</time>
      </trkpt>
      <trkpt lat="45.2411" lon="5.98126">
        <ele>1095.707397</ele>
        <time>2013-03-09T10:53:20Z</time>
      </trkpt>
      <trkpt lat="45.24115" lon="5.98115">
        <ele>1093.264404</ele>
        <time>2013-03-09T10:53:47Z</time>
      </trkpt>
      <trkpt lat="45.24123" lon="5.98112">
        <ele>1093.873535</ele>
        <time>2013-03-09T10:53:56Z</time>
      </trkpt>
      <trkpt lat="45.24124" lon="5.98112">
        <ele>1093.954834</ele>
        <time>2013-03-09T10:53:57Z</time>
      </trkpt>
      <trkpt lat="45.2414" lon="5.98108">
        <ele>1096.098267</ele>
        <time>2013-03-09T10:54:11Z</time>
      </trkpt>
      <trkpt lat="45.24148" lon="5.98107">
        <ele>1097.302979</ele>
        <time>2013-03-09T10:54:18Z</time>
      </trkpt>
      <trkpt lat="45.24156" lon="5.98103">
        <ele>1097.981079</ele>
        <time>2013-03-09T10:54:27Z</time>
      </trkpt>
      <trkpt lat="45.24163" lon="5.98096">
        <ele>1096.762573</ele>
        <time>2013-03-09T10:54:38Z</time>
      </trkpt>
      <trkpt lat="45.2417" lon="5.98089">
        <ele>1096.439209</ele>
        <time>2013-03-09T10:55:03Z</time>
      </trkpt>
      <trkpt lat="45.24171" lon="5.98089">
        <ele>1096.520752</ele>
        <time>2013-03-09T10:55:04Z</time>
      </trkpt>
      <trkpt lat="45.24185" lon="5.98079">
        <ele>1096.439941</ele>
        <time>2013-03-09T10:55:23Z</time>
      </trkpt>
      <trkpt lat="45.24189" lon="5.98071">
        <ele>1095.334961</ele>
        <time>2013-03-09T10:55:26Z</time>
      </trkpt>
      <trkpt lat="45.24194" lon="5.98063">
        <ele>1093.936279</ele>
        <time>2013-03-09T10:55:30Z</time>
      </trkpt>
      <trkpt lat="45.242" lon="5.98054">
        <ele>1092.090454</ele>
        <time>2013-03-09T10:55:34Z</time>
      </trkpt>
      <trkpt lat="45.24206" lon="5.98047">
        <ele>1090.849365</ele>
        <time>2013-03-09T10:55:38Z</time>
      </trkpt>
      <trkpt lat="45.24212" lon="5.98043">
        <ele>1090.550293</ele>
        <time>2013-03-09T10:55:40Z</time>
      </trkpt>
      <trkpt lat="45.24217" lon="5.9804">
        <ele>1090.286987</ele>
        <time>2013-03-09T10:55:42Z</time>
      </trkpt>
      <trkpt lat="45.24223" lon="5.98036">
        <ele>1090.103882</ele>
        <time>2013-03-09T10:55:44Z</time>
      </trkpt>
      <trkpt lat="45.24229" lon="5.98033">
        <ele>1089.858154</ele>
        <time>2013-03-09T10:55:46Z</time>
      </trkpt>
      <trkpt lat="45.24237" lon="5.98028">
        <ele>1089.437744</ele>
        <time>2013-03-09T10:55:49Z</time>
      </trkpt>
      <trkpt lat="45.24246" lon="5.98024">
        <ele>1088.959961</ele>
        <time>2013-03-09T10:55:54Z</time>
      </trkpt>
      <trkpt lat="45.24252" lon="5.98021">
        <ele>1088.387451</ele>
        <time>2013-03-09T10:55:59Z</time>
      </trkpt>
      <trkpt lat="45.24259" lon="5.98018">
        <ele>1087.826782</ele>
        <time>2013-03-09T10:56:02Z</time>
      </trkpt>
      <trkpt lat="45.24267" lon="5.98015">
        <ele>1087.573853</ele>
        <time>2013-03-09T10:56:05Z</time>
      </trkpt>
      <trkpt lat="45.24269" lon="5.98016">
        <ele>1087.886719</ele>
        <time>2013-03-09T10:56:06Z</time>
      </trkpt>
      <trkpt lat="45.24281" lon="5.98007">
        <ele>1085.933716</ele>
        <time>2013-03-09T10:56:16Z</time>
      </trkpt>
      <trkpt lat="45.24288" lon="5.98004">
        <ele>1085.322388</ele>
        <time>2013-03-09T10:56:19Z</time>
      </trkpt>
      <trkpt lat="45.24296" lon="5.98">
        <ele>1084.581787</ele>
        <time>2013-03-09T10:56:23Z</time>
      </trkpt>
      <trkpt lat="45.24303" lon="5.97995">
        <ele>1083.262939</ele>
        <time>2013-03-09T10:56:27Z</time>
      </trkpt>
      <trkpt lat="45.2431" lon="5.97988">
        <ele>1081.323853</ele>
        <time>2013-03-09T10:57:01Z</time>
      </trkpt>
      <trkpt lat="45.24317" lon="5.97983">
        <ele>1080.040405</ele>
        <time>2013-03-09T10:57:08Z</time>
      </trkpt>
      <trkpt lat="45.24318" lon="5.97982">
        <ele>1079.973389</ele>
        <time>2013-03-09T10:57:09Z</time>
      </trkpt>
      <trkpt lat="45.24332" lon="5.97973">
        <ele>1077.497192</ele>
        <time>2013-03-09T10:57:23Z</time>
      </trkpt>
      <trkpt lat="45.24332" lon="5.9796">
        <ele>1074.015015</ele>
        <time>2013-03-09T10:57:58Z</time>
      </trkpt>
      <trkpt lat="45.24327" lon="5.97958">
        <ele>1073.319946</ele>
        <time>2013-03-09T10:59:10Z</time>
      </trkpt>
      <trkpt lat="45.24327" lon="5.97957">
        <ele>1073.050049</ele>
        <time>2013-03-09T10:59:12Z</time>
      </trkpt>
      <trkpt lat="45.24327" lon="5.97957">
        <ele>1073.050049</ele>
        <time>2013-03-09T10:59:12Z</time>
      </trkpt>
      <trkpt lat="45.24326" lon="5.97955">
        <ele>1072.435059</ele>
        <time>2013-03-09T10:59:15Z</time>
      </trkpt>
    </trkseg>
  </trk>
</gpx>